[[{"header":{"parameterUnit":"m.s-1","parameterCategory":1,"la1":31.0,"la2":29.5877,"lo1":-88.7671,"lo2":-86.6584,"dy":0.0162,"dx":0.0185,"nx":115,"ny":88,"refTime":"2024-07-21T12:00:00:Z","depth":0,"parameterNumber":2,"parameterNumberName":"U-component_of_WINDS"},"data":[0.0,0.0,0.0,0.0,0.0,0.0,0.0,0.0,0.0,0.0,0.0,0.0,0.0,0.0,0.0,0.0,0.0,0.0,0.0,0.0,0.0,0.0,0.0,0.0,0.0,0.0,0.0,0.0,0.0,0.0,0.0,0.0,0.0,0.0,0.0,0.0,0.0,0.0,0.0,0.0,0.0,0.0,0.0,0.0,0.0,0.0,0.0,0.0,0.0,0.0,0.0,0.0,0.0,0.0,0.0,0.0,0.0,0.0,0.0,0.0,0.0,0.0,0.0,0.0,0.0,0.0,0.0,0.0,0.0,0.0,0.0,0.0,0.0,0.0,0.0,0.0,0.0,0.0,0.0,0.0,0.0,0.0,0.0,0.0,0.0,0.0,0.0,0.0,0.0,0.0,0.0,0.0,0.0,0.0,0.0,0.0,0.0,0.0,0.0,0.0,0.0,0.0,0.0,0.0,0.0,0.0,0.0,0.0,0.0,0.0,0.0,0.0,0.0,0.0,0.0,0.0,0.0,0.0,0.0,0.0,0.0,0.0,0.0,0.0,0.0,0.0,0.0,0.0,0.0,0.0,0.0,0.0,0.0,0.0,0.0,0.0,0.0,0.0,0.0,0.0,0.0,0.0,0.0,0.0,0.0,0.0,0.0,0.0,0.0,0.0,0.0,0.0,0.0,0.0,0.0,0.0,0.0,0.0,0.0,0.0,0.0,0.0,0.0,0.0,0.0,0.0,0.0,0.0,0.0,0.0,0.0,0.0,0.0,0.0,0.0,0.0,0.0,0.0,0.0,0.0,0.0,0.0,0.0,0.0,0.0,0.0,0.0,0.0,0.0,0.0,0.0,0.0,0.0,0.0,0.0,0.0,0.0,0.0,0.0,0.0,0.0,0.0,0.0,0.0,0.0,0.0,0.0,0.0,0.0,0.0,0.0,0.0,0.0,0.0,0.0,0.0,0.0,0.0,0.0,0.0,0.0,0.0,0.0,0.0,0.0,0.0,0.0,0.0,0.0,0.0,0.0,0.0,0.0,0.0,0.0,0.0,0.0,0.0,0.0,0.0,0.0,0.0,0.0,0.0,0.0,0.0,0.0,0.0,0.0,0.0,0.0,0.0,0.0,0.0,0.0,0.0,0.0,0.0,0.0,0.0,0.0,0.0,0.0,0.0,0.0,0.0,0.0,0.0,0.0,0.0,0.0,0.0,0.0,0.0,0.0,0.0,0.0,0.0,0.0,0.0,0.0,0.0,0.0,0.0,0.0,0.0,0.0,0.0,0.0,0.0,0.0,0.0,0.0,0.0,0.0,0.0,0.0,0.0,0.0,0.0,0.0,0.0,0.0,0.0,0.0,0.0,0.0,0.0,0.0,0.0,0.0,0.0,0.0,0.0,0.0,0.0,0.0,0.0,0.0,0.0,0.0,0.0,0.0,0.0,0.0,0.0,0.0,0.0,0.0,0.0,0.0,0.0,0.0,0.0,0.0,0.0,0.0,0.0,0.0,0.0,0.0,0.0,0.0,0.0,0.0,0.0,0.0,0.0,0.0,0.0,0.0,0.0,0.0,0.0,0.0,0.0,0.0,0.0,0.0,0.0,0.0,0.0,0.0,0.0,0.0,0.0,0.0,0.0,0.0,0.0,0.0,0.0,0.0,0.0,0.0,0.0,0.0,0.0,0.0,0.0,0.0,0.0,0.0,0.0,0.0,0.0,0.0,0.0,0.0,0.0,0.0,0.0,0.0,0.0,0.0,0.0,0.0,0.0,0.0,0.0,0.0,0.0,0.0,0.0,0.0,0.0,0.0,0.0,0.0,0.0,0.0,0.0,0.0,0.0,0.0,0.0,0.0,0.0,0.0,0.0,0.0,0.0,0.0,0.0,0.0,0.0,0.0,0.0,0.0,0.0,0.0,0.0,0.0,0.0,0.0,0.0,0.0,0.0,0.0,0.0,0.0,0.0,0.0,0.0,0.0,0.0,0.0,0.0,0.0,0.0,0.0,0.0,0.0,0.0,0.0,0.0,0.0,0.0,0.0,0.0,0.0,0.0,0.0,0.0,0.0,0.0,0.0,0.0,0.0,0.0,0.0,0.0,0.0,0.0,0.0,0.0,0.0,0.0,0.0,0.0,0.0,0.0,0.0,0.0,0.0,0.0,0.0,0.0,0.0,0.0,0.0,0.0,0.0,0.0,0.0,0.0,0.0,0.0,0.0,0.0,0.0,0.0,0.0,0.0,0.0,0.0,0.0,0.0,0.0,0.0,0.0,0.0,0.0,0.0,0.0,0.0,0.0,0.0,0.0,0.0,0.0,0.0,0.0,0.0,0.0,0.0,0.0,0.0,0.0,0.0,0.0,0.0,0.0,0.0,0.0,0.0,0.0,0.0,0.0,0.0,0.0,0.0,0.0,0.0,0.0,0.0,0.0,0.0,0.0,0.0,0.0,0.0,0.0,0.0,0.0,0.0,0.0,0.0,0.0,0.0,0.0,0.0,0.0,0.0,0.0,0.0,0.0,0.0,0.0,0.0,0.0,0.0,0.0,0.0,0.0,0.0,0.0,0.0,0.0,0.0,0.0,0.0,0.0,0.0,0.0,0.0,0.0,0.0,0.0,0.0,0.0,0.0,0.0,0.0,0.0,0.0,0.0,0.0,0.0,0.0,0.0,0.0,0.0,0.0,0.0,0.0,0.0,0.0,0.0,0.0,0.0,0.0,0.0,0.0,0.0,0.0,0.0,0.0,0.0,0.0,0.0,0.0,0.0,0.0,0.0,0.0,0.0,0.0,0.0,0.0,0.0,0.0,0.0,0.0,0.0,0.0,0.0,0.0,0.0,0.0,0.0,0.0,0.0,0.0,0.0,0.0,0.0,0.0,0.0,0.0,0.0,0.0,0.0,0.0,0.0,0.0,0.0,0.0,0.0,0.0,0.0,0.0,0.0,0.0,0.0,0.0,0.0,0.0,0.0,0.0,0.0,0.0,0.0,0.0,0.0,0.0,0.0,0.0,0.0,0.0,0.0,0.0,0.0,0.0,0.0,0.0,0.0,0.0,0.0,0.0,0.0,0.0,0.0,0.0,0.0,0.0,0.0,0.0,0.0,0.0,0.0,0.0,0.0,0.0,0.0,0.0,0.0,0.0,0.0,0.0,0.0,0.0,0.0,0.0,0.0,0.0,0.0,0.0,0.0,0.0,0.0,0.0,0.0,0.0,0.0,0.0,0.0,0.0,0.0,0.0,0.0,0.0,0.0,0.0,0.0,0.0,0.0,0.0,0.0,0.0,0.0,0.0,0.0,0.0,0.0,0.0,0.0,0.0,0.0,0.0,0.0,0.0,0.0,0.0,0.0,0.0,0.0,0.0,0.0,0.0,0.0,0.0,0.0,0.0,0.0,0.0,0.0,0.0,0.0,0.0,0.0,0.0,0.0,0.0,0.0,0.0,0.0,0.0,0.0,0.0,0.0,0.0,0.0,0.0,0.0,0.0,0.0,0.0,0.0,0.0,0.0,0.0,0.0,0.0,0.0,0.0,0.0,0.0,0.0,0.0,0.0,0.0,0.0,0.0,0.0,0.0,0.0,0.0,0.0,0.0,0.0,0.0,0.0,0.0,0.0,0.0,0.0,0.0,0.0,0.0,0.0,0.0,0.0,0.0,0.0,0.0,0.0,0.0,0.0,0.0,0.0,0.0,0.0,0.0,0.0,0.0,0.0,0.0,0.0,0.0,0.0,0.0,0.0,0.0,0.0,0.0,0.0,0.0,0.0,0.0,0.0,0.0,0.0,0.0,0.0,0.0,0.0,0.0,0.0,0.0,0.0,0.0,0.0,0.0,0.0,0.0,0.0,0.0,0.0,0.0,0.0,0.0,0.0,0.0,0.0,0.0,0.0,0.0,0.0,0.0,0.0,0.0,0.0,0.0,0.0,0.0,0.0,0.0,0.0,0.0,0.0,0.0,0.0,0.0,0.0,0.0,0.0,0.0,0.0,0.0,0.0,0.0,0.0,0.0,0.0,0.0,0.0,0.0,0.0,0.0,0.0,0.0,0.0,0.0,0.0,0.0,0.0,0.0,0.0,0.0,0.0,0.0,0.0,0.0,0.0,0.0,0.0,0.0,0.0,0.0,0.0,0.0,0.0,0.0,0.0,0.0,0.0,0.0,0.0,0.0,0.0,0.0,0.0,0.0,0.0,0.0,0.0,0.0,0.0,0.0,0.0,0.0,0.0,0.0,0.0,0.0,0.0,0.0,0.0,0.0,0.0,0.0,0.0,0.0,0.0,0.0,0.5185,0.0,0.0,0.0,0.0,0.0,0.0,0.0,0.0,0.0,0.0,0.0,0.0,0.0,0.0,0.0,0.0,0.0,0.0,0.0,0.0,0.0,0.0,0.0,0.0,0.0,0.0,0.0,0.0,0.0,0.0,0.0,0.0,0.0,0.0,0.0,0.0,0.0,0.0,0.0,0.0,0.0,0.0,0.0,0.0,0.0,0.0,0.0,0.0,0.0,0.0,0.0,0.0,0.0,0.0,0.0,0.0,0.0,0.0,0.0,0.0,0.0,0.0,0.0,0.0,0.0,0.0,0.0,0.0,0.0,0.0,0.0,0.0,0.0,0.0,0.0,0.0,0.0,0.0,0.0,0.0,0.0,0.0,0.0,0.0,0.0,0.0,0.0,0.0,0.0,0.0,0.0,0.0,0.0,0.0,0.0,0.0,0.0,0.0,0.0,0.0,0.0,0.0,0.0,0.0,0.0,0.0,0.0,0.0,0.0,0.0,0.5819,0.5427,0.5311,0.5243,0.5195,0.0,0.0,0.0,0.0,0.0,0.0,0.0,0.0,0.0,0.0,0.0,0.0,0.0,0.0,0.0,0.0,0.0,0.0,0.0,0.0,0.0,0.0,0.0,0.0,0.0,0.0,0.0,0.0,0.0,0.0,0.0,0.0,0.0,0.0,0.0,0.0,0.0,0.0,0.0,0.0,0.0,0.0,0.0,0.0,0.0,0.0,0.0,0.0,0.0,0.0,0.0,0.0,0.0,0.0,0.0,0.0,0.0,0.0,0.0,0.0,0.0,0.0,0.0,0.0,0.0,0.0,0.0,0.0,0.0,0.0,0.0,0.0,0.0,0.0,0.0,0.0,0.0,0.0,0.0,0.0,0.0,0.0,0.0,0.0,0.0,0.0,0.0,0.0,0.0,0.0,0.0,0.0,0.0,0.0,0.0,0.0,0.0,0.0,0.0,0.0,0.0,0.0,0.0,0.0,0.0,0.0,0.0,0.0,0.0,0.0,0.0,0.0,0.5603,0.5552,0.547,0.0,0.0,0.0,0.0,0.0,0.0,0.0,0.0,0.0,0.0,0.0,0.0,0.0,0.0,0.0,0.0,0.0,0.0,0.0,0.0,0.0,0.0,0.0,0.0,0.0,0.0,0.0,0.0,0.0,0.0,0.0,0.0,0.0,0.0,0.0,0.0,0.0,0.0,0.0,0.0,0.0,0.0,0.0,0.0,0.0,0.0,0.0,0.0,0.0,0.0,0.0,0.0,0.0,0.0,0.0,0.0,0.0,0.0,0.0,0.0,0.0,0.0,0.0,0.0,0.0,0.0,0.0,0.0,0.0,0.0,0.0,0.0,0.0,0.0,0.0,0.0,0.0,0.0,0.0,0.0,0.0,0.0,0.0,0.0,0.0,0.0,0.0,0.0,0.0,0.0,0.0,0.0,0.0,0.0,0.0,0.0,0.0,0.0,0.0,0.0,0.0,0.0,0.0,0.0,0.0,0.0,0.0,0.0,0.0,0.0,0.5939,0.6394,0.6392,0.0,0.6267,0.0,0.0,0.0,0.0,0.0,0.0,0.0,0.0,0.0,0.0,0.0,0.0,0.0,0.0,0.0,0.0,0.0,0.0,0.0,0.0,0.0,0.0,0.0,0.0,0.0,0.0,0.0,0.0,0.0,0.0,0.0,0.0,0.0,0.0,0.0,0.0,0.0,0.0,0.0,0.0,0.0,0.0,0.0,0.0,0.0,0.0,0.0,0.0,0.0,0.0,0.0,0.0,0.0,0.0,0.0,0.0,0.0,0.0,0.0,0.0,0.0,0.0,0.0,0.0,0.0,0.0,0.0,0.0,0.0,0.0,0.0,0.0,0.0,0.0,0.0,0.0,0.0,0.0,0.0,0.0,0.0,0.0,0.0,0.0,0.0,0.0,0.0,0.0,0.0,0.0,0.0,0.0,0.0,0.0,0.0,0.0,0.0,0.0,0.0,0.0,0.0,0.0,0.0,0.0,0.0,0.0,0.0,0.0,0.0,0.0,0.0,0.6561,0.6523,0.6368,0.0,0.0,0.0,0.0,0.0,0.0,0.0,0.0,0.0,0.0,0.0,0.0,0.0,0.0,0.0,0.0,0.0,0.0,0.0,0.0,0.0,0.0,0.0,0.0,0.0,0.0,0.0,0.0,0.0,0.0,0.0,0.0,0.0,0.0,0.0,0.0,0.0,0.0,0.0,0.0,0.0,0.0,0.0,0.0,0.0,0.0,0.0,0.0,0.0,0.0,0.0,0.0,0.0,0.0,0.0,0.0,0.0,0.0,0.0,0.0,0.0,0.0,0.0,0.0,0.0,0.0,0.0,0.0,0.0,0.0,0.0,0.0,0.0,0.0,0.0,0.0,0.0,0.0,0.0,0.0,0.0,0.0,0.0,0.0,0.0,0.0,0.0,0.0,0.0,0.0,0.0,0.0,0.0,0.0,0.0,0.0,0.0,0.0,0.0,0.0,0.0,0.0,0.0,0.0,0.0,0.0,0.0,0.0,0.0,0.0,0.6625,0.0,0.6888,0.6627,0.6315,0.5968,0.0,0.0,0.0,0.0,0.0,0.0,0.0,0.0,0.0,0.0,0.0,0.0,0.0,0.0,0.0,0.0,0.0,0.0,0.0,0.0,0.0,0.0,0.0,0.0,0.0,0.0,0.0,0.0,0.0,0.0,0.0,0.0,0.0,0.0,0.0,0.0,0.0,0.0,0.0,0.0,0.0,0.0,0.0,0.0,0.0,0.0,0.0,0.0,0.0,0.0,0.0,0.0,0.0,0.0,0.0,0.0,0.0,0.0,0.0,0.0,0.0,0.0,0.0,0.0,0.0,0.0,0.0,0.0,0.0,0.0,0.0,0.0,0.0,0.0,0.0,0.0,0.0,0.0,0.0,0.0,0.0,0.0,0.0,0.0,0.0,0.0,0.0,0.0,0.0,0.0,0.0,0.0,0.0,0.0,0.0,0.0,0.0,0.0,0.0,0.0,0.0,0.0,0.0,0.0,0.0,0.0,0.0,0.0,0.0,0.7049,0.6945,0.7583,0.6855,0.6396,0.0,0.0,0.0,0.0,0.0,0.0,0.0,0.0,0.0,0.0,0.0,0.0,0.0,0.0,0.0,0.0,0.0,0.0,0.0,0.0,0.0,0.0,0.0,0.0,0.0,0.0,0.0,0.0,0.0,0.0,0.0,0.0,0.0,0.0,0.0,0.0,0.0,0.0,0.0,0.0,0.0,0.0,0.0,0.0,0.0,0.0,0.0,0.0,0.0,0.0,0.0,0.0,0.0,0.0,0.0,0.0,0.0,0.0,0.0,0.0,0.0,0.0,0.0,0.0,0.0,0.0,0.0,0.0,0.0,0.0,0.0,0.0,0.0,0.0,0.0,0.0,0.0,0.0,0.0,0.0,0.0,0.0,0.0,0.0,0.0,0.0,0.0,0.0,0.0,0.0,0.0,0.0,0.0,0.0,0.0,0.0,0.0,0.0,0.0,0.0,0.0,0.0,0.0,0.0,0.0,0.0,0.0,0.0,0.0,0.6239,0.6398,0.6752,0.7332,0.6748,0.6297,0.0,0.0,0.0,0.0,0.0,0.0,0.0,0.0,0.0,0.0,0.0,0.0,0.0,0.0,0.0,0.0,0.0,0.0,0.0,0.0,0.0,0.0,0.0,0.0,0.0,0.0,0.0,0.0,0.0,0.0,0.0,0.0,0.0,0.0,0.0,0.0,0.0,0.0,0.0,0.0,0.0,0.0,0.0,0.0,0.0,0.0,0.0,0.0,0.0,0.0,0.0,0.0,0.0,0.0,0.0,0.0,0.0,0.0,0.0,0.0,0.0,0.0,0.0,0.0,0.0,0.0,0.0,0.0,0.0,0.0,0.0,0.0,0.0,0.0,0.0,0.0,0.0,0.0,0.0,0.0,0.0,0.0,0.0,0.0,0.0,0.0,0.0,0.0,0.0,0.0,0.0,0.0,0.0,0.0,0.0,0.0,0.0,0.0,0.0,0.0,0.0,0.0,0.0,0.0,0.0,0.0,0.0,0.0,0.0,0.5773,0.0,0.6773,0.0,0.6464,0.6026,0.0,0.0,0.0,0.0,0.0,0.0,0.0,0.0,0.0,0.0,0.0,0.0,0.0,0.0,0.0,0.0,0.0,0.0,0.0,0.0,0.0,0.0,0.0,0.0,0.0,0.0,0.0,0.0,0.0,0.0,0.0,0.0,0.0,0.0,0.0,0.0,0.0,0.0,0.0,0.0,0.0,0.0,0.0,0.0,0.0,0.0,0.0,0.0,0.0,0.0,0.0,0.0,0.0,0.0,0.0,0.0,0.0,0.0,0.0,0.0,0.0,0.0,0.0,0.0,0.0,0.0,0.0,0.0,0.0,0.0,0.0,0.0,0.0,0.0,0.0,0.0,0.0,0.0,0.0,0.0,0.0,0.0,0.0,0.0,0.0,0.0,0.0,0.0,0.0,0.0,0.0,0.0,0.0,0.0,0.0,0.0,0.0,0.0,0.0,0.0,0.0,0.0,0.0,0.0,0.0,0.0,0.0,0.0,0.6021,0.6649,0.7088,0.6982,0.6315,0.6042,0.5573,0.0,0.0,0.0,0.0,0.0,0.0,0.0,0.0,0.0,0.0,0.0,0.0,0.0,0.0,0.0,0.0,0.0,0.0,0.0,0.0,0.0,0.0,0.0,0.0,0.0,0.0,0.0,0.0,0.0,0.0,0.0,0.0,0.0,0.0,0.0,0.0,0.0,0.0,0.0,0.0,0.0,0.0,0.0,0.0,0.0,0.0,0.0,0.0,0.0,0.0,0.0,0.0,0.0,0.0,0.0,0.0,0.0,0.0,0.0,0.0,0.0,0.0,0.0,0.0,0.0,0.0,0.0,0.0,0.0,0.0,0.0,0.0,0.0,0.0,0.0,0.0,0.0,0.0,0.0,0.0,0.0,0.0,0.0,0.0,0.0,0.0,0.0,0.0,0.0,0.0,0.0,0.0,0.0,0.0,0.0,0.0,0.0,0.0,0.0,0.0,0.0,0.0,0.0,0.0,0.0,0.0,0.0,0.0,0.0,0.5894,0.6189,0.63,0.6152,0.5587,0.5368,0.0,0.0,0.0,0.0,0.0,0.0,0.0,0.0,0.0,0.0,0.0,0.0,0.0,0.0,0.0,0.0,0.0,0.0,0.0,0.0,0.0,0.0,0.0,0.0,0.0,0.0,0.0,0.0,0.0,0.0,0.0,0.0,0.0,0.0,0.0,0.0,0.0,0.0,0.0,0.0,0.0,0.0,0.0,0.0,0.0,0.0,0.0,0.0,0.0,0.0,0.0,0.0,0.0,0.0,0.0,0.0,0.0,0.0,0.0,0.0,0.0,0.0,0.0,0.0,0.0,0.0,0.0,0.0,0.0,0.0,0.0,0.0,0.0,0.0,0.0,0.0,0.0,0.0,0.0,0.0,0.0,0.0,0.0,0.0,0.0,0.0,0.0,0.0,0.0,0.0,0.0,0.0,0.0,0.0,0.0,0.0,0.0,0.0,0.0,0.0,0.0,0.0,0.0,0.0,0.0,0.0,0.0,0.0,0.0,0.6128,0.6396,0.6442,0.6172,0.569,0.5415,0.5435,0.0,0.0,0.0,0.0,0.0,0.0,0.0,0.0,0.0,0.0,0.0,0.0,0.0,0.0,0.0,0.0,0.0,0.0,0.0,0.0,0.0,0.0,0.0,0.0,0.0,0.0,0.0,0.0,0.0,0.0,0.0,0.0,0.0,0.0,0.0,0.0,0.0,0.0,0.0,0.0,0.0,0.0,0.0,0.0,0.0,0.0,0.0,0.0,0.0,0.0,0.0,0.0,0.0,0.0,0.0,0.0,0.0,0.0,0.0,0.0,0.0,0.0,0.0,0.0,0.0,0.0,0.0,0.0,0.0,0.0,0.0,0.0,0.0,0.0,0.0,0.0,0.0,0.0,0.0,0.0,0.0,0.0,0.0,0.0,0.0,0.0,0.0,0.0,0.0,0.0,0.0,0.0,0.0,0.0,0.0,0.0,0.0,0.0,0.0,0.0,0.0,0.0,0.0,0.0,0.0,0.0,0.0,0.0,0.7116,0.7594,0.7395,0.6491,0.6239,0.5704,0.0,0.0,0.0,0.0,0.0,0.0,0.0,0.0,0.0,0.0,0.0,0.0,0.0,0.0,0.0,0.0,0.0,0.0,0.0,0.0,0.0,0.0,0.0,0.0,0.0,0.0,0.0,0.0,0.0,0.0,0.0,0.0,0.0,0.0,0.0,0.0,0.0,0.0,0.0,0.0,0.0,0.0,0.0,0.0,0.0,0.0,0.0,0.0,0.0,0.0,0.0,0.0,0.0,0.0,0.0,0.0,0.0,0.0,0.0,0.0,0.0,0.0,0.0,0.0,0.0,0.0,0.0,0.0,0.0,0.0,0.0,0.0,0.0,0.0,0.0,0.0,0.0,0.0,0.0,0.0,0.0,0.0,0.0,0.0,0.0,0.0,0.0,0.0,0.0,0.0,0.0,0.0,0.0,0.0,0.0,0.0,0.0,0.0,0.0,0.0,0.0,0.0,0.0,0.0,0.0,0.0,0.0,0.0,0.0,0.7509,0.8768,0.903,0.8092,0.7084,0.6407,0.0,0.0,0.0,0.0,0.0,0.0,0.0,0.0,0.0,0.0,0.0,0.0,0.0,0.0,0.0,0.0,0.0,0.0,0.0,0.0,0.0,0.0,0.0,0.0,0.0,0.0,0.0,0.0,0.0,0.0,0.0,0.0,0.0,0.0,0.0,0.0,0.0,0.0,0.0,0.0,0.0,0.0,0.0,0.0,0.0,0.0,0.0,0.0,0.0,0.0,0.0,0.0,0.0,0.0,0.0,0.0,0.0,0.0,0.0,0.0,0.0,0.0,0.0,0.0,0.0,0.0,0.0,0.0,0.0,0.0,0.0,0.0,0.0,0.0,0.0,0.0,0.0,0.0,0.0,0.0,0.0,0.0,0.0,0.0,0.0,0.0,0.0,0.0,0.0,0.0,0.0,0.0,0.0,0.0,0.0,0.0,0.0,0.0,0.0,0.0,0.0,0.0,0.0,0.0,0.0,0.0,0.0,0.0,0.8083,0.8279,0.9762,1.025,0.9735,0.8312,0.7206,0.0,0.0,0.0,0.0,0.0,0.0,0.0,0.0,0.0,0.0,0.0,0.0,0.0,0.0,0.0,0.0,0.0,0.0,0.0,0.0,0.0,0.0,0.0,0.0,0.0,0.0,0.0,0.0,0.0,0.0,0.0,0.0,0.0,0.0,0.0,0.0,0.0,0.0,0.0,0.0,0.0,0.0,0.0,0.0,0.0,0.0,0.0,0.0,0.0,0.0,0.0,0.0,0.0,0.0,0.0,0.0,0.0,0.0,0.0,0.0,0.0,0.0,0.0,0.0,0.0,0.0,0.0,0.0,0.0,0.0,0.0,0.0,0.0,0.0,0.0,0.0,0.0,0.0,0.0,0.0,0.0,0.0,0.0,0.0,0.0,0.0,0.0,0.0,0.0,0.0,0.0,0.0,0.0,0.0,0.0,0.0,0.0,0.0,0.0,0.0,0.0,0.0,0.0,0.0,0.0,0.0,0.0,0.0,0.884,0.921,1.0484,1.1151,1.1107,0.9603,0.8033,0.0,0.0,0.0,0.0,0.0,0.0,0.0,0.0,0.0,0.0,0.0,0.0,0.0,0.0,0.0,0.0,0.0,0.0,0.0,0.0,0.0,0.0,0.0,0.0,0.0,0.0,0.0,0.0,0.0,0.0,0.0,0.0,0.0,0.0,0.0,0.0,0.0,0.0,0.0,0.0,0.0,0.0,0.0,0.0,0.0,0.0,0.0,0.0,0.0,0.0,0.0,0.0,0.0,0.0,0.0,0.0,0.0,0.0,0.0,0.0,0.0,0.0,0.0,0.0,0.0,0.0,0.0,0.0,0.0,0.0,0.0,0.0,0.0,0.0,0.0,0.0,0.0,0.0,0.0,0.0,0.0,0.0,0.0,0.0,0.0,0.0,0.0,0.0,0.0,0.0,0.0,0.0,0.0,0.0,0.0,0.0,0.0,0.0,0.0,0.0,0.0,0.0,0.0,0.0,0.0,0.0,0.0,0.0,0.8799,0.9224,1.0696,1.1489,1.1481,0.9933,0.8576,0.0,0.0,0.0,0.0,0.0,0.0,0.0,0.0,0.0,0.0,0.0,0.0,0.0,0.0,0.0,0.0,0.0,0.0,0.0,0.0,0.0,0.0,0.0,0.0,0.0,0.0,0.0,0.0,0.0,0.0,0.0,0.0,0.0,0.0,0.0,0.0,0.0,0.0,0.0,0.0,0.0,0.0,0.0,0.0,0.0,0.0,0.0,0.0,0.0539,0.0,0.0,0.0,0.0,0.0,0.0,0.0,0.0,0.0,0.0,0.0,0.0,0.0,0.0,0.0,0.0,0.0,0.0,0.0,0.0,0.0,0.0,0.0,0.0,0.0,0.0,0.0,0.0,0.0,0.0,0.0,0.0,0.0,0.0,0.0,0.0,0.0,0.0,0.0,0.0,0.0,0.0,0.0,0.0,0.0,0.0,0.0,0.0,0.0,0.0,0.0,0.0,0.0,0.0,0.0,0.0,0.0,0.0,0.0,0.8746,0.8944,1.0023,1.0629,1.0564,0.9329,0.8407,0.0,0.0,0.0,0.0,0.0,0.0,0.0,0.0,0.0,0.0,0.0,0.0,0.0,0.0,0.0,0.0,0.0,0.0,0.0,0.0,0.0,0.0,0.0,0.0,0.0,0.0,0.0,0.0,0.0,0.0,0.0,0.0,0.0,0.0,0.0,0.0,0.0,0.0,0.0,0.0,0.0,0.0,0.0,0.0,0.0,0.0,0.0,0.0,0.0,0.0,0.0,0.0,0.0,0.0,0.0,0.0,0.0,0.0,0.0,0.0,0.0,0.0,0.0,0.0,0.0,0.0,0.0,0.0,0.0,0.0,0.0,0.0,0.0,0.0,0.0,0.0,0.0,0.0,0.0,0.0,0.0,0.0,0.0,0.0,0.0,0.0,0.0,0.0,0.0,0.0,0.0,0.0,0.0,0.0,0.0,0.0,0.0,0.0,0.0,0.0,0.0,0.0,0.0,0.0,0.0,0.0,0.0,0.803,0.8606,0.8816,0.9264,0.9486,0.9474,0.8534,0.8006,0.7964,0.0,0.0,0.0,0.0,0.0,0.0,0.0,0.0,0.0,0.0,0.0,0.0,0.0,0.0,0.0,0.0,0.0,0.0,0.0,0.0,0.0,0.0,0.0,0.0,0.0,0.0,0.0,0.0,0.0,0.0,0.0,0.0,0.0,0.0,0.0,0.0,0.0,0.0,0.3219,0.2388,0.0,0.0,0.0,0.0,0.0,0.0,0.0,0.0,-0.0853,0.0,0.0,0.0,0.0,0.0,0.0,0.0,0.0,0.0,0.0,0.0,0.0,0.0,0.0,0.0,0.0,0.0,0.0,0.0,0.0,0.0,0.0,0.0,0.0,0.0,0.0,0.0,0.0,0.0,0.0,0.0,0.0,0.0,0.0,0.0,0.0,0.0,0.0,0.0,0.0,0.0,0.0,0.0,0.0,0.0,0.0,0.0,0.0,0.0,0.0,0.0,0.0,0.0,0.0,0.0,0.0,0.876,0.7921,0.8239,0.982,0.9612,0.9486,0.9462,0.8645,0.7816,0.7015,0.0,0.0,0.0,0.0,0.0,0.0,0.0,0.0,0.0,0.0,0.0,0.0,0.0,0.0,0.0,0.0,0.0,0.0,0.0,0.0,0.0,0.0,0.0,0.0,0.0,0.0,0.0,0.0,0.0,0.0,0.0,0.0,0.0,0.0,0.0,0.0,0.0,0.0,0.0,0.1557,0.117,0.0,0.0,0.0,0.0,0.0,0.0,0.0,0.0,-0.1584,0.0,0.0,0.0,0.0,0.0,0.0,0.0,0.0,0.0,0.0,0.0,0.0,0.0,0.0,0.0,0.0,0.0,0.0,0.0,0.0,0.0,0.0,0.0,0.0,0.0,0.0,0.0,0.0,0.0,0.0,0.0,0.0,0.0,0.0,0.0,0.0,0.0,0.0,0.0,0.0,0.0,0.0,0.0,0.0,0.0,0.0,0.0,0.0,0.0,0.0,0.0,0.0,0.0,0.0,0.0,0.7511,0.7261,0.7588,0.8563,0.8308,0.8204,0.8275,0.726,0.6436,0.0,0.0,0.0,0.0,0.0,0.0,0.0,0.0,0.0,0.0,0.0,0.0,0.0,0.0,0.0,0.0,0.0,0.0,0.0,0.0,0.0,0.0,0.0,0.0,0.0,0.0,0.0,0.0,0.0,0.0,0.0,0.0,0.0,0.0,0.0,0.0,0.0,0.0,0.0,0.0,0.1283,0.0694,-0.0695,0.0,0.0,0.0,0.0,0.0,0.0,-0.2131,-0.2196,0.0,0.0,0.0,0.0,0.0,0.0,0.0,0.0,0.0,0.0,0.0,0.0,0.0,0.0,0.0,0.0,0.0,0.0,0.0,0.0,0.0,0.0,0.0,0.0,0.0,0.0,0.0,0.0,0.0,0.0,0.0,0.0,0.0,0.0,0.0,0.0,0.0,0.0,0.0,0.0,0.0,0.0,0.0,0.0,0.0,0.0,0.0,0.0,0.0,0.0,0.0,0.0,0.0,0.0,0.0,0.6101,0.6242,0.6547,0.6991,0.6572,0.6441,0.6687,0.56,0.4927,0.0,0.0,0.0,0.0,0.0,0.0,0.0,0.0,0.0,0.0,0.0,0.0,0.0,0.0,0.0,0.0,0.0,0.0,0.0,0.0,0.0,0.0,0.0,0.0,0.0,0.0,0.0,0.0,0.0,0.0,0.0,0.0,0.0,0.0,0.0,0.0,0.0,0.0,0.0,0.0,0.0,-0.0019,-0.1853,-0.1982,0.0,0.0,0.0,0.0,-0.2534,-0.3117,0.0,0.0,0.0,0.0,0.0,0.0,0.0,0.0,0.0,0.0,0.0,0.0,0.0,0.0,0.0,0.0,0.0,0.0,0.0,0.0,0.0,0.0,0.0,0.0,0.0,0.0,0.0,0.0,0.0,0.0,0.0,0.0,0.0,0.0,0.0,0.0,0.0,0.0,0.0,0.0,0.0,0.0,0.0,0.0,0.0,0.0,0.0,0.0,0.0,0.0,0.0,0.0,0.0,0.0,0.0,0.0,0.5985,0.4661,0.4741,0.6331,0.5061,0.4571,0.5038,0.436,0.3894,0.0,0.0,0.0,0.0,0.0,0.0,0.0,0.0,0.0,0.0,0.0,0.0,0.0,0.0,0.0,0.0,0.0,0.0,0.0,0.0,0.0,0.0,0.0,0.0,0.0,0.0,0.0,0.0,0.0,0.0,0.0,0.0,0.0,0.0,0.0,0.0,0.0,0.0,0.0,0.0,0.0,-0.1261,-0.2444,-0.3147,-0.3704,0.0,0.0,-0.5413,-0.5418,-0.5932,0.0,0.0,0.0,0.0,0.0,0.0,0.0,0.0,0.0,0.0,0.0,0.0,0.0,0.0,0.0,0.0,0.0,0.0,0.0,0.0,0.0,0.0,0.0,0.0,0.0,0.0,0.0,0.0,0.0,0.0,0.0,0.0,0.0,0.0,0.0,0.0,0.0,0.0,0.0,0.0,0.0,0.0,0.0,0.0,0.0,0.0,0.0,0.0,0.0,0.0,0.0,0.0,0.0,0.0,0.0,0.4049,0.4353,0.3507,0.3313,0.3793,0.3053,0.2825,0.3154,0.2404,0.224,0.0,0.0,0.0,0.0,0.0,0.0,0.0,0.0,0.0,0.0,0.0,0.0,0.0,0.0,0.0,0.0,0.0,0.0,0.0,0.0,0.0,0.0,0.0,0.0,0.0,0.0,0.0,0.0,0.0,0.0,0.0,0.0,0.0,0.0,0.0,0.0,0.0,0.0,0.0,0.0,0.0,0.0,-0.4143,-0.4447,0.0,0.0,0.0,-0.5984,-0.6073,0.0,0.0,0.0,0.0,0.0,0.0,0.0,0.0,0.0,0.0,0.0,0.0,0.0,0.0,0.0,0.0,0.0,0.0,0.0,0.0,0.0,0.0,0.0,0.0,0.0,0.0,0.0,0.0,0.0,0.0,0.0,0.0,0.0,0.0,0.0,0.0,0.0,0.0,0.0,0.0,0.0,0.0,0.0,0.0,0.0,0.0,0.0,0.0,0.0,0.0,0.0,0.0,0.0,0.0,0.0,0.0,0.0,0.2227,0.1653,0.1188,0.0824,0.0496,0.0529,0.0982,0.0539,0.0,0.0,0.0,0.0,0.0,0.0,0.0,0.0,0.0,0.0,0.0,0.0,0.0,0.0,0.0,0.0,0.0,0.0,0.0,0.0,0.0,0.0,0.0,0.0,0.0,0.0,0.0,0.2567,0.0,0.0,0.0,0.0,0.0,0.0,0.0,0.0,0.0,0.0,0.0,0.0,0.0,0.0,-0.3711,-0.6057,-0.6316,-0.6831,0.0,0.0,-0.7357,-0.7474,-0.8236,-0.8082,0.0,0.0,0.0,0.0,0.0,0.0,0.0,0.0,0.0,0.0,0.0,0.0,0.0,0.0,0.0,0.0,0.0,0.0,0.0,0.0,0.0,0.0,0.0,0.0,0.0,0.0,0.0,0.0,0.0,0.0,0.0,0.0,0.0,0.0,0.0,0.0,0.0,0.0,0.0,0.0,0.0,0.0,0.0,0.0,0.0,0.0,0.0,0.0,0.0,0.0,0.0,0.0,0.0,0.0,0.0,-0.0154,-0.1593,-0.225,-0.2141,-0.2783,-0.2592,-0.141,-0.0873,-0.0423,0.0,0.0,0.0,0.0,0.0,0.0,0.0,0.0,0.0,0.0,0.0,0.0,0.0,0.0,0.0,0.0,0.0,0.0,0.0,0.0,0.0,0.0,0.0,0.0,0.0,0.0,0.0,0.0,0.0,0.0,0.0,0.0,0.0,0.0,0.0,0.0,0.0,0.0,0.0,0.0,0.0,-0.5758,-0.7932,-0.9099,-1.0246,0.0,0.0,-1.0754,-1.1007,-1.1772,-1.1346,-0.836,0.0,0.0,0.0,0.0,0.0,0.0,0.0,0.0,0.0,0.0,0.0,0.0,0.0,0.0,0.0,0.0,0.0,0.0,0.0,0.0,0.0,0.0,0.0,0.0,0.0,0.0,0.0,0.0,0.0,0.0,0.0,0.0,0.0,0.0,0.0,0.0,0.0,0.0,0.0,0.0,0.0,0.0,0.0,0.0,0.0,0.0,0.0,0.0,0.0,0.0,0.0,0.0,0.0,-0.0744,-0.1824,-0.3301,-0.4314,-0.4849,-0.5232,-0.5176,-0.4699,-0.436,-0.3631,0.0,0.0,0.0,0.0,0.0,0.0,0.0,0.0,0.0,0.0,0.0,0.0,0.0,0.0,0.0,0.0,0.0,0.0,0.0,0.0,0.0,0.0,0.0,0.0,0.0,0.0,0.0,0.0,0.2426,0.2505,0.2398,0.0,0.0,0.0,0.0,0.0,0.0,0.0,0.0,0.0,0.0,-0.8515,-1.0149,-1.0928,0.0,0.0,-1.2453,-1.1946,-1.2707,-1.2497,-1.1602,-0.9659,-0.8953,0.0,0.0,0.0,0.0,0.0,0.0,0.0,0.0,0.0,0.0,0.0,0.0,0.0,0.0,0.0,0.0,0.0,0.0,0.0,0.0,0.0,0.0,0.0,0.0,0.0,0.0,0.0,0.0,0.0,0.0,0.0,0.0,0.0,0.0,0.0,0.0,0.0,0.0,0.0,0.0,0.0,0.0,0.0,0.0,0.0,0.0,0.0,0.0,0.0,0.0,0.0,0.0,-0.2722,-0.4083,-0.5752,-0.7037,-0.7955,-0.8116,-0.7989,-0.7631,-0.7166,-0.6264,0.0,0.0,0.0,0.0,0.0,0.0,0.0,0.0,0.0,0.0,0.0,0.0,0.0,0.0,0.0,0.0,0.0,0.0,0.0,0.0,0.0,0.0,0.0,0.0,0.0,0.0,0.0,0.0,0.1684,0.1585,0.1223,0.0,0.0,0.0,0.0,0.0,0.0,0.0,0.0,0.0,0.0,-1.1442,-1.2519,-1.3066,-1.3719,-1.4678,-1.371,-1.3163,-1.405,-1.3521,-1.2653,-1.1477,0.0,0.0,0.0,0.0,0.0,0.0,0.0,0.0,0.0,0.0,0.0,0.0,0.0,0.0,0.0,0.0,0.0,0.0,0.0,0.0,0.0,0.0,0.0,0.0,0.0,0.0,0.0,0.0,0.0,0.0,0.8087,0.0,0.0,0.0,0.0,0.0,0.0,0.0,0.0,0.0,0.0,0.0,0.0,0.0,0.0,0.0,0.0,0.0,0.0,0.0,0.0,0.0,0.0,-0.4888,-0.719,-0.9274,-1.0799,-1.153,-1.1721,-1.1169,-0.9973,-0.8821,-0.7788,-0.6931,0.0,0.0,0.0,0.0,0.0,0.0,0.0,0.0,0.0,0.0,0.0,0.0,0.0,0.0,0.0,0.0,0.0,0.0,0.0,0.0,0.0,0.0,0.0,0.0,0.0,0.0,0.0605,0.0738,0.0545,0.0,0.0,0.0,0.0,0.0,0.0,0.0,0.0,0.0,0.0,-1.2421,-1.4473,-1.5031,-1.5789,-1.6137,-1.6008,-1.5164,-1.4704,-1.5209,-1.5266,-1.5035,0.0,0.0,0.0,0.0,0.0,0.0,0.0,0.0,0.0,0.0,0.0,0.0,0.0,0.0,0.0,0.0,0.0,0.0,0.0,0.0,0.0,0.0,0.0,0.0,0.0,0.0,0.0,1.0759,0.9995,0.0,0.0,0.0,0.0,0.0,0.0,0.0,0.0,0.0,0.0,0.0,0.8582,0.7781,0.0,0.0,0.0,0.0,0.0,0.0,0.0,0.0,0.0,0.0,0.0,0.0,-0.6736,-0.8381,-1.0762,-1.2369,-1.307,-1.3275,-1.3156,-1.2733,-1.1943,-1.048,-0.8268,0.0,0.0,0.0,0.0,0.0,0.0,0.0,0.0,0.0,0.0,0.0,0.0,0.0,0.0,0.0,0.0,0.0,0.0,0.0,0.0,0.0,0.0,0.0,0.0,0.0,-0.0465,0.0,0.0,0.0,0.0,0.0,0.0,0.0,0.0,0.0,0.0,0.0,-1.0411,-1.2244,-1.3937,-1.5288,-1.6039,-1.6426,-1.6855,0.0,0.0,0.0,0.0,0.0,0.0,0.0,0.0,0.0,0.0,0.0,0.0,0.0,0.0,-1.4244,-1.1314,-1.0743,-1.0926,-1.1554,0.0,0.0,0.0,0.0,0.0,0.0,0.0,0.0,0.0,0.0,0.0,0.0,0.0,0.0,1.2196,0.0,1.1052,0.0,0.0,0.0,0.0,0.0,0.0,0.0,0.0,0.8364,0.8039,0.7387,0.5847,0.4477,0.0,0.1782,0.0856,0.0,0.0,0.0,0.0,0.0,0.0,0.0,0.0,-0.8833,-1.0188,-1.2851,-1.445,-1.4897,-1.511,-1.5177,-1.5013,-1.4124,-1.2553,-1.0236,-0.8837,-0.738,0.0,0.0,0.0,0.0,0.0,0.0,0.0,0.0,0.0,0.0,0.0,0.0,0.0,0.0,0.0,0.0,0.0,0.0,0.0,0.0,0.0,0.0,0.0,-0.209,0.0,0.0,0.0,0.0,0.0,0.0,0.0,0.0,0.0,-0.8813,-1.1054,-1.3338,-1.4913,-1.6042,-1.6889,-1.7333,0.0,0.0,0.0,0.0,0.0,0.0,0.0,-1.6408,-1.6333,-1.6427,-1.6481,-1.6476,-1.7304,-1.7769,-1.714,0.0,0.0,-1.466,-1.4019,-1.4156,-1.4837,-1.4961,-1.5005,-1.5181,-1.5504,-1.5763,0.0,0.0,0.0,0.0,0.0,0.0,0.0,0.0,1.3106,1.2492,0.0,1.1557,0.0,0.0,0.0,0.0,0.0,0.8296,0.0,0.0,0.6948,0.6131,0.4717,0.1992,0.0624,0.0416,-0.2369,-0.4224,-0.5026,-0.3328,0.0,0.0,0.0,0.0,0.0,0.0,-1.1222,-1.2669,-1.5564,-1.7113,-1.709,-1.7324,-1.7235,-1.6731,-1.5355,-1.4026,-1.2798,-1.1452,-1.039,-0.9541,-0.7238,0.0,0.0,0.0,0.0,0.0,0.0,0.0,0.0,0.0,0.0,0.0,0.0,0.0,0.0,0.0,0.0,0.0,0.0,0.0,0.0,-0.4121,0.0,0.0,0.0,0.0,0.0,0.0,0.0,0.0,0.0,0.0,-1.1697,-1.3819,-1.6083,-1.7419,0.0,0.0,0.0,0.0,-1.8953,-1.8315,-1.7801,-1.7537,-1.7625,-1.8157,-1.8781,-1.9327,0.0,0.0,-1.9673,-1.9905,-1.9732,-1.8113,-1.9084,-1.974,-1.8973,-1.7891,-1.7395,-1.7913,-1.7509,-1.7135,-1.7558,-1.7957,-1.8098,1.5564,0.0,0.0,0.0,0.0,1.4287,1.476,1.5506,1.4857,1.3814,1.2452,1.1801,0.0,0.0,0.0,0.0,0.0,0.0,0.4899,0.3818,0.3418,0.2268,0.0476,-0.1574,-0.2984,-0.3869,-0.5346,-0.7141,-0.9083,-0.9117,-0.8175,-0.6361,0.0,0.0,0.0,0.0,-1.4148,-1.5512,-1.7266,-1.8526,-1.927,-1.898,-1.858,-1.8081,-1.7094,-1.5904,-1.4452,-1.3291,-1.214,-1.0893,-0.9694,0.0,0.0,0.0,0.0,0.0,0.0,0.0,0.0,0.0,0.0,0.0,0.0,0.0,0.0,0.0,0.0,0.0,0.0,0.0,-0.4906,-0.6013,-0.6693,0.0,0.0,0.0,0.0,0.0,0.0,0.0,0.0,0.0,-1.7028,-1.7176,-1.7518,0.0,0.0,-1.8465,-1.8092,-1.8796,-1.9426,-1.9663,-1.9698,0.0,0.0,-2.0843,-2.0774,-2.0936,-2.1295,-2.1382,-2.1022,-2.1441,-2.1755,-2.1395,-2.1744,-2.205,-2.2125,-2.1005,-2.0359,-2.0909,-2.1129,-2.1155,-2.1157,-2.1405,-2.1643,1.6423,1.523,1.4897,1.4926,1.5188,1.4857,1.5103,1.5669,1.4737,1.3559,1.2261,1.099,0.9231,0.7109,0.5555,0.0,0.0,0.0,0.1456,0.0809,-0.0724,-0.2079,-0.3365,-0.578,-0.737,-0.8158,-0.9555,-1.1234,-1.3166,-1.3864,-1.3282,-1.1505,0.0,0.0,-1.2151,-1.4729,-1.6549,-1.7505,-1.8947,-1.997,-2.0568,-2.0394,-1.9928,-1.9235,-1.8495,-1.7566,-1.6443,-1.5557,-1.4559,-1.3471,-1.2206,-1.0619,0.0,0.0,0.0,0.0,0.0,0.0,0.0,0.0,0.0,0.0,0.0,-0.4078,-0.3207,0.0,0.0,0.0,-0.6457,-0.7257,-0.7877,-0.8981,0.0,0.0,0.0,0.0,0.0,0.0,0.0,-1.6008,-1.7973,-1.9548,-2.0406,-2.0006,-1.9738,-1.9964,-1.9691,-1.9605,-1.9921,0.0,-2.1339,-2.1907,-2.2111,-2.2408,-2.2959,-2.2973,-2.304,-2.3304,-2.3143,-2.2959,-2.2812,-2.2936,-2.3054,-2.3172,-2.3407,-2.3703,-2.4093,-2.3535,-2.2998,-2.2999,-2.3231,-2.3363,-2.3201,-2.3421,-2.3644,1.598,1.5572,1.4484,1.4547,1.5342,1.451,1.4135,1.4016,1.289,1.1774,1.0647,0.898,0.7484,0.6007,0.2475,0.0,0.09,-0.1226,-0.2058,-0.1902,-0.497,-0.644,-0.6667,-1.0133,-1.192,-1.2153,-1.4312,-1.597,-1.7073,-1.7682,-1.8056,-1.8123,-1.6769,-1.6009,-1.5946,-1.7602,-1.8724,-1.9127,-2.0654,-2.1418,-2.1363,-2.1633,-2.1337,-2.0359,-1.9728,-1.9078,-1.8459,-1.7859,-1.7223,-1.6505,-1.466,-1.2945,-1.145,0.0,0.0,0.0,0.0,0.0,0.0,0.0,0.0,0.0,0.0,0.0,0.0,0.0,0.0,0.0,-0.9914,0.0,-1.2049,-1.2621,0.0,0.0,0.0,-1.4442,-1.629,-1.7454,-1.8579,-1.9703,0.0,0.0,-2.2276,-2.2374,-2.2485,-2.266,-2.1974,-2.196,-2.3317,-2.3713,-2.4173,-2.4589,-2.4849,-2.478,-2.4618,-2.4961,-2.5487,-2.5992,-2.5768,-2.5286,-2.503,-2.4615,-2.4191,-2.4221,-2.4512,-2.4978,-2.5168,-2.5686,-2.5763,-2.4512,-2.4258,-2.4233,-2.4206,-2.4265,-2.4369,1.3939,1.2599,1.0242,1.0816,1.3179,1.2379,1.1175,0.9763,0.9181,0.725,0.4436,0.3718,0.223,0.0164,-0.1948,-0.2975,-0.323,-0.4408,-0.532,-0.602,-0.7425,-0.8451,-0.9231,-1.2209,-1.3985,-1.4725,-1.6732,-1.8365,-1.9598,-2.0154,-2.0475,-2.0575,-2.0796,-2.0165,-1.8812,-2.0412,-2.1664,-2.2483,-2.2621,-2.2693,-2.2724,-2.3286,-2.2894,-2.1445,-2.1117,-2.0258,-1.8773,-1.8208,-1.7595,-1.6752,-1.5818,-1.4498,-1.2753,-1.069,0.0,0.0,0.0,0.0,0.0,0.0,0.0,0.0,0.0,-0.7817,-0.6136,0.0,-0.9832,0.0,-1.2317,-1.4102,-1.492,-1.5527,0.0,0.0,-1.7533,-1.83,-2.0334,-2.0871,-2.1277,-2.1823,-2.2711,-2.345,-2.3877,-2.4163,-2.4705,-2.5605,-2.4106,-2.3269,-2.4248,-2.5174,-2.5798,-2.6118,-2.6615,-2.7052,-2.7402,-2.762,-2.7806,-2.7949,-2.7545,-2.7345,-2.7858,-2.7657,-2.7391,-2.746,-2.7393,-2.7221,-2.692,-2.7401,-2.7646,-2.6935,-2.6067,-2.5321,-2.5053,-2.4968,-2.493,0.8513,0.7367,0.4662,0.45,0.6144,0.7572,0.7125,0.5383,0.4801,0.3043,0.0486,-0.07,-0.2182,-0.3921,-0.5709,-0.6588,-0.68,-0.7976,-0.8991,-0.9888,-1.0809,-1.1568,-1.2273,-1.4655,-1.6153,-1.689,-1.899,-2.0727,-2.205,-2.276,-2.3298,-2.3579,-2.392,-2.3604,-2.2702,-2.2341,-2.238,-2.2802,-2.3346,-2.3728,-2.4004,-2.4485,-2.3857,-2.2079,-2.1679,-2.0628,-1.8826,-1.8296,-1.7616,-1.6684,-1.6067,-1.492,-1.3186,-1.1635,-1.0303,0.0,0.0,0.0,0.0,0.0,0.0,0.0,0.0,0.0,0.0,0.0,-1.2318,-1.3164,-1.556,-1.7267,-1.7684,-1.8592,-1.9591,-2.0587,-2.0924,-2.1724,-2.3384,-2.3579,-2.3782,-2.4197,-2.4897,-2.5482,-2.5827,-2.6154,-2.6792,-2.8015,-2.6889,-2.6122,-2.6579,-2.7264,-2.7761,-2.8188,-2.8604,-2.9049,-2.9534,-2.9626,-2.9761,-3.007,-2.9702,-2.9482,-2.992,-2.9629,-2.9365,-2.9534,-2.9721,-2.9835,-2.9646,-3.027,-3.0705,-3.0327,-2.9395,-2.8121,-2.6761,-2.6426,-2.6376,0.1941,0.1406,-0.1096,-0.2348,-0.2367,0.1168,0.1985,0.0845,0.0214,-0.1067,-0.2791,-0.4838,-0.6278,-0.7256,-0.896,-0.9788,-0.9996,-1.1347,-1.2576,-1.3686,-1.4308,-1.5083,-1.605,-1.7513,-1.8701,-1.9635,-2.1676,-2.3311,-2.4583,-2.5371,-2.5927,-2.632,-2.6168,-2.6117,-2.6135,-2.38,-2.2462,-2.2294,-2.3621,-2.4544,-2.5019,-2.5161,-2.4303,-2.2446,-2.1804,-2.0679,-1.8956,-1.8387,-1.7668,-1.671,-1.6114,-1.5152,-1.3746,-1.2519,-1.1568,0.0,-1.0579,0.0,0.0,0.0,0.0,0.0,0.0,0.0,0.0,-1.4622,-1.5273,-1.6979,-1.9042,-2.0365,-2.0558,-2.168,-2.2657,-2.3261,-2.3848,-2.4617,-2.5496,-2.5633,-2.5846,-2.6394,-2.7029,-2.7501,-2.7674,-2.8011,-2.8665,-2.9507,-2.941,-2.9144,-2.9332,-2.9389,-2.9658,-3.0348,-3.0539,-3.0531,-3.0816,-3.1019,-3.1341,-3.1972,-3.1797,-3.1605,-3.1828,-3.1343,-3.0937,-3.1215,-3.1825,-3.2272,-3.2496,-3.3168,-3.3716,-3.3436,-3.2727,-3.1424,-2.9169,-2.8249,-2.8053,-0.1862,-0.2711,-0.4508,-0.5496,-0.5906,-0.6078,-0.5287,-0.3865,-0.3874,-0.5489,-0.8323,-1.0109,-1.101,-1.1217,-1.1412,-1.1935,-1.2716,-1.287,-1.4682,-1.7712,-1.6216,-1.7775,-2.1652,-2.1646,-2.2864,-2.5194,-2.6231,-2.703,-2.7735,-2.7519,-2.7124,-2.656,-2.6748,-2.6419,-2.5557,0.0,0.0,0.0,-2.5016,-2.4938,-2.5139,-2.4612,-2.3786,-2.2655,-2.1938,0.0,-1.9813,-1.91,-1.8345,-1.7526,-1.7338,0.0,0.0,0.0,0.0,0.0,0.0,0.0,0.0,0.0,0.0,0.0,-1.6338,-1.5887,-1.6349,-1.8049,-1.9515,-2.0417,-2.1623,-2.2815,-2.4,-2.4397,-2.4894,-2.5571,-2.5855,-2.6092,-2.6294,-2.6294,-2.6581,-2.7271,-2.7473,-2.7844,-2.8505,-2.9078,-2.9596,-3.0008,-3.0367,-3.0687,-3.0808,-3.069,-3.0767,-3.0982,-3.1078,-3.121,-3.1379,-3.1894,-3.233,-3.2534,-3.3049,-3.3532,-3.4125,-3.3935,-3.3778,-3.4004,-3.4083,-3.3854,-3.3536,-3.4055,-3.448,-3.3842,-3.4096,-3.3775,-3.167,-3.007,-2.9041,-0.8968,0.0,-1.1419,-1.187,0.0,-1.1601,-1.0949,-0.988,-0.8403,-0.9155,-1.1603,-1.4418,-1.4924,-1.3699,-1.5487,-1.5841,-1.5135,-1.5377,-1.7325,-2.0524,-1.9564,-2.1094,-2.4785,-2.4782,-2.5642,-2.7317,-2.8255,-2.8814,-2.9085,-2.9059,-2.8642,-2.7866,-2.7934,-2.7628,-2.7049,-2.6979,-2.6753,-2.6344,-2.6001,-2.5935,-2.6213,-2.5856,-2.5048,-2.375,0.0,0.0,0.0,0.0,0.0,0.0,0.0,0.0,0.0,0.0,0.0,-1.7509,-1.7245,-1.7319,-1.7891,-1.8509,-1.9402,-2.0527,-2.1114,-2.0791,-1.9388,-2.139,-2.2865,-2.321,-2.4197,-2.5128,-2.5849,-2.6132,-2.6366,-2.6573,-2.6808,-2.6891,-2.6792,-2.7198,-2.7689,-2.81,-2.868,-2.9221,-2.9651,-3.0142,-3.0518,-3.063,-3.092,-3.1196,-3.1257,-3.1193,-3.1134,-3.1232,-3.1329,-3.1698,-3.2437,-3.2866,-3.3502,-3.4158,-3.473,-3.5191,-3.5776,-3.5394,-3.5077,-3.531,-3.5015,-3.4708,-3.4929,-3.5287,-3.5589,-3.5626,-3.5806,-3.5697,-3.4516,-3.2963,-3.1549,-1.6254,-1.7496,-1.7959,-1.7839,-1.7276,-1.571,-1.5434,-1.5835,0.0,0.0,0.0,-1.7813,-1.8254,-1.6811,-1.9936,-2.0248,-1.843,-1.8969,-2.0907,-2.3867,-2.3555,-2.4958,-2.7803,-2.7961,-2.845,-2.9227,-3.0039,-3.0439,-3.0403,-3.0463,-3.0177,-2.9605,-2.9248,-2.9029,-2.8931,-2.8561,-2.79,-2.6977,-2.6753,-2.6838,-2.721,-2.7078,-2.6296,-2.4878,-2.4624,-2.3769,-2.2201,-2.1491,-2.0725,-1.9778,-1.9146,-1.8608,-1.8175,-1.8142,-1.8693,-1.9868,-2.0259,-2.0931,-2.2032,-2.2895,-2.3437,-2.3488,-2.5061,-2.5009,-2.269,-2.4344,-2.5497,-2.5514,-2.6369,-2.6889,-2.6906,-2.7225,-2.7299,-2.7033,-2.727,-2.7384,-2.732,-2.8045,-2.8738,-2.9154,-2.9987,-3.0662,-3.0747,-3.1057,-3.1269,-3.1232,-3.122,-3.1353,-3.1391,-3.1349,-3.1329,-3.1487,-3.1694,-3.2203,-3.3197,-3.3833,-3.4507,-3.5555,-3.6027,-3.6395,-3.6516,-3.6058,-3.5686,-3.5773,-3.5311,-3.5207,-3.5757,-3.6096,-3.6613,-3.7274,-3.7229,-3.7017,-3.6892,-3.5801,-3.4436,-2.031,-2.0313,-1.9402,-1.9145,-1.9186,-1.778,-1.8426,-2.0143,-1.6506,-1.6461,-1.9233,-1.9608,-2.0991,-2.3021,-2.3619,-2.4014,-2.4298,-2.4544,-2.6541,-2.972,-2.8039,-2.9739,-3.4064,-3.248,-3.2694,-3.444,-3.3993,-3.3654,-3.3402,-3.2141,-3.1384,-3.1099,-3.0395,-2.9842,-2.956,-2.9227,-2.8931,-2.8631,-2.7468,-2.6894,-2.6925,-2.6167,-2.5681,-2.5451,-2.4646,-2.4102,-2.3859,-2.3006,-2.2461,-2.2288,-2.2023,-2.2085,-2.2556,-2.2508,-2.2803,-2.3268,-2.3573,-2.372,-2.3666,-2.396,-2.4516,-2.5357,-2.6507,-2.6605,-2.542,-2.636,-2.7084,-2.7085,-2.7218,-2.7301,-2.7334,-2.7437,-2.7512,-2.7452,-2.7577,-2.7902,-2.8485,-2.8825,-2.9451,-3.0643,-3.0967,-3.1254,-3.153,-3.1591,-3.1526,-3.1353,-3.1355,-3.1487,-3.1805,-3.1654,-3.1653,-3.2016,-3.2389,-3.2702,-3.3139,-3.4174,-3.4863,-3.5263,-3.6046,-3.6533,-3.6684,-3.6147,-3.5794,-3.6036,-3.5402,-3.5084,-3.5385,-3.5936,-3.6417,-3.6738,-3.7093,-3.7431,-3.7466,-3.7091,-3.6496,-2.242,-2.3056,-2.2382,-2.1758,-2.135,-2.1612,-2.2951,-2.4812,-2.3523,-2.2835,-2.3124,-2.5316,-2.6054,-2.5782,-2.809,-2.832,-2.688,-2.732,-2.9092,-3.1674,-3.0866,-3.2325,-3.5426,-3.4745,-3.4778,-3.5638,-3.5311,-3.4811,-3.4222,-3.3477,-3.2589,-3.1578,-3.0649,-3.0111,-2.9921,-2.9725,-2.9589,-2.9465,-2.8563,-2.8034,-2.7918,-2.7469,-2.72,-2.7067,-2.6512,-2.6159,-2.6037,-2.5251,-2.4795,-2.4757,-2.4237,-2.4071,-2.427,-2.4322,-2.453,-2.4984,-2.5131,-2.5334,-2.5627,-2.5819,-2.6127,-2.6657,-2.7391,-2.7649,-2.7204,-2.7285,-2.7411,-2.7411,-2.7589,-2.7722,-2.7722,-2.7936,-2.802,-2.7848,-2.8425,-2.8909,-2.9204,-3.0165,-3.1034,-3.1703,-3.203,-3.2245,-3.2432,-3.2092,-3.1804,-3.1694,-3.1714,-3.2021,-3.2584,-3.2418,-3.2249,-3.2421,-3.2369,-3.2549,-3.3079,-3.3536,-3.4251,-3.5028,-3.5674,-3.6237,-3.6601,-3.6094,-3.5701,-3.6024,-3.5314,-3.4976,-3.5561,-3.6114,-3.6524,-3.7041,-3.7291,-3.7595,-3.7595,-3.7613,-3.7269,-2.4347,-2.5683,-2.5156,-2.4488,-2.3989,-2.5687,-2.7557,-2.9425,-2.9998,-2.9424,-2.8594,-3.1075,-3.0965,-2.942,-3.2539,-3.2449,-3.0037,-3.0293,-3.1555,-3.3177,-3.3279,-3.4229,-3.579,-3.5906,-3.5838,-3.5761,-3.5724,-3.535,-3.4665,-3.4442,-3.3431,-3.1731,-3.0708,-3.0194,-3.0147,-3.0068,-2.9972,-2.9893,-2.9485,-2.9191,-2.9012,-2.8883,-2.8694,-2.8456,-2.8255,-2.8055,-2.7742,-2.7229,-2.6869,-2.6723,-2.6131,-2.5711,-2.5617,-2.5588,-2.5777,-2.6207,-2.6215,-2.6455,-2.705,-2.7365,-2.7542,-2.7631,-2.8061,-2.836,-2.8368,-2.7988,-2.7707,-2.7736,-2.801,-2.8174,-2.8224,-2.8652,-2.8797,-2.8627,-2.9488,-3.0075,-3.0178,-3.1405,-3.2443,-3.2565,-3.2936,-3.3111,-3.3003,-3.2569,-3.2231,-3.2196,-3.2317,-3.27,-3.3139,-3.3078,-3.2954,-3.288,-3.2527,-3.2682,-3.3475,-3.3518,-3.404,-3.5322,-3.5643,-3.6153,-3.6608,-3.6037,-3.5599,-3.6096,-3.5311,-3.4955,-3.5846,-3.6292,-3.6595,-3.7077,-3.7399,-3.7631,-3.7685,-3.7703,-3.7631,-2.7001,-2.7662,-2.6913,-2.6662,-2.7513,-2.9381,-3.1531,-3.3589,-3.3807,-3.4965,-3.6109,-3.4484,-3.4474,-3.5791,-3.6281,-3.5804,-3.4748,-3.5131,-3.5312,-3.5547,-3.5683,-3.5799,-3.5973,-3.5926,-3.589,-3.5867,-3.5799,-3.5691,-3.5476,-3.4798,-3.3577,-3.1843,-3.0788,-3.0292,-3.026,-3.0164,-3.0076,-2.9999,-2.9885,-2.9763,-2.9608,-2.9306,-2.9071,-2.8948,-2.8791,-2.8545,-2.8214,-2.8156,-2.8025,-2.7862,-2.7563,-2.7441,-2.7411,-2.7328,-2.7272,-2.7311,-2.7109,-2.7126,-2.7452,-2.7946,-2.8232,-2.8311,-2.8545,-2.8731,-2.8743,-2.8694,-2.8644,-2.8563,-2.8644,-2.8657,-2.8681,-2.9337,-2.9762,-2.9815,-3.054,-3.1344,-3.1892,-3.2261,-3.2675,-3.3409,-3.3458,-3.3444,-3.3187,-3.3001,-3.2878,-3.2668,-3.2876,-3.3139,-3.3335,-3.347,-3.3575,-3.369,-3.3494,-3.3706,-3.4358,-3.4403,-3.4779,-3.6225,-3.6328,-3.6441,-3.6763,-3.6682,-3.6328,-3.6149,-3.5685,-3.5204,-3.5471,-3.5864,-3.647,-3.6845,-3.7274,-3.7703,-3.7828,-3.7809,-3.7667,-3.0808,-3.2624,-3.2256,-3.2901,-3.4169,-3.4276,-3.5721,-3.8007,-3.8085,-3.8722,-3.9497,-3.8535,-3.7944,-3.7669,-3.7786,-3.7379,-3.6542,-3.6151,-3.5987,-3.6014,-3.6015,-3.6014,-3.6009,-3.5971,-3.5942,-3.5886,-3.5869,-3.5792,-3.5558,-3.4812,-3.3735,-3.253,-3.1586,-3.0867,-3.035,-3.0246,-3.0185,-3.0121,-3.0038,-2.9983,-2.9907,-2.9645,-2.9343,-2.9038,-2.8913,-2.8682,-2.8353,-2.8259,-2.8246,-2.8286,-2.8109,-2.8007,-2.8063,-2.7879,-2.7733,-2.7644,-2.7624,-2.7736,-2.7956,-2.8332,-2.8554,-2.8578,-2.8833,-2.8975,-2.8975,-2.894,-2.8893,-2.8834,-2.881,-2.8949,-2.9423,-2.98,-3.0177,-3.0682,-3.143,-3.2064,-3.2342,-3.2876,-3.3346,-3.3638,-3.3675,-3.3657,-3.355,-3.339,-3.3243,-3.3139,-3.3262,-3.3444,-3.3684,-3.4119,-3.4504,-3.4683,-3.4815,-3.4771,-3.4749,-3.4303,-3.4835,-3.5799,-3.6211,-3.6394,-3.6927,-3.6328,-3.581,-3.6274,-3.5685,-3.5471,-3.5899,-3.6506,-3.7095,-3.7149,-3.7238,-3.7631,-3.727,-3.7232,-3.7214,-3.4008,-3.6076,-3.6602,-3.7593,-3.882,-3.8188,-3.8976,-4.064,-4.0805,-4.0889,-4.1031,-4.1069,-4.0341,-3.9084,-3.8689,-3.8057,-3.7205,-3.6385,-3.6015,-3.6016,-3.6014,-3.6012,-3.6006,-3.6017,-3.5974,-3.5933,-3.5919,-3.5856,-3.5615,-3.4812,-3.4014,-3.3313,-3.2494,-3.1588,-3.0765,-3.0682,-3.0509,-3.0232,-3.0169,-3.0125,-3.0087,-2.9901,-2.9589,-2.9193,-2.9064,-2.8814,-2.8435,-2.8353,-2.8345,-2.8419,-2.8277,-2.8223,-2.8277,-2.8136,-2.8003,-2.7897,-2.8079,-2.8277,-2.844,-2.8694,-2.8837,-2.8879,-2.9037,-2.913,-2.9112,-2.9096,-2.9161,-2.9329,-2.9252,-2.9539,-2.9948,-3.0466,-3.1034,-3.1602,-3.2352,-3.2828,-3.2902,-3.3441,-3.3748,-3.378,-3.378,-3.3807,-3.385,-3.373,-3.3592,-3.356,-3.3751,-3.3921,-3.4363,-3.5024,-3.5591,-3.5663,-3.5979,-3.5912,-3.5296,-3.476,-3.5029,-3.5829,-3.6469,-3.6398,-3.6946,-3.6043,-3.5382,-3.5899,-3.5471,-3.556,-3.613,-3.6899,-3.731,-3.7363,-3.7398,-3.7235,-3.6618,-3.6542,-3.6522,-3.6213,-3.7352,-3.8482,-3.9142,-3.9278,-4.026,-4.0781,-4.0969,-4.1045,-4.109,-4.1092,-4.1113,-4.105,-4.0751,-3.9314,-3.8143,-3.7284,-3.6464,-3.6054,-3.6015,-3.6013,-3.6011,-3.601,-3.6018,-3.6002,-3.5977,-3.5926,-3.5866,-3.5756,-3.4932,-3.4429,-3.4177,-3.3352,-3.2507,-3.1728,-3.1526,-3.1117,-3.0452,-3.0251,-3.0157,-3.0121,-3.0076,-2.9891,-2.9589,-2.9377,-2.9093,-2.873,-2.8596,-2.8471,-2.8237,-2.8223,-2.8209,-2.8209,-2.8246,-2.8277,-2.8303,-2.8529,-2.8688,-2.879,-2.903,-2.9189,-2.924,-2.92,-2.9207,-2.9189,-2.9197,-2.9481,-3.0231,-3.0263,-3.0328,-3.0503,-3.1599,-3.2453,-3.2693,-3.3419,-3.3775,-3.3862,-3.3802,-3.3902,-3.3947,-3.3921,-3.3921,-3.3985,-3.3998,-3.4039,-3.4186,-3.4679,-3.5185,-3.5341,-3.5985,-3.6456,-3.6576,-3.6705,-3.6827,-3.7019,-3.6202,-3.6255,-3.6983,-3.7022,-3.6524,-3.6435,-3.6292,-3.5899,-3.5507,-3.5221,-3.5433,-3.6236,-3.6628,-3.6751,-3.6821,-3.6926,-3.6669,-3.5941,-3.5863,-3.5824,-4.0905,-4.2795,-4.2235,-4.2017,-4.2005,-4.1401,-4.1074,-4.1074,-4.1074,-4.111,-4.1107,-4.1108,-4.1103,-4.1033,-3.9935,-3.8961,-3.8097,-3.7223,-3.6542,-3.6074,-3.6014,-3.601,-3.6019,-3.6014,-3.5962,-3.5919,-3.5912,-3.5883,-3.5838,-3.5459,-3.4953,-3.4399,-3.4025,-3.3381,-3.2594,-3.1898,-3.1431,-3.1098,-3.0552,-3.0171,-3.0132,-2.9983,-2.9874,-2.9839,-2.9626,-2.9256,-2.879,-2.8855,-2.8791,-2.8531,-2.8469,-2.8461,-2.8458,-2.8445,-2.8474,-2.862,-2.8827,-2.9019,-2.9171,-2.9265,-2.9355,-2.9355,-2.9294,-2.9262,-2.9251,-2.9248,-2.954,-3.0272,-3.0953,-3.1355,-3.1923,-3.2484,-3.3001,-3.3499,-3.3813,-3.4011,-3.3998,-3.3972,-3.3972,-3.3998,-3.4011,-3.4023,-3.4171,-3.453,-3.4888,-3.4981,-3.5584,-3.6022,-3.6279,-3.688,-3.7386,-3.7519,-3.788,-3.8275,-3.8414,-3.7522,-3.7119,-3.7687,-3.7881,-3.7587,-3.7428,-3.6335,-3.5725,-3.5253,-3.4968,-3.4749,-3.5389,-3.6247,-3.6314,-3.6112,-3.6233,-3.5995,-3.5245,-3.508,-3.5025,-4.4272,-4.574,-4.458,-4.3866,-4.3513,-4.212,-4.1324,-4.1094,-4.1074,-4.1072,-4.1069,-4.1089,-4.1103,-4.1017,-4.0521,-3.9818,-3.891,-3.7828,-3.6834,-3.6052,-3.6013,-3.6009,-3.6018,-3.6016,-3.5985,-3.5919,-3.5907,-3.5883,-3.5878,-3.5791,-3.5408,-3.4865,-3.4768,-3.4286,-3.344,-3.2756,-3.234,-3.191,-3.1108,-3.0626,-3.0471,-3.0054,-2.9891,-2.9945,-2.9716,-2.9348,-2.8941,-2.9053,-2.8966,-2.8651,-2.8627,-2.8658,-2.8731,-2.8676,-2.8743,-2.8989,-2.9192,-2.9318,-2.9409,-2.944,-2.945,-2.948,-2.9409,-2.9368,-2.9386,-2.9559,-3.0057,-3.0795,-3.161,-3.2449,-3.3086,-3.3302,-3.3488,-3.395,-3.4061,-3.4061,-3.4061,-3.4067,-3.4036,-3.4049,-3.4099,-3.4222,-3.4494,-3.5038,-3.5471,-3.5762,-3.647,-3.6978,-3.7143,-3.7718,-3.8248,-3.8321,-3.8674,-3.9082,-3.9179,-3.8519,-3.7806,-3.8214,-3.8296,-3.8198,-3.7615,-3.6427,-3.5584,-3.5081,-3.4636,-3.4273,-3.4627,-3.5609,-3.573,-3.5471,-3.5381,-3.5286,-3.4702,-3.4229,-3.428,-4.6072,-4.6032,-4.5198,-4.4314,-4.3593,-4.2615,-4.1782,-4.1083,-4.103,-4.1033,-4.1054,-4.1074,-4.1105,-4.1077,-4.1009,-4.0559,-3.9554,-3.8236,-3.7048,-3.6186,-3.6108,-3.6066,-3.6002,-3.6022,-3.6012,-3.5984,-3.5921,-3.5897,-3.5885,-3.5834,-3.5711,-3.5665,-3.551,-3.5062,-3.4305,-3.4051,-3.3622,-3.2838,-3.2025,-3.1505,-3.1305,-3.047,-3.0024,-3.0034,-2.9652,-2.9348,-2.9188,-2.918,-2.8966,-2.8518,-2.8627,-2.8795,-2.8925,-2.8895,-2.9042,-2.9353,-2.9579,-2.9617,-2.9531,-2.9502,-2.956,-2.9626,-2.956,-2.953,-2.9735,-3.0211,-3.0916,-3.1764,-3.2467,-3.3273,-3.3936,-3.4122,-3.4116,-3.4179,-3.4185,-3.4197,-3.4204,-3.4148,-3.4117,-3.4185,-3.4297,-3.4624,-3.525,-3.572,-3.606,-3.6655,-3.736,-3.7899,-3.7931,-3.8488,-3.8971,-3.9027,-3.9064,-3.9287,-3.9495,-3.9545,-3.9007,-3.8604,-3.8465,-3.8275,-3.7433,-3.6378,-3.5695,-3.5164,-3.4344,-3.4007,-3.4338,-3.522,-3.5442,-3.5238,-3.5018,-3.4879,-3.4494,-3.4142,-3.3727,-4.6172,-4.6106,-4.5229,-4.4384,-4.3573,-4.2723,-4.1849,-4.1048,-4.1054,-4.1073,-4.1088,-4.1089,-4.1103,-4.1115,-4.1104,-4.0656,-3.9868,-3.9247,-3.8312,-3.7118,-3.6903,-3.655,-3.6115,-3.6016,-3.6007,-3.6005,-3.5951,-3.5894,-3.5888,-3.583,-3.5786,-3.576,-3.5643,-3.5465,-3.5139,-3.4532,-3.3994,-3.3711,-3.2916,-3.2204,-3.156,-3.0921,-3.0395,-2.997,-2.9634,-2.9368,-2.914,-2.9201,-2.9023,-2.8574,-2.8862,-2.8975,-2.886,-2.8906,-2.902,-2.9158,-2.9502,-2.9692,-2.9655,-2.9636,-2.9655,-2.9673,-2.9655,-2.9926,-3.0367,-3.0695,-3.1463,-3.2593,-3.3165,-3.3604,-3.4278,-3.4484,-3.4386,-3.4221,-3.4281,-3.4328,-3.4347,-3.4342,-3.4567,-3.4977,-3.5089,-3.5473,-3.6197,-3.6649,-3.7113,-3.7485,-3.8191,-3.8655,-3.8748,-3.8878,-3.9082,-3.9082,-3.9175,-3.9454,-3.9954,-4.0159,-3.981,-3.943,-3.9215,-3.8718,-3.7733,-3.6739,-3.6035,-3.5329,-3.4489,-3.4234,-3.4559,-3.4866,-3.5299,-3.5391,-3.5363,-3.5055,-3.4582,-3.4223,-3.3919,-4.6218,-4.6167,-4.5615,-4.471,-4.3626,-4.2992,-4.2069,-4.1076,-4.1026,-4.1074,-4.1074,-4.1088,-4.1101,-4.1115,-4.1101,-4.0828,-4.0356,-4.0355,-3.9593,-3.8245,-3.7482,-3.6993,-3.6441,-3.6126,-3.602,-3.5986,-3.5914,-3.5883,-3.5889,-3.5856,-3.583,-3.5782,-3.5684,-3.561,-3.557,-3.5045,-3.4713,-3.4532,-3.3794,-3.3075,-3.2443,-3.154,-3.0844,-3.0446,-2.9795,-2.9377,-2.9235,-2.9177,-2.8973,-2.8737,-2.8845,-2.8936,-2.9012,-2.9075,-2.9137,-2.9326,-2.957,-2.9764,-2.9747,-2.9738,-2.9756,-2.9755,-2.9737,-3.0076,-3.0782,-3.1139,-3.207,-3.3101,-3.3692,-3.4049,-3.45,-3.4612,-3.4517,-3.4374,-3.4409,-3.4473,-3.451,-3.4708,-3.5016,-3.5448,-3.5739,-3.6309,-3.7039,-3.7485,-3.8042,-3.8321,-3.8767,-3.9101,-3.9101,-3.9064,-3.9101,-3.9101,-3.912,-3.9677,-4.0624,-4.0704,-4.0544,-4.0344,-4.0159,-3.9465,-3.8594,-3.7546,-3.6707,-3.6123,-3.5377,-3.5446,-3.5716,-3.576,-3.6033,-3.59,-3.5913,-3.5768,-3.5517,-3.477,-3.449,-4.6246,-4.6287,-4.6214,-4.518,-4.3739,-4.3421,-4.243,-4.1073,-4.0967,-4.1019,-4.1033,-4.1074,-4.1101,-4.1099,-4.1117,-4.1056,-4.109,-4.0994,-4.0602,-3.9509,-3.8318,-3.7321,-3.691,-3.6279,-3.6017,-3.6005,-3.5955,-3.5924,-3.5889,-3.5895,-3.5861,-3.5791,-3.5722,-3.5653,-3.5589,-3.5565,-3.5451,-3.5198,-3.4562,-3.4138,-3.3904,-3.2354,-3.1439,-3.1458,-3.0199,-2.9514,-2.9613,-2.924,-2.8857,-2.8731,-2.8688,-2.8929,-2.9377,-2.9345,-2.9395,-2.9672,-2.9849,-2.9857,-2.9825,-2.9808,-2.9823,-2.9874,-3.0002,-3.0232,-3.1119,-3.194,-3.2732,-3.3576,-3.4177,-3.458,-3.4636,-3.4655,-3.4615,-3.4634,-3.4604,-3.4612,-3.4658,-3.518,-3.5603,-3.5843,-3.6323,-3.7084,-3.7873,-3.8077,-3.8431,-3.8799,-3.9059,-3.9124,-3.9101,-3.9101,-3.9101,-3.9101,-3.9101,-3.99,-4.0828,-4.1045,-4.0989,-4.1408,-4.0985,-4.0031,-3.9132,-3.8055,-3.7239,-3.6684,-3.6515,-3.6626,-3.6646,-3.6633,-3.6794,-3.6962,-3.6925,-3.6833,-3.642,-3.5777,-3.5266,-4.6182,-4.6157,-4.6187,-4.5157,-4.3596,-4.3521,-4.2541,-4.1019,-4.0967,-4.1019,-4.1084,-4.1093,-4.1109,-4.1114,-4.1111,-4.1111,-4.1109,-4.1109,-4.1051,-4.0543,-3.9021,-3.7497,-3.6558,-3.6147,-3.602,-3.6007,-3.5981,-3.5951,-3.5889,-3.5882,-3.5861,-3.5795,-3.5732,-3.5669,-3.5626,-3.561,-3.5554,-3.5483,-3.5288,-3.4756,-3.4131,-3.3339,-3.2631,-3.2132,-3.1026,-3.046,-3.0443,-2.9754,-2.9191,-2.8948,-2.9042,-2.9151,-2.9387,-2.9446,-2.9542,-2.9672,-2.9813,-2.9907,-2.9883,-2.9874,-2.9891,-2.9983,-3.0459,-3.1178,-3.1973,-3.2825,-3.3639,-3.4339,-3.4755,-3.4821,-3.4821,-3.4821,-3.4821,-3.4821,-3.4826,-3.4823,-3.4936,-3.5423,-3.6076,-3.6644,-3.7384,-3.8116,-3.8644,-3.8937,-3.9012,-3.9122,-3.9183,-3.9224,-3.9137,-3.911,-3.9124,-3.9096,-3.9268,-4.016,-4.0851,-4.1156,-4.1571,-4.2261,-4.1744,-4.0484,-3.9398,-3.8162,-3.7509,-3.6951,-3.7347,-3.7551,-3.7359,-3.7217,-3.7554,-3.8011,-3.777,-3.7562,-3.746,-3.7013,-3.6355,-4.6114,-4.6138,-4.6162,-4.5121,-4.3578,-4.354,-4.2548,-4.1151,-4.0981,-4.1025,-4.1068,-4.1074,-4.1104,-4.1109,-4.1109,-4.1109,-4.1109,-4.1109,-4.1109,-4.0875,-3.9704,-3.8004,-3.648,-3.6012,-3.6006,-3.6013,-3.6007,-3.5955,-3.5897,-3.5894,-3.5875,-3.5803,-3.5769,-3.5684,-3.5608,-3.561,-3.5566,-3.5502,-3.5494,-3.5212,-3.4749,-3.4041,-3.3579,-3.3015,-3.212,-3.1496,-3.1355,-3.096,-3.034,-2.9603,-2.9348,-2.9388,-2.958,-2.9589,-2.9644,-2.9707,-2.9847,-2.9916,-2.9916,-2.9916,-3.0105,-3.0427,-3.0977,-3.179,-3.2727,-3.3486,-3.4045,-3.4812,-3.4917,-3.4927,-3.4936,-3.4917,-3.4908,-3.4936,-3.52,-3.5369,-3.5398,-3.6073,-3.6804,-3.7585,-3.8336,-3.8926,-3.9364,-3.9446,-3.9408,-3.9324,-3.9272,-3.9259,-3.9205,-3.9178,-3.9137,-3.911,-3.9249,-3.9965,-4.0551,-4.0861,-4.1045,-4.1838,-4.1501,-4.0402,-3.9723,-3.8512,-3.8348,-3.8106,-3.8293,-3.8376,-3.8243,-3.8262,-3.8674,-3.8888,-3.8555,-3.8456,-3.8448,-3.791,-3.7296,-4.6078,-4.6167,-4.6141,-4.5211,-4.3837,-4.3538,-4.2611,-4.1264,-4.1037,-4.1015,-4.1025,-4.1069,-4.1098,-4.1109,-4.1116,-4.1114,-4.1109,-4.1109,-4.0973,-4.0678,-3.9897,-3.853,-3.675,-3.636,-3.6297,-3.621,-3.6085,-3.5958,-3.5902,-3.5889,-3.585,-3.5811,-3.5786,-3.5733,-3.5639,-3.5617,-3.5554,-3.5501,-3.5488,-3.5462,-3.5229,-3.4625,-3.4221,-3.4048,-3.3187,-3.2452,-3.224,-3.2097,-3.1676,-3.0202,-2.9805,-3.0039,-3.0257,-3.0045,-3.0101,-3.0299,-3.0446,-3.0397,-3.0265,-3.0444,-3.0576,-3.1248,-3.1476,-3.2072,-3.3378,-3.3863,-3.4328,-3.5018,-3.4992,-3.4983,-3.4964,-3.4936,-3.5022,-3.5192,-3.5799,-3.614,-3.6528,-3.6995,-3.7667,-3.8422,-3.9084,-3.945,-3.9508,-3.952,-3.9508,-3.9344,-3.9331,-3.935,-3.9311,-3.9272,-3.9192,-3.9096,-3.9332,-3.9632,-4.01,-4.0528,-4.0677,-4.0967,-4.0477,-3.984,-3.9896,-3.9271,-3.9383,-3.9378,-3.9161,-3.9218,-3.9407,-3.9578,-3.9711,-3.9635,-3.9256,-3.948,-3.963,-3.8671,-3.7914,-4.6123,-4.6047,-4.6138,-4.5554,-4.4514,-4.3797,-4.2926,-4.1933,-4.1274,-4.1031,-4.1064,-4.105,-4.1054,-4.1109,-4.1104,-4.1108,-4.1111,-4.1069,-4.0776,-4.0073,-3.9937,-3.9171,-3.7975,-3.7407,-3.7014,-3.6789,-3.6192,-3.5926,-3.5914,-3.5888,-3.5868,-3.5803,-3.5736,-3.5688,-3.5622,-3.5598,-3.556,-3.5514,-3.55,-3.55,-3.5446,-3.5071,-3.484,-3.4864,-3.4117,-3.3328,-3.2716,-3.261,-3.2454,-3.2145,-3.1947,-3.1817,-3.1688,-3.176,-3.1748,-3.1748,-3.1832,-3.187,-3.1908,-3.1803,-3.202,-3.2243,-3.2748,-3.3411,-3.3686,-3.4419,-3.48,-3.5092,-3.5075,-3.5048,-3.5001,-3.4936,-3.5221,-3.5685,-3.6112,-3.6775,-3.7807,-3.8252,-3.8409,-3.8769,-3.9323,-3.977,-3.9701,-3.9747,-3.9658,-3.9446,-3.9395,-3.9421,-3.9408,-3.937,-3.9285,-3.9178,-3.9346,-3.9625,-3.9896,-4.0256,-4.0369,-4.0459,-3.9982,-3.9665,-3.967,-3.967,-3.9647,-3.9724,-3.978,-3.9889,-3.99,-3.9881,-3.9805,-3.9862,-3.9859,-3.9823,-3.9602,-3.8937,-3.865,-4.6054,-4.6052,-4.6135,-4.5654,-4.4792,-4.3919,-4.3071,-4.2241,-4.1356,-4.103,-4.1074,-4.1054,-4.1066,-4.1104,-4.1115,-4.1111,-4.1106,-4.1088,-4.0872,-4.0516,-4.0416,-4.0159,-3.9681,-3.8799,-3.8131,-3.7349,-3.6794,-3.6353,-3.6008,-3.5901,-3.5864,-3.5795,-3.5751,-3.5672,-3.5616,-3.5617,-3.5554,-3.552,-3.55,-3.55,-3.5453,-3.5335,-3.5211,-3.5247,-3.4818,-3.4312,-3.3971,-3.3895,-3.3902,-3.3856,-3.3791,-3.3334,-3.2598,-3.2547,-3.2583,-3.2556,-3.2547,-3.2547,-3.2528,-3.2566,-3.2689,-3.3132,-3.3597,-3.4006,-3.4329,-3.4901,-3.5062,-3.5117,-3.5119,-3.5094,-3.5011,-3.4983,-3.5372,-3.6055,-3.6586,-3.7364,-3.8367,-3.8709,-3.8898,-3.9172,-3.9654,-3.981,-3.9856,-3.9859,-3.9837,-3.9647,-3.9556,-3.9568,-3.9599,-3.9532,-3.9414,-3.9363,-3.9427,-3.9583,-3.9801,-3.9989,-4.0102,-4.013,-3.9962,-3.98,-3.9815,-3.9792,-3.9758,-3.9815,-3.9889,-3.9889,-3.99,-3.99,-3.9837,-3.9758,-3.9712,-3.9701,-3.9549,-3.9163,-3.9014,-4.5983,-4.6111,-4.6112,-4.5735,-4.5017,-4.4191,-4.3371,-4.248,-4.1599,-4.1245,-4.1069,-4.1101,-4.1064,-4.1109,-4.1094,-4.1092,-4.1111,-4.1101,-4.0984,-4.0975,-4.0957,-4.089,-4.0664,-4.0092,-3.917,-3.7693,-3.7235,-3.6762,-3.6284,-3.594,-3.585,-3.5791,-3.5737,-3.5662,-3.5622,-3.5598,-3.556,-3.5514,-3.55,-3.55,-3.55,-3.5472,-3.5391,-3.5293,-3.5173,-3.5057,-3.4934,-3.4972,-3.5068,-3.5182,-3.5182,-3.441,-3.3481,-3.2991,-3.3016,-3.3054,-3.3206,-3.3282,-3.3301,-3.3225,-3.3435,-3.3987,-3.4033,-3.4374,-3.4963,-3.5107,-3.5143,-3.517,-3.5162,-3.5101,-3.5048,-3.5248,-3.5685,-3.6407,-3.7214,-3.803,-3.8683,-3.8909,-3.9288,-3.9654,-3.9805,-3.984,-3.9878,-3.9889,-3.9889,-3.9867,-3.9781,-3.9705,-3.9705,-3.9693,-3.9563,-3.9514,-3.9563,-3.9635,-3.9832,-3.9883,-3.9969,-3.9966,-3.9883,-3.9886,-3.99,-3.9848,-3.9815,-3.9837,-3.99,-3.99,-3.99,-3.99,-3.9804,-3.9635,-3.9658,-3.9781,-3.9654,-3.942,-3.9285,-4.6086,-4.6106,-4.6167,-4.6087,-4.5859,-4.5037,-4.4179,-4.3409,-4.2481,-4.1756,-4.1153,-4.1039,-4.1044,-4.1074,-4.1035,-4.1051,-4.1107,-4.1109,-4.1109,-4.11,-4.1105,-4.11,-4.1022,-4.0861,-4.0212,-3.921,-3.8155,-3.7278,-3.6776,-3.6257,-3.5947,-3.5801,-3.5733,-3.5668,-3.5622,-3.5617,-3.556,-3.5514,-3.55,-3.55,-3.5493,-3.5453,-3.5391,-3.5316,-3.5242,-3.5218,-3.5209,-3.5209,-3.5182,-3.5182,-3.5182,-3.501,-3.4677,-3.4593,-3.4596,-3.4552,-3.4486,-3.4429,-3.4448,-3.462,-3.477,-3.4947,-3.4871,-3.489,-3.5127,-3.5185,-3.5166,-3.5185,-3.5206,-3.5183,-3.5174,-3.5634,-3.6444,-3.7262,-3.8023,-3.8812,-3.9464,-3.9709,-3.9688,-3.9873,-3.99,-3.99,-3.99,-3.9889,-3.9878,-3.9878,-3.9826,-3.9728,-3.967,-3.9705,-3.9712,-3.9682,-3.9693,-3.9781,-3.9883,-3.9879,-3.9913,-3.9921,-3.9897,-3.9897,-3.99,-3.99,-3.99,-3.99,-3.99,-3.99,-3.99,-3.99,-3.9804,-3.9658,-3.9781,-3.9911,-3.9587,-3.9279,-3.9187,-4.616,-4.6143,-4.617,-4.621,-4.6083,-4.5297,-4.4683,-4.4155,-4.2951,-4.2151,-4.171,-4.1285,-4.1066,-4.1074,-4.1081,-4.1079,-4.1093,-4.1118,-4.1115,-4.1111,-4.1111,-4.1106,-4.1103,-4.1103,-4.0886,-4.0214,-3.9182,-3.7974,-3.7247,-3.6752,-3.6207,-3.5832,-3.5742,-3.5676,-3.561,-3.5617,-3.5554,-3.5501,-3.55,-3.55,-3.5481,-3.5446,-3.5376,-3.5312,-3.5281,-3.5239,-3.5242,-3.5266,-3.5258,-3.5242,-3.5242,-3.5226,-3.519,-3.5182,-3.5182,-3.5176,-3.5196,-3.5196,-3.5196,-3.5196,-3.5147,-3.5163,-3.5182,-3.5182,-3.5182,-3.5182,-3.5201,-3.522,-3.5212,-3.5378,-3.5782,-3.6203,-3.6928,-3.7985,-3.8642,-3.9213,-3.9742,-3.9989,-4.0005,-3.9922,-3.99,-3.9881,-3.99,-3.9889,-3.9867,-3.9848,-3.9848,-3.9792,-3.9682,-3.9705,-3.9781,-3.977,-3.9739,-3.9781,-3.9848,-3.9889,-3.9889,-3.99,-3.99,-3.99,-3.99,-3.99,-3.99,-3.99,-3.99,-3.99,-3.9911,-3.9922,-3.9804,-3.9705,-3.9758,-3.9717,-3.9402,-3.9163,-3.91,-4.6207,-4.6229,-4.6207,-4.6252,-4.6145,-4.5496,-4.5039,-4.4585,-4.3244,-4.2503,-4.2256,-4.1509,-4.1103,-4.1106,-4.11,-4.11,-4.1112,-4.1106,-4.1103,-4.1114,-4.1114,-4.1109,-4.1114,-4.1107,-4.1052,-4.0857,-4.0367,-3.914,-3.7757,-3.7137,-3.6576,-3.5993,-3.5707,-3.567,-3.561,-3.5591,-3.5528,-3.5508,-3.55,-3.55,-3.5474,-3.542,-3.5372,-3.5315,-3.5308,-3.5278,-3.5289,-3.5304,-3.5297,-3.5293,-3.5304,-3.5269,-3.5209,-3.5182,-3.5182,-3.5182,-3.5182,-3.5182,-3.5182,-3.5182,-3.5182,-3.5182,-3.5182,-3.5182,-3.5182,-3.5201,-3.5267,-3.54,-3.5507,-3.588,-3.6542,-3.6868,-3.7564,-3.8413,-3.9052,-3.9385,-3.9831,-4.0067,-4.0017,-3.9965,-3.9903,-3.9881,-3.99,-3.99,-3.9878,-3.9878,-3.987,-3.987,-3.9792,-3.977,-3.9804,-3.9781,-3.9762,-3.9762,-3.9815,-3.9878,-3.9889,-3.99,-3.99,-3.99,-3.99,-3.99,-3.99,-3.99,-3.99,-3.99,-3.9922,-3.9954,-3.9911,-3.9837,-3.9728,-3.9628,-3.9525,-3.9274,-3.9078,-4.6227,-4.6294,-4.6294,-4.6245,-4.6209,-4.6036,-4.5582,-4.4838,-4.3845,-4.2997,-4.238,-4.152,-4.111,-4.111,-4.111,-4.111,-4.1117,-4.1109,-4.1109,-4.11,-4.1106,-4.1103,-4.111,-4.1107,-4.1107,-4.1068,-4.0932,-3.9903,-3.8532,-3.7591,-3.6768,-3.6101,-3.588,-3.5653,-3.5771,-3.5592,-3.5489,-3.5488,-3.55,-3.55,-3.5474,-3.5379,-3.5345,-3.5357,-3.5327,-3.5324,-3.532,-3.5315,-3.532,-3.53,-3.5312,-3.5269,-3.5218,-3.5182,-3.5182,-3.5182,-3.5182,-3.5182,-3.5182,-3.5182,-3.5182,-3.5182,-3.5182,-3.5182,-3.522,-3.5354,-3.5621,-3.6328,-3.6347,-3.671,-3.7484,-3.8181,-3.8687,-3.9127,-3.9614,-3.9881,-4.0176,-4.0077,-4.0046,-3.9975,-3.9903,-3.9881,-3.99,-3.99,-3.99,-3.99,-3.99,-3.99,-3.9889,-3.9867,-3.9804,-3.9762,-3.9815,-3.9815,-3.9815,-3.9878,-3.9889,-3.99,-3.99,-3.99,-3.99,-3.99,-3.99,-3.99,-3.99,-3.987,-3.987,-3.9922,-3.9986,-3.9892,-3.9705,-3.9751,-3.9829,-3.9508,-3.9027,-4.6272,-4.6292,-4.626,-4.6255,-4.6253,-4.6206,-4.6001,-4.54,-4.4176,-4.3387,-4.2802,-4.1633,-4.1107,-4.1107,-4.1107,-4.1107,-4.111,-4.1097,-4.1117,-4.111,-4.1117,-4.1117,-4.111,-4.1107,-4.1107,-4.1104,-4.0951,-4.0377,-3.9237,-3.8667,-3.8049,-3.7152,-3.6613,-3.6342,-3.6209,-3.5759,-3.5566,-3.5494,-3.55,-3.55,-3.5493,-3.5465,-3.5405,-3.5405,-3.541,-3.5383,-3.5383,-3.5405,-3.5391,-3.5361,-3.5339,-3.5281,-3.5242,-3.5218,-3.5182,-3.5182,-3.5182,-3.5182,-3.5182,-3.5201,-3.522,-3.522,-3.522,-3.5182,-3.5278,-3.5698,-3.6042,-3.6443,-3.6948,-3.7559,-3.8228,-3.8744,-3.924,-3.9652,-4.0034,-4.0091,-4.0186,-4.0137,-4.0076,-3.9975,-3.9922,-3.9911,-3.99,-3.99,-3.99,-3.99,-3.99,-3.99,-3.99,-3.9889,-3.9826,-3.9751,-3.9796,-3.9859,-3.9859,-3.9889,-3.9889,-3.99,-3.99,-3.99,-3.99,-3.99,-3.99,-3.99,-3.99,-3.9859,-3.9826,-3.987,-3.9954,-3.9815,-3.9647,-3.9592,-3.952,-3.9219,-3.8855,-4.63,-4.6294,-4.6236,-4.6211,-4.6253,-4.6216,-4.6187,-4.5982,-4.4348,-4.3601,-4.315,-4.188,-4.1078,-4.1104,-4.1101,-4.1098,-4.1107,-4.1107,-4.1107,-4.1107,-4.1107,-4.111,-4.1107,-4.1107,-4.1107,-4.1107,-4.1034,-4.061,-4.0187,-3.9728,-3.9248,-3.8294,-3.7479,-3.7192,-3.6948,-3.6607,-3.6258,-3.5911,-3.6173,-3.6135,-3.5923,-3.5851,-3.5799,-3.5722,-3.5587,-3.546,-3.5446,-3.546,-3.546,-3.5398,-3.5342,-3.5304,-3.5285,-3.5245,-3.519,-3.5182,-3.5182,-3.5373,-3.5411,-3.543,-3.5354,-3.5507,-3.5783,-3.6069,-3.6031,-3.6489,-3.7024,-3.7283,-3.7684,-3.8457,-3.9088,-3.9355,-3.9632,-3.9995,-4.0263,-4.0215,-4.0157,-4.0127,-4.0096,-4.0036,-3.9965,-3.99,-3.99,-3.99,-3.99,-3.99,-3.99,-3.99,-3.99,-3.99,-3.9848,-3.9785,-3.9826,-3.99,-3.99,-3.99,-3.99,-3.99,-3.99,-3.99,-3.99,-3.99,-3.99,-3.99,-3.9848,-3.9792,-3.9693,-3.9804,-3.9889,-3.964,-3.9414,-3.9213,-3.9045,-3.8792,-3.8726,-4.6296,-4.6286,-4.6233,-4.6201,-4.6209,-4.6209,-4.6199,-4.6066,-4.4345,-4.3543,-4.3123,-4.1855,-4.1034,-4.1071,-4.1041,-4.1061,-4.1107,-4.1107,-4.1107,-4.1107,-4.1107,-4.1107,-4.1107,-4.1107,-4.1107,-4.1081,-4.1023,-4.0904,-4.0767,-4.0498,-3.9625,-3.8401,-3.8215,-3.8054,-3.7859,-3.7581,-3.7118,-3.6885,-3.7142,-3.7154,-3.6801,-3.662,-3.6625,-3.6447,-3.5914,-3.5446,-3.5512,-3.5731,-3.5678,-3.5616,-3.5541,-3.535,-3.535,-3.5245,-3.5209,-3.5182,-3.5373,-3.5679,-3.5946,-3.5755,-3.5763,-3.6328,-3.6863,-3.7158,-3.7101,-3.7406,-3.7941,-3.8476,-3.8706,-3.924,-3.9823,-4.0205,-4.0129,-4.0205,-4.032,-4.0282,-4.0186,-4.0118,-4.0087,-4.0057,-3.9996,-3.9943,-3.9922,-3.9933,-3.99,-3.99,-3.99,-3.99,-3.99,-3.99,-3.99,-3.9859,-3.9859,-3.99,-3.99,-3.99,-3.99,-3.99,-3.99,-3.99,-3.99,-3.9889,-3.9804,-3.9781,-3.9735,-3.9647,-3.9563,-3.9508,-3.9439,-3.9345,-3.9189,-3.905,-3.8931,-3.881,-3.8738,-4.6288,-4.6284,-4.6242,-4.6209,-4.6203,-4.6206,-4.6199,-4.5903,-4.438,-4.2944,-4.1992,-4.1271,-4.0943,-4.098,-4.1,-4.1003,-4.1038,-4.1081,-4.1107,-4.1107,-4.1107,-4.1107,-4.1107,-4.1085,-4.1078,-4.1034,-4.0975,-4.0907,-4.08,-4.0804,-4.0487,-3.9721,-3.9135,-3.8908,-3.8739,-3.8375,-3.7873,-3.7719,-3.7815,-3.7777,-3.7661,-3.75,-3.7493,-3.7442,-3.7308,-3.7005,-3.7058,-3.7046,-3.6709,-3.6334,-3.6124,-3.5829,-3.5503,-3.5379,-3.5324,-3.5411,-3.5736,-3.6214,-3.65,-3.629,-3.6413,-3.7043,-3.7521,-3.775,-3.7941,-3.8171,-3.8553,-3.903,-3.948,-3.9957,-4.0148,-4.0282,-4.0282,-4.0301,-4.0301,-4.0291,-4.0234,-4.0157,-4.0108,-4.0087,-4.0027,-3.9975,-3.9965,-3.9965,-3.9933,-3.9911,-3.99,-3.99,-3.99,-3.99,-3.99,-3.99,-3.99,-3.99,-3.99,-3.99,-3.99,-3.99,-3.99,-3.99,-3.9859,-3.967,-3.9611,-3.9599,-3.9495,-3.93,-3.9168,-3.9087,-3.9031,-3.899,-3.8975,-3.8933,-3.8844,-3.878,-3.8827,-4.6299,-4.6272,-4.6234,-4.6203,-4.6203,-4.6206,-4.6199,-4.5903,-4.4361,-4.2626,-4.1011,-4.093,-4.0888,-4.0917,-4.0939,-4.0984,-4.1023,-4.1052,-4.1104,-4.1104,-4.1098,-4.1075,-4.1052,-4.1038,-4.0996,-4.0967,-4.0912,-4.0819,-4.0793,-4.0776,-4.0597,-4.0338,-4.0079,-3.9774,-3.9533,-3.9099,-3.8623,-3.845,-3.8661,-3.8546,-3.8488,-3.8392,-3.8392,-3.8296,-3.8038,-3.7827,-3.7777,-3.7712,-3.7562,-3.7102,-3.6738,-3.6431,-3.6096,-3.5826,-3.5772,-3.605,-3.6443,-3.692,-3.7169,-3.7302,-3.7502,-3.8037,-3.8495,-3.8553,-3.8648,-3.903,-3.9431,-3.9489,-3.9976,-4.032,-4.032,-4.032,-4.032,-4.032,-4.032,-4.0291,-4.0244,-4.0166,-4.0138,-4.0118,-4.0048,-3.9986,-3.9975,-3.9965,-3.9933,-3.99,-3.99,-3.99,-3.99,-3.99,-3.99,-3.99,-3.99,-3.99,-3.99,-3.99,-3.99,-3.99,-3.99,-3.99,-3.9815,-3.9604,-3.9483,-3.9508,-3.9326,-3.8943,-3.8818,-3.8818,-3.8766,-3.8713,-3.8725,-3.8763,-3.8788,-3.8756,-3.8995,-4.6272,-4.6206,-4.6206,-4.6203,-4.62,-4.6206,-4.6176,-4.5845,-4.4217,-4.254,-4.1081,-4.0917,-4.0893,-4.0898,-4.0898,-4.093,-4.0988,-4.1045,-4.1085,-4.1075,-4.1057,-4.1023,-4.0984,-4.0967,-4.093,-4.0883,-4.0849,-4.0818,-4.0796,-4.0752,-4.0668,-4.0614,-4.0424,-4.0369,-4.0446,-4.0439,-4.0015,-3.9496,-3.9996,-3.9746,-3.9419,-3.9258,-3.9265,-3.913,-3.8738,-3.8507,-3.8507,-3.8507,-3.8331,-3.7928,-3.7341,-3.7167,-3.7299,-3.6752,-3.6784,-3.7339,-3.7549,-3.8075,-3.8801,-3.8877,-3.8916,-3.8992,-3.9384,-3.9747,-4.0034,-4.0205,-4.011,-3.9976,-4.0244,-4.032,-4.032,-4.032,-4.032,-4.032,-4.032,-4.0291,-4.0244,-4.0186,-4.0166,-4.0166,-4.0077,-3.9996,-3.9975,-3.9943,-3.9911,-3.99,-3.99,-3.99,-3.99,-3.99,-3.99,-3.99,-3.99,-3.99,-3.99,-3.99,-3.99,-3.99,-3.99,-3.99,-3.9762,-3.9556,-3.9464,-3.9458,-3.9114,-3.8688,-3.8597,-3.86,-3.8556,-3.8528,-3.8575,-3.8621,-3.8658,-3.8781,-3.9019,-4.6223,-4.6203,-4.6213,-4.6206,-4.6206,-4.6203,-4.5907,-4.5078,-4.3475,-4.2017,-4.1092,-4.0842,-4.0818,-4.0829,-4.0848,-4.0869,-4.0935,-4.0996,-4.1034,-4.103,-4.0996,-4.0975,-4.0954,-4.0907,-4.0864,-4.0839,-4.0812,-4.0798,-4.0802,-4.072,-4.0668,-4.0607,-4.0583,-4.0573,-4.0504,-4.0496,-4.0285,-4.0169,-4.0342,-4.0342,-4.0112,-4.0054,-4.0054,-4.0035,-3.9688,-3.9508,-3.9469,-3.9431,-3.9223,-3.8819,-3.822,-3.8158,-3.8079,-3.7474,-3.7545,-3.7957,-3.8159,-3.8973,-3.9603,-3.9823,-3.9852,-3.9957,-4.0072,-4.032,-4.032,-4.032,-4.0301,-4.031,-4.032,-4.031,-4.032,-4.031,-4.031,-4.032,-4.032,-4.032,-4.0282,-4.0225,-4.0186,-4.0196,-4.0157,-4.0057,-3.9986,-3.9943,-3.9911,-3.99,-3.99,-3.99,-3.99,-3.99,-3.99,-3.99,-3.99,-3.99,-3.99,-3.99,-3.99,-3.99,-3.99,-3.99,-3.9728,-3.9501,-3.9307,-3.9203,-3.8803,-3.843,-3.8415,-3.8417,-3.8385,-3.8385,-3.8481,-3.8575,-3.8658,-3.8817,-3.9038,-4.6212,-4.6213,-4.6203,-4.6199,-4.6199,-4.6199,-4.5549,-4.4362,-4.3132,-4.2023,-4.1077,-4.0859,-4.0833,-4.0814,-4.0798,-4.0804,-4.0869,-4.0948,-4.0956,-4.0956,-4.0971,-4.0921,-4.0893,-4.0883,-4.0846,-4.0823,-4.0792,-4.0808,-4.0759,-4.07,-4.064,-4.0605,-4.0595,-4.0565,-4.0531,-4.0539,-4.0512,-4.0446,-4.0496,-4.0477,-4.0419,-4.0439,-4.0458,-4.0458,-4.04,-4.0419,-4.0477,-4.0412,-4.025,-3.9719,-3.9311,-3.913,-3.8717,-3.8446,-3.8459,-3.8739,-3.9115,-3.9756,-4.0091,-4.0244,-4.0186,-4.0244,-4.032,-4.032,-4.031,-4.031,-4.031,-4.0319,-4.0357,-4.0357,-4.0376,-4.0376,-4.0358,-4.0358,-4.032,-4.032,-4.0291,-4.0244,-4.0206,-4.0234,-4.0176,-4.0087,-3.9996,-3.9943,-3.99,-3.99,-3.99,-3.99,-3.99,-3.99,-3.99,-3.99,-3.99,-3.99,-3.99,-3.99,-3.99,-3.99,-3.99,-3.99,-3.9705,-3.9489,-3.9229,-3.8938,-3.8612,-3.8336,-3.8274,-3.8224,-3.8289,-3.8385,-3.8478,-3.8593,-3.8673,-3.8836,-3.9001,-4.6213,-4.6199,-4.6199,-4.6199,-4.6196,-4.6095,-4.5141,-4.3626,-4.3498,-4.2473,-4.0929,-4.0951,-4.0846,-4.0821,-4.0798,-4.0807,-4.0814,-4.0935,-4.093,-4.0921,-4.0917,-4.0878,-4.0851,-4.082,-4.0827,-4.0809,-4.0797,-4.0777,-4.072,-4.0654,-4.06,-4.0576,-4.0561,-4.0573,-4.058,-4.0573,-4.0565,-4.0523,-4.0496,-4.0496,-4.0496,-4.0496,-4.0496,-4.0496,-4.0496,-4.0496,-4.0496,-4.045,-4.0454,-4.0142,-3.973,-3.9871,-3.9791,-3.9557,-3.978,-4.0002,-4.0176,-4.0234,-4.0272,-4.0301,-4.032,-4.031,-4.032,-4.031,-4.032,-4.0338,-4.0423,-4.0547,-4.0651,-4.0537,-4.0479,-4.0461,-4.0443,-4.0386,-4.032,-4.0301,-4.0301,-4.0263,-4.0253,-4.0215,-4.0157,-4.0077,-3.9996,-3.9943,-3.99,-3.99,-3.99,-3.99,-3.99,-3.99,-3.99,-3.99,-3.99,-3.99,-3.99,-3.99,-3.99,-3.99,-3.99,-3.9859,-3.9663,-3.9464,-3.9171,-3.8872,-3.8491,-3.8272,-3.8242,-3.8241,-3.8289,-3.8385,-3.8465,-3.8578,-3.8676,-3.8728,-3.9019,-4.6216,-4.6199,-4.6199,-4.6199,-4.6098,-4.5484,-4.4863,-4.4273,-4.3141,-4.2119,-4.1693,-4.1089,-4.0839,-4.0803,-4.0796,-4.0806,-4.0842,-4.0864,-4.0864,-4.0878,-4.0883,-4.0842,-4.0831,-4.0803,-4.0797,-4.0797,-4.079,-4.0752,-4.07,-4.0621,-4.0586,-4.0595,-4.0576,-4.0583,-4.0588,-4.0588,-4.0546,-4.0523,-4.0496,-4.0496,-4.0496,-4.0496,-4.0496,-4.0496,-4.0496,-4.0496,-4.0496,-4.0496,-4.05,-4.0365,-4.0242,-4.035,-4.0323,-4.0172,-4.0238,-4.0233,-4.0291,-4.0301,-4.031,-4.0319,-4.0309,-4.0338,-4.0346,-4.0337,-4.0328,-4.0452,-4.0641,-4.0889,-4.1185,-4.1224,-4.1062,-4.0968,-4.0691,-4.0396,-4.0339,-4.0301,-4.0301,-4.0301,-4.0272,-4.0206,-4.0147,-4.0067,-3.9996,-3.9943,-3.99,-3.99,-3.99,-3.99,-3.99,-3.99,-3.99,-3.99,-3.99,-3.99,-3.99,-3.99,-3.99,-3.99,-3.99,-3.9848,-3.9705,-3.9464,-3.9163,-3.8799,-3.843,-3.829,-3.8209,-3.8241,-3.8256,-3.8322,-3.8385,-3.8515,-3.8645,-3.8695,-3.8982,-4.6209,-4.6137,-4.5792,-4.5457,-4.5092,-4.4866,-4.4544,-4.3957,-4.2715,-4.1987,-4.1548,-4.1019,-4.0802,-4.0797,-4.0797,-4.0796,-4.0812,-4.0828,-4.0848,-4.084,-4.0858,-4.0834,-4.0802,-4.0797,-4.0797,-4.079,-4.0778,-4.0733,-4.068,-4.0626,-4.0591,-4.0579,-4.0593,-4.0591,-4.0588,-4.0573,-4.0539,-4.0523,-4.0496,-4.0496,-4.0496,-4.0496,-4.0496,-4.0496,-4.0496,-4.0496,-4.0496,-4.0496,-4.0496,-4.0496,-4.0496,-4.05,-4.0476,-4.0394,-4.0335,-4.032,-4.031,-4.0319,-4.0309,-4.0345,-4.0345,-4.0364,-4.0391,-4.0621,-4.0812,-4.1041,-4.1231,-4.1459,-4.1825,-4.2046,-4.178,-4.1503,-4.0931,-4.0406,-4.0358,-4.032,-4.032,-4.032,-4.0273,-4.0215,-4.0137,-4.0057,-3.9975,-3.9933,-3.99,-3.99,-3.99,-3.99,-3.99,-3.99,-3.99,-3.99,-3.99,-3.99,-3.99,-3.99,-3.99,-3.99,-3.99,-3.9826,-3.9724,-3.9389,-3.8985,-3.8688,-3.8401,-3.829,-3.8209,-3.8209,-3.8241,-3.8289,-3.8352,-3.8483,-3.8611,-3.8692,-3.9093,-4.6196,-4.6111,-4.5176,-4.4351,-4.3577,-4.4153,-4.3878,-4.3066,-4.2283,-4.1657,-4.1053,-4.0851,-4.08,-4.0803,-4.0797,-4.0797,-4.0808,-4.0809,-4.0815,-4.0803,-4.0815,-4.0798,-4.0796,-4.0797,-4.0784,-4.0778,-4.0765,-4.0733,-4.064,-4.0612,-4.0586,-4.0588,-4.0591,-4.0588,-4.0554,-4.0539,-4.0504,-4.0496,-4.0496,-4.0496,-4.0496,-4.0496,-4.0496,-4.0496,-4.0496,-4.0496,-4.0496,-4.0496,-4.0496,-4.0496,-4.0489,-4.0492,-4.0455,-4.0396,-4.0336,-4.0328,-4.0327,-4.0308,-4.0326,-4.0362,-4.0379,-4.0407,-4.0415,-4.0712,-4.0931,-4.1323,-4.1552,-4.2349,-4.282,-4.2601,-4.2325,-4.2001,-4.1514,-4.075,-4.0339,-4.032,-4.032,-4.0301,-4.0282,-4.0225,-4.0147,-4.0067,-3.9996,-3.9943,-3.99,-3.99,-3.99,-3.99,-3.99,-3.99,-3.99,-3.99,-3.99,-3.99,-3.99,-3.99,-3.99,-3.99,-3.99,-3.977,-3.9623,-3.9248,-3.8803,-3.8523,-3.8307,-3.8276,-3.8209,-3.8209,-3.8224,-3.8289,-3.837,-3.8467,-3.8564,-3.8627,-3.9111,-4.6181,-4.6033,-4.5128,-4.4208,-4.3377,-4.2906,-4.2251,-4.1396,-4.1234,-4.1369,-4.1538,-4.1099,-4.0796,-4.0797,-4.0797,-4.0797,-4.0809,-4.0806,-4.0806,-4.0814,-4.0798,-4.0806,-4.0803,-4.079,-4.0778,-4.0746,-4.0739,-4.0733,-4.0661,-4.0607,-4.0598,-4.0583,-4.0588,-4.058,-4.0531,-4.0496,-4.0496,-4.0496,-4.0496,-4.0496,-4.0496,-4.0496,-4.0496,-4.0496,-4.0496,-4.0496,-4.0496,-4.0496,-4.0496,-4.0496,-4.0496,-4.0492,-4.0482,-4.0405,-4.0353,-4.0326,-4.0363,-4.0353,-4.0342,-4.0396,-4.043,-4.0449,-4.0496,-4.0589,-4.0866,-4.1393,-4.2134,-4.3105,-4.3586,-4.3242,-4.2784,-4.2451,-4.1934,-4.1074,-4.032,-4.032,-4.032,-4.0301,-4.0291,-4.0225,-4.0147,-4.0077,-4.0026,-3.9965,-3.9911,-3.99,-3.99,-3.99,-3.99,-3.99,-3.99,-3.99,-3.99,-3.99,-3.99,-3.99,-3.99,-3.99,-3.99,-3.9728,-3.952,-3.9031,-3.8569,-3.8385,-3.8209,-3.8209,-3.8209,-3.8209,-3.8224,-3.8272,-3.8322,-3.8403,-3.8451,-3.8515,-3.9069,-4.6089,-4.5945,-4.5068,-4.3945,-4.2832,-4.2245,-4.1582,-4.0893,-4.0797,-4.1048,-4.1371,-4.1009,-4.0797,-4.0797,-4.0797,-4.0797,-4.0803,-4.0808,-4.0802,-4.0802,-4.0802,-4.0802,-4.0803,-4.079,-4.0771,-4.0733,-4.0707,-4.0674,-4.0648,-4.0621,-4.0593,-4.0595,-4.0588,-4.0565,-4.0496,-4.0496,-4.0496,-4.0496,-4.0496,-4.0496,-4.0496,-4.0496,-4.0496,-4.0496,-4.0496,-4.0496,-4.0496,-4.0496,-4.0496,-4.0473,-4.0449,-4.0479,-4.0466,-4.0415,-4.0362,-4.037,-4.0407,-4.0432,-4.0413,-4.0438,-4.0479,-4.0499,-4.0941,-4.1187,-4.2061,-4.258,-4.2746,-4.3679,-4.4479,-4.4317,-4.3158,-4.2594,-4.1724,-4.0845,-4.0435,-4.032,-4.032,-4.032,-4.0244,-4.0157,-4.0087,-4.0057,-3.9986,-3.9933,-3.99,-3.99,-3.99,-3.99,-3.99,-3.99,-3.99,-3.99,-3.99,-3.99,-3.99,-3.99,-3.99,-3.99,-3.987,-3.963,-3.9356,-3.8796,-3.8372,-3.8457,-3.8408,-3.8209,-3.8209,-3.8355,-3.8278,-3.8256,-3.8289,-3.8322,-3.837,-3.8547,-3.9298,-4.5938,-4.5728,-4.4876,-4.3556,-4.2112,-4.1854,-4.1429,-4.0874,-4.0797,-4.0797,-4.0874,-4.0835,-4.0797,-4.0797,-4.0797,-4.0797,-4.0797,-4.0809,-4.0797,-4.0797,-4.0797,-4.0803,-4.0803,-4.079,-4.0771,-4.0733,-4.0694,-4.0668,-4.0641,-4.0621,-4.0593,-4.0583,-4.058,-4.0565,-4.0523,-4.0496,-4.0496,-4.0496,-4.0496,-4.0496,-4.0496,-4.0496,-4.0496,-4.0496,-4.0496,-4.0496,-4.0496,-4.0496,-4.0496,-4.0484,-4.0452,-4.0463,-4.0455,-4.0422,-4.0405,-4.0405,-4.0466,-4.0482,-4.0482,-4.0476,-4.05,-4.0681,-4.1393,-4.2104,-4.2893,-4.3404,-4.3579,-4.4063,-4.4882,-4.4681,-4.3542,-4.2623,-4.1695,-4.075,-4.0492,-4.032,-4.032,-4.0301,-4.0225,-4.0118,-4.0087,-4.0046,-3.9975,-3.9922,-3.99,-3.99,-3.99,-3.99,-3.99,-3.99,-3.99,-3.99,-3.99,-3.99,-3.99,-3.99,-3.99,-3.9826,-3.9751,-3.9496,-3.9235,-3.8967,-3.8816,-3.8858,-3.8753,-3.8826,-3.8699,-3.8771,-3.8623,-3.8511,-3.8602,-3.871,-3.8523,-3.8826,-3.9635,-4.5581,-4.487,-4.395,-4.295,-4.199,-4.1313,-4.0945,-4.0835,-4.0797,-4.0797,-4.0797,-4.0797,-4.0797,-4.0797,-4.0797,-4.0797,-4.0797,-4.0797,-4.0797,-4.0797,-4.0797,-4.0797,-4.079,-4.0784,-4.081,-4.0752,-4.0707,-4.0707,-4.0661,-4.0621,-4.0588,-4.0586,-4.0519,-4.0523,-4.0496,-4.0496,-4.0496,-4.0496,-4.0496,-4.0496,-4.0496,-4.0496,-4.0496,-4.0496,-4.0496,-4.0496,-4.0496,-4.0496,-4.0496,-4.0492,-4.0507,-4.0499,-4.0479,-4.0463,-4.0447,-4.0455,-4.0495,-4.0487,-4.0503,-4.05,-4.0508,-4.0785,-4.145,-4.2066,-4.2893,-4.3778,-4.4002,-4.4313,-4.4757,-4.4413,-4.3503,-4.2967,-4.2125,-4.0979,-4.032,-4.032,-4.032,-4.0301,-4.0263,-4.0206,-4.0176,-4.0108,-4.0046,-3.9986,-3.9933,-3.9922,-3.99,-3.99,-3.99,-3.99,-3.99,-3.99,-3.99,-3.99,-3.99,-3.99,-3.987,-3.9785,-3.9717,-3.9589,-3.9494,-3.9412,-3.9347,-3.9459,-3.9749,-3.9948,-3.9767,-3.9351,-3.9278,-3.9204,-3.9205,-3.9186,-3.8965,-3.9196,-4.008]},{"header":{"parameterUnit":"m.s-1","parameterCategory":1,"la1":31.0,"la2":29.5877,"lo1":-88.7671,"lo2":-86.6584,"dy":0.0162,"dx":0.0185,"nx":115,"ny":88,"refTime":"2024-07-21T12:00:00:Z","depth":0,"parameterNumber":3,"parameterNumberName":"V-component_of_WINDS"},"data":[0.0,0.0,0.0,0.0,0.0,0.0,0.0,0.0,0.0,0.0,0.0,0.0,0.0,0.0,0.0,0.0,0.0,0.0,0.0,0.0,0.0,0.0,0.0,0.0,0.0,0.0,0.0,0.0,0.0,0.0,0.0,0.0,0.0,0.0,0.0,0.0,0.0,0.0,0.0,0.0,0.0,0.0,0.0,0.0,0.0,0.0,0.0,0.0,0.0,0.0,0.0,0.0,0.0,0.0,0.0,0.0,0.0,0.0,0.0,0.0,0.0,0.0,0.0,0.0,0.0,0.0,0.0,0.0,0.0,0.0,0.0,0.0,0.0,0.0,0.0,0.0,0.0,0.0,0.0,0.0,0.0,0.0,0.0,0.0,0.0,0.0,0.0,0.0,0.0,0.0,0.0,0.0,0.0,0.0,0.0,0.0,0.0,0.0,0.0,0.0,0.0,0.0,0.0,0.0,0.0,0.0,0.0,0.0,0.0,0.0,0.0,0.0,0.0,0.0,0.0,0.0,0.0,0.0,0.0,0.0,0.0,0.0,0.0,0.0,0.0,0.0,0.0,0.0,0.0,0.0,0.0,0.0,0.0,0.0,0.0,0.0,0.0,0.0,0.0,0.0,0.0,0.0,0.0,0.0,0.0,0.0,0.0,0.0,0.0,0.0,0.0,0.0,0.0,0.0,0.0,0.0,0.0,0.0,0.0,0.0,0.0,0.0,0.0,0.0,0.0,0.0,0.0,0.0,0.0,0.0,0.0,0.0,0.0,0.0,0.0,0.0,0.0,0.0,0.0,0.0,0.0,0.0,0.0,0.0,0.0,0.0,0.0,0.0,0.0,0.0,0.0,0.0,0.0,0.0,0.0,0.0,0.0,0.0,0.0,0.0,0.0,0.0,0.0,0.0,0.0,0.0,0.0,0.0,0.0,0.0,0.0,0.0,0.0,0.0,0.0,0.0,0.0,0.0,0.0,0.0,0.0,0.0,0.0,0.0,0.0,0.0,0.0,0.0,0.0,0.0,0.0,0.0,0.0,0.0,0.0,0.0,0.0,0.0,0.0,0.0,0.0,0.0,0.0,0.0,0.0,0.0,0.0,0.0,0.0,0.0,0.0,0.0,0.0,0.0,0.0,0.0,0.0,0.0,0.0,0.0,0.0,0.0,0.0,0.0,0.0,0.0,0.0,0.0,0.0,0.0,0.0,0.0,0.0,0.0,0.0,0.0,0.0,0.0,0.0,0.0,0.0,0.0,0.0,0.0,0.0,0.0,0.0,0.0,0.0,0.0,0.0,0.0,0.0,0.0,0.0,0.0,0.0,0.0,0.0,0.0,0.0,0.0,0.0,0.0,0.0,0.0,0.0,0.0,0.0,0.0,0.0,0.0,0.0,0.0,0.0,0.0,0.0,0.0,0.0,0.0,0.0,0.0,0.0,0.0,0.0,0.0,0.0,0.0,0.0,0.0,0.0,0.0,0.0,0.0,0.0,0.0,0.0,0.0,0.0,0.0,0.0,0.0,0.0,0.0,0.0,0.0,0.0,0.0,0.0,0.0,0.0,0.0,0.0,0.0,0.0,0.0,0.0,0.0,0.0,0.0,0.0,0.0,0.0,0.0,0.0,0.0,0.0,0.0,0.0,0.0,0.0,0.0,0.0,0.0,0.0,0.0,0.0,0.0,0.0,0.0,0.0,0.0,0.0,0.0,0.0,0.0,0.0,0.0,0.0,0.0,0.0,0.0,0.0,0.0,0.0,0.0,0.0,0.0,0.0,0.0,0.0,0.0,0.0,0.0,0.0,0.0,0.0,0.0,0.0,0.0,0.0,0.0,0.0,0.0,0.0,0.0,0.0,0.0,0.0,0.0,0.0,0.0,0.0,0.0,0.0,0.0,0.0,0.0,0.0,0.0,0.0,0.0,0.0,0.0,0.0,0.0,0.0,0.0,0.0,0.0,0.0,0.0,0.0,0.0,0.0,0.0,0.0,0.0,0.0,0.0,0.0,0.0,0.0,0.0,0.0,0.0,0.0,0.0,0.0,0.0,0.0,0.0,0.0,0.0,0.0,0.0,0.0,0.0,0.0,0.0,0.0,0.0,0.0,0.0,0.0,0.0,0.0,0.0,0.0,0.0,0.0,0.0,0.0,0.0,0.0,0.0,0.0,0.0,0.0,0.0,0.0,0.0,0.0,0.0,0.0,0.0,0.0,0.0,0.0,0.0,0.0,0.0,0.0,0.0,0.0,0.0,0.0,0.0,0.0,0.0,0.0,0.0,0.0,0.0,0.0,0.0,0.0,0.0,0.0,0.0,0.0,0.0,0.0,0.0,0.0,0.0,0.0,0.0,0.0,0.0,0.0,0.0,0.0,0.0,0.0,0.0,0.0,0.0,0.0,0.0,0.0,0.0,0.0,0.0,0.0,0.0,0.0,0.0,0.0,0.0,0.0,0.0,0.0,0.0,0.0,0.0,0.0,0.0,0.0,0.0,0.0,0.0,0.0,0.0,0.0,0.0,0.0,0.0,0.0,0.0,0.0,0.0,0.0,0.0,0.0,0.0,0.0,0.0,0.0,0.0,0.0,0.0,0.0,0.0,0.0,0.0,0.0,0.0,0.0,0.0,0.0,0.0,0.0,0.0,0.0,0.0,0.0,0.0,0.0,0.0,0.0,0.0,0.0,0.0,0.0,0.0,0.0,0.0,0.0,0.0,0.0,0.0,0.0,0.0,0.0,0.0,0.0,0.0,0.0,0.0,0.0,0.0,0.0,0.0,0.0,0.0,0.0,0.0,0.0,0.0,0.0,0.0,0.0,0.0,0.0,0.0,0.0,0.0,0.0,0.0,0.0,0.0,0.0,0.0,0.0,0.0,0.0,0.0,0.0,0.0,0.0,0.0,0.0,0.0,0.0,0.0,0.0,0.0,0.0,0.0,0.0,0.0,0.0,0.0,0.0,0.0,0.0,0.0,0.0,0.0,0.0,0.0,0.0,0.0,0.0,0.0,0.0,0.0,0.0,0.0,0.0,0.0,0.0,0.0,0.0,0.0,0.0,0.0,0.0,0.0,0.0,0.0,0.0,0.0,0.0,0.0,0.0,0.0,0.0,0.0,0.0,0.0,0.0,0.0,0.0,0.0,0.0,0.0,0.0,0.0,0.0,0.0,0.0,0.0,0.0,0.0,0.0,0.0,0.0,0.0,0.0,0.0,0.0,0.0,0.0,0.0,0.0,0.0,0.0,0.0,0.0,0.0,0.0,0.0,0.0,0.0,0.0,0.0,0.0,0.0,0.0,0.0,0.0,0.0,0.0,0.0,0.0,0.0,0.0,0.0,0.0,0.0,0.0,0.0,0.0,0.0,0.0,0.0,0.0,0.0,0.0,0.0,0.0,0.0,0.0,0.0,0.0,0.0,0.0,0.0,0.0,0.0,0.0,0.0,0.0,0.0,0.0,0.0,0.0,0.0,0.0,0.0,0.0,0.0,0.0,0.0,0.0,0.0,0.0,0.0,0.0,0.0,0.0,0.0,0.0,0.0,0.0,0.0,0.0,0.0,0.0,0.0,0.0,0.0,0.0,0.0,0.0,0.0,0.0,0.0,0.0,0.0,0.0,0.0,0.0,0.0,0.0,0.0,0.0,0.0,0.0,0.0,0.0,0.0,0.0,0.0,0.0,0.0,0.0,0.0,0.0,0.0,0.0,0.0,0.0,0.0,0.0,0.0,0.0,0.0,0.0,0.0,0.0,0.0,0.0,0.0,0.0,0.0,0.0,0.0,0.0,0.0,0.0,0.0,0.0,0.0,0.0,0.0,0.0,0.0,0.0,0.0,0.0,0.0,0.0,0.0,0.0,0.0,0.0,0.0,0.0,0.0,0.0,0.0,0.0,0.0,0.0,0.0,0.0,0.0,0.0,0.0,0.0,0.0,0.0,0.0,0.0,0.0,0.0,0.0,0.0,0.0,0.0,0.0,0.0,0.0,0.0,0.0,0.0,0.0,0.0,0.0,0.0,0.0,0.0,0.0,0.0,0.0,0.0,0.0,0.0,0.0,0.0,0.0,0.0,0.0,0.0,0.0,0.0,0.0,0.0,0.0,0.0,0.0,0.0,0.0,0.0,0.0,0.0,0.0,0.0,0.0,0.0,0.0,0.0,0.0,0.0,0.0,0.0,0.0,0.0,0.0,0.0,0.0,0.0,0.0,0.0,0.0,0.0,0.0,0.0,0.0,0.0,0.0,0.0,0.0,0.0,0.0,0.0,0.0,0.0,0.0,0.0,0.0,0.0,0.0,0.8914,0.0,0.0,0.0,0.0,0.0,0.0,0.0,0.0,0.0,0.0,0.0,0.0,0.0,0.0,0.0,0.0,0.0,0.0,0.0,0.0,0.0,0.0,0.0,0.0,0.0,0.0,0.0,0.0,0.0,0.0,0.0,0.0,0.0,0.0,0.0,0.0,0.0,0.0,0.0,0.0,0.0,0.0,0.0,0.0,0.0,0.0,0.0,0.0,0.0,0.0,0.0,0.0,0.0,0.0,0.0,0.0,0.0,0.0,0.0,0.0,0.0,0.0,0.0,0.0,0.0,0.0,0.0,0.0,0.0,0.0,0.0,0.0,0.0,0.0,0.0,0.0,0.0,0.0,0.0,0.0,0.0,0.0,0.0,0.0,0.0,0.0,0.0,0.0,0.0,0.0,0.0,0.0,0.0,0.0,0.0,0.0,0.0,0.0,0.0,0.0,0.0,0.0,0.0,0.0,0.0,0.0,0.0,0.0,0.0,0.0,0.8467,0.8792,0.8817,0.8857,0.8908,0.0,0.0,0.0,0.0,0.0,0.0,0.0,0.0,0.0,0.0,0.0,0.0,0.0,0.0,0.0,0.0,0.0,0.0,0.0,0.0,0.0,0.0,0.0,0.0,0.0,0.0,0.0,0.0,0.0,0.0,0.0,0.0,0.0,0.0,0.0,0.0,0.0,0.0,0.0,0.0,0.0,0.0,0.0,0.0,0.0,0.0,0.0,0.0,0.0,0.0,0.0,0.0,0.0,0.0,0.0,0.0,0.0,0.0,0.0,0.0,0.0,0.0,0.0,0.0,0.0,0.0,0.0,0.0,0.0,0.0,0.0,0.0,0.0,0.0,0.0,0.0,0.0,0.0,0.0,0.0,0.0,0.0,0.0,0.0,0.0,0.0,0.0,0.0,0.0,0.0,0.0,0.0,0.0,0.0,0.0,0.0,0.0,0.0,0.0,0.0,0.0,0.0,0.0,0.0,0.0,0.0,0.0,0.0,0.0,0.0,0.0,0.0,0.9325,0.9355,0.9404,0.0,0.0,0.0,0.0,0.0,0.0,0.0,0.0,0.0,0.0,0.0,0.0,0.0,0.0,0.0,0.0,0.0,0.0,0.0,0.0,0.0,0.0,0.0,0.0,0.0,0.0,0.0,0.0,0.0,0.0,0.0,0.0,0.0,0.0,0.0,0.0,0.0,0.0,0.0,0.0,0.0,0.0,0.0,0.0,0.0,0.0,0.0,0.0,0.0,0.0,0.0,0.0,0.0,0.0,0.0,0.0,0.0,0.0,0.0,0.0,0.0,0.0,0.0,0.0,0.0,0.0,0.0,0.0,0.0,0.0,0.0,0.0,0.0,0.0,0.0,0.0,0.0,0.0,0.0,0.0,0.0,0.0,0.0,0.0,0.0,0.0,0.0,0.0,0.0,0.0,0.0,0.0,0.0,0.0,0.0,0.0,0.0,0.0,0.0,0.0,0.0,0.0,0.0,0.0,0.0,0.0,0.0,0.0,0.0,0.0,0.93,1.0854,1.0878,0.0,1.0883,0.0,0.0,0.0,0.0,0.0,0.0,0.0,0.0,0.0,0.0,0.0,0.0,0.0,0.0,0.0,0.0,0.0,0.0,0.0,0.0,0.0,0.0,0.0,0.0,0.0,0.0,0.0,0.0,0.0,0.0,0.0,0.0,0.0,0.0,0.0,0.0,0.0,0.0,0.0,0.0,0.0,0.0,0.0,0.0,0.0,0.0,0.0,0.0,0.0,0.0,0.0,0.0,0.0,0.0,0.0,0.0,0.0,0.0,0.0,0.0,0.0,0.0,0.0,0.0,0.0,0.0,0.0,0.0,0.0,0.0,0.0,0.0,0.0,0.0,0.0,0.0,0.0,0.0,0.0,0.0,0.0,0.0,0.0,0.0,0.0,0.0,0.0,0.0,0.0,0.0,0.0,0.0,0.0,0.0,0.0,0.0,0.0,0.0,0.0,0.0,0.0,0.0,0.0,0.0,0.0,0.0,0.0,0.0,0.0,0.0,0.0,1.1028,1.1073,1.0892,0.0,0.0,0.0,0.0,0.0,0.0,0.0,0.0,0.0,0.0,0.0,0.0,0.0,0.0,0.0,0.0,0.0,0.0,0.0,0.0,0.0,0.0,0.0,0.0,0.0,0.0,0.0,0.0,0.0,0.0,0.0,0.0,0.0,0.0,0.0,0.0,0.0,0.0,0.0,0.0,0.0,0.0,0.0,0.0,0.0,0.0,0.0,0.0,0.0,0.0,0.0,0.0,0.0,0.0,0.0,0.0,0.0,0.0,0.0,0.0,0.0,0.0,0.0,0.0,0.0,0.0,0.0,0.0,0.0,0.0,0.0,0.0,0.0,0.0,0.0,0.0,0.0,0.0,0.0,0.0,0.0,0.0,0.0,0.0,0.0,0.0,0.0,0.0,0.0,0.0,0.0,0.0,0.0,0.0,0.0,0.0,0.0,0.0,0.0,0.0,0.0,0.0,0.0,0.0,0.0,0.0,0.0,0.0,0.0,0.0,1.0577,0.0,1.1606,1.1307,1.0855,1.0311,0.0,0.0,0.0,0.0,0.0,0.0,0.0,0.0,0.0,0.0,0.0,0.0,0.0,0.0,0.0,0.0,0.0,0.0,0.0,0.0,0.0,0.0,0.0,0.0,0.0,0.0,0.0,0.0,0.0,0.0,0.0,0.0,0.0,0.0,0.0,0.0,0.0,0.0,0.0,0.0,0.0,0.0,0.0,0.0,0.0,0.0,0.0,0.0,0.0,0.0,0.0,0.0,0.0,0.0,0.0,0.0,0.0,0.0,0.0,0.0,0.0,0.0,0.0,0.0,0.0,0.0,0.0,0.0,0.0,0.0,0.0,0.0,0.0,0.0,0.0,0.0,0.0,0.0,0.0,0.0,0.0,0.0,0.0,0.0,0.0,0.0,0.0,0.0,0.0,0.0,0.0,0.0,0.0,0.0,0.0,0.0,0.0,0.0,0.0,0.0,0.0,0.0,0.0,0.0,0.0,0.0,0.0,0.0,0.0,1.1646,1.1731,1.3168,1.1874,1.1079,0.0,0.0,0.0,0.0,0.0,0.0,0.0,0.0,0.0,0.0,0.0,0.0,0.0,0.0,0.0,0.0,0.0,0.0,0.0,0.0,0.0,0.0,0.0,0.0,0.0,0.0,0.0,0.0,0.0,0.0,0.0,0.0,0.0,0.0,0.0,0.0,0.0,0.0,0.0,0.0,0.0,0.0,0.0,0.0,0.0,0.0,0.0,0.0,0.0,0.0,0.0,0.0,0.0,0.0,0.0,0.0,0.0,0.0,0.0,0.0,0.0,0.0,0.0,0.0,0.0,0.0,0.0,0.0,0.0,0.0,0.0,0.0,0.0,0.0,0.0,0.0,0.0,0.0,0.0,0.0,0.0,0.0,0.0,0.0,0.0,0.0,0.0,0.0,0.0,0.0,0.0,0.0,0.0,0.0,0.0,0.0,0.0,0.0,0.0,0.0,0.0,0.0,0.0,0.0,0.0,0.0,0.0,0.0,0.0,1.0333,1.0807,1.1843,1.3399,1.1958,1.1158,0.0,0.0,0.0,0.0,0.0,0.0,0.0,0.0,0.0,0.0,0.0,0.0,0.0,0.0,0.0,0.0,0.0,0.0,0.0,0.0,0.0,0.0,0.0,0.0,0.0,0.0,0.0,0.0,0.0,0.0,0.0,0.0,0.0,0.0,0.0,0.0,0.0,0.0,0.0,0.0,0.0,0.0,0.0,0.0,0.0,0.0,0.0,0.0,0.0,0.0,0.0,0.0,0.0,0.0,0.0,0.0,0.0,0.0,0.0,0.0,0.0,0.0,0.0,0.0,0.0,0.0,0.0,0.0,0.0,0.0,0.0,0.0,0.0,0.0,0.0,0.0,0.0,0.0,0.0,0.0,0.0,0.0,0.0,0.0,0.0,0.0,0.0,0.0,0.0,0.0,0.0,0.0,0.0,0.0,0.0,0.0,0.0,0.0,0.0,0.0,0.0,0.0,0.0,0.0,0.0,0.0,0.0,0.0,0.0,0.9973,0.0,1.2346,0.0,1.1936,1.1041,0.0,0.0,0.0,0.0,0.0,0.0,0.0,0.0,0.0,0.0,0.0,0.0,0.0,0.0,0.0,0.0,0.0,0.0,0.0,0.0,0.0,0.0,0.0,0.0,0.0,0.0,0.0,0.0,0.0,0.0,0.0,0.0,0.0,0.0,0.0,0.0,0.0,0.0,0.0,0.0,0.0,0.0,0.0,0.0,0.0,0.0,0.0,0.0,0.0,0.0,0.0,0.0,0.0,0.0,0.0,0.0,0.0,0.0,0.0,0.0,0.0,0.0,0.0,0.0,0.0,0.0,0.0,0.0,0.0,0.0,0.0,0.0,0.0,0.0,0.0,0.0,0.0,0.0,0.0,0.0,0.0,0.0,0.0,0.0,0.0,0.0,0.0,0.0,0.0,0.0,0.0,0.0,0.0,0.0,0.0,0.0,0.0,0.0,0.0,0.0,0.0,0.0,0.0,0.0,0.0,0.0,0.0,0.0,0.9802,1.2214,1.302,1.3166,1.2631,1.1827,1.0706,0.0,0.0,0.0,0.0,0.0,0.0,0.0,0.0,0.0,0.0,0.0,0.0,0.0,0.0,0.0,0.0,0.0,0.0,0.0,0.0,0.0,0.0,0.0,0.0,0.0,0.0,0.0,0.0,0.0,0.0,0.0,0.0,0.0,0.0,0.0,0.0,0.0,0.0,0.0,0.0,0.0,0.0,0.0,0.0,0.0,0.0,0.0,0.0,0.0,0.0,0.0,0.0,0.0,0.0,0.0,0.0,0.0,0.0,0.0,0.0,0.0,0.0,0.0,0.0,0.0,0.0,0.0,0.0,0.0,0.0,0.0,0.0,0.0,0.0,0.0,0.0,0.0,0.0,0.0,0.0,0.0,0.0,0.0,0.0,0.0,0.0,0.0,0.0,0.0,0.0,0.0,0.0,0.0,0.0,0.0,0.0,0.0,0.0,0.0,0.0,0.0,0.0,0.0,0.0,0.0,0.0,0.0,0.0,0.0,1.0912,1.2278,1.3246,1.3616,1.1747,1.1007,0.0,0.0,0.0,0.0,0.0,0.0,0.0,0.0,0.0,0.0,0.0,0.0,0.0,0.0,0.0,0.0,0.0,0.0,0.0,0.0,0.0,0.0,0.0,0.0,0.0,0.0,0.0,0.0,0.0,0.0,0.0,0.0,0.0,0.0,0.0,0.0,0.0,0.0,0.0,0.0,0.0,0.0,0.0,0.0,0.0,0.0,0.0,0.0,0.0,0.0,0.0,0.0,0.0,0.0,0.0,0.0,0.0,0.0,0.0,0.0,0.0,0.0,0.0,0.0,0.0,0.0,0.0,0.0,0.0,0.0,0.0,0.0,0.0,0.0,0.0,0.0,0.0,0.0,0.0,0.0,0.0,0.0,0.0,0.0,0.0,0.0,0.0,0.0,0.0,0.0,0.0,0.0,0.0,0.0,0.0,0.0,0.0,0.0,0.0,0.0,0.0,0.0,0.0,0.0,0.0,0.0,0.0,0.0,0.0,1.2635,1.3913,1.4641,1.4673,1.2817,1.1848,1.1925,0.0,0.0,0.0,0.0,0.0,0.0,0.0,0.0,0.0,0.0,0.0,0.0,0.0,0.0,0.0,0.0,0.0,0.0,0.0,0.0,0.0,0.0,0.0,0.0,0.0,0.0,0.0,0.0,0.0,0.0,0.0,0.0,0.0,0.0,0.0,0.0,0.0,0.0,0.0,0.0,0.0,0.0,0.0,0.0,0.0,0.0,0.0,0.0,0.0,0.0,0.0,0.0,0.0,0.0,0.0,0.0,0.0,0.0,0.0,0.0,0.0,0.0,0.0,0.0,0.0,0.0,0.0,0.0,0.0,0.0,0.0,0.0,0.0,0.0,0.0,0.0,0.0,0.0,0.0,0.0,0.0,0.0,0.0,0.0,0.0,0.0,0.0,0.0,0.0,0.0,0.0,0.0,0.0,0.0,0.0,0.0,0.0,0.0,0.0,0.0,0.0,0.0,0.0,0.0,0.0,0.0,0.0,0.0,1.6563,1.757,1.7421,1.5915,1.4878,1.3237,0.0,0.0,0.0,0.0,0.0,0.0,0.0,0.0,0.0,0.0,0.0,0.0,0.0,0.0,0.0,0.0,0.0,0.0,0.0,0.0,0.0,0.0,0.0,0.0,0.0,0.0,0.0,0.0,0.0,0.0,0.0,0.0,0.0,0.0,0.0,0.0,0.0,0.0,0.0,0.0,0.0,0.0,0.0,0.0,0.0,0.0,0.0,0.0,0.0,0.0,0.0,0.0,0.0,0.0,0.0,0.0,0.0,0.0,0.0,0.0,0.0,0.0,0.0,0.0,0.0,0.0,0.0,0.0,0.0,0.0,0.0,0.0,0.0,0.0,0.0,0.0,0.0,0.0,0.0,0.0,0.0,0.0,0.0,0.0,0.0,0.0,0.0,0.0,0.0,0.0,0.0,0.0,0.0,0.0,0.0,0.0,0.0,0.0,0.0,0.0,0.0,0.0,0.0,0.0,0.0,0.0,0.0,0.0,0.0,1.7479,2.1102,2.2072,1.9965,1.7424,1.5421,0.0,0.0,0.0,0.0,0.0,0.0,0.0,0.0,0.0,0.0,0.0,0.0,0.0,0.0,0.0,0.0,0.0,0.0,0.0,0.0,0.0,0.0,0.0,0.0,0.0,0.0,0.0,0.0,0.0,0.0,0.0,0.0,0.0,0.0,0.0,0.0,0.0,0.0,0.0,0.0,0.0,0.0,0.0,0.0,0.0,0.0,0.0,0.0,0.0,0.0,0.0,0.0,0.0,0.0,0.0,0.0,0.0,0.0,0.0,0.0,0.0,0.0,0.0,0.0,0.0,0.0,0.0,0.0,0.0,0.0,0.0,0.0,0.0,0.0,0.0,0.0,0.0,0.0,0.0,0.0,0.0,0.0,0.0,0.0,0.0,0.0,0.0,0.0,0.0,0.0,0.0,0.0,0.0,0.0,0.0,0.0,0.0,0.0,0.0,0.0,0.0,0.0,0.0,0.0,0.0,0.0,0.0,0.0,1.8101,1.9804,2.3862,2.5371,2.402,2.0572,1.7669,0.0,0.0,0.0,0.0,0.0,0.0,0.0,0.0,0.0,0.0,0.0,0.0,0.0,0.0,0.0,0.0,0.0,0.0,0.0,0.0,0.0,0.0,0.0,0.0,0.0,0.0,0.0,0.0,0.0,0.0,0.0,0.0,0.0,0.0,0.0,0.0,0.0,0.0,0.0,0.0,0.0,0.0,0.0,0.0,0.0,0.0,0.0,0.0,0.0,0.0,0.0,0.0,0.0,0.0,0.0,0.0,0.0,0.0,0.0,0.0,0.0,0.0,0.0,0.0,0.0,0.0,0.0,0.0,0.0,0.0,0.0,0.0,0.0,0.0,0.0,0.0,0.0,0.0,0.0,0.0,0.0,0.0,0.0,0.0,0.0,0.0,0.0,0.0,0.0,0.0,0.0,0.0,0.0,0.0,0.0,0.0,0.0,0.0,0.0,0.0,0.0,0.0,0.0,0.0,0.0,0.0,0.0,0.0,2.0031,2.2652,2.5866,2.7514,2.7405,2.3694,1.9821,0.0,0.0,0.0,0.0,0.0,0.0,0.0,0.0,0.0,0.0,0.0,0.0,0.0,0.0,0.0,0.0,0.0,0.0,0.0,0.0,0.0,0.0,0.0,0.0,0.0,0.0,0.0,0.0,0.0,0.0,0.0,0.0,0.0,0.0,0.0,0.0,0.0,0.0,0.0,0.0,0.0,0.0,0.0,0.0,0.0,0.0,0.0,0.0,0.0,0.0,0.0,0.0,0.0,0.0,0.0,0.0,0.0,0.0,0.0,0.0,0.0,0.0,0.0,0.0,0.0,0.0,0.0,0.0,0.0,0.0,0.0,0.0,0.0,0.0,0.0,0.0,0.0,0.0,0.0,0.0,0.0,0.0,0.0,0.0,0.0,0.0,0.0,0.0,0.0,0.0,0.0,0.0,0.0,0.0,0.0,0.0,0.0,0.0,0.0,0.0,0.0,0.0,0.0,0.0,0.0,0.0,0.0,0.0,2.0729,2.2689,2.6391,2.8346,2.8328,2.4509,2.116,0.0,0.0,0.0,0.0,0.0,0.0,0.0,0.0,0.0,0.0,0.0,0.0,0.0,0.0,0.0,0.0,0.0,0.0,0.0,0.0,0.0,0.0,0.0,0.0,0.0,0.0,0.0,0.0,0.0,0.0,0.0,0.0,0.0,0.0,0.0,0.0,0.0,0.0,0.0,0.0,0.0,0.0,0.0,0.0,0.0,0.0,0.0,0.0,1.2039,0.0,0.0,0.0,0.0,0.0,0.0,0.0,0.0,0.0,0.0,0.0,0.0,0.0,0.0,0.0,0.0,0.0,0.0,0.0,0.0,0.0,0.0,0.0,0.0,0.0,0.0,0.0,0.0,0.0,0.0,0.0,0.0,0.0,0.0,0.0,0.0,0.0,0.0,0.0,0.0,0.0,0.0,0.0,0.0,0.0,0.0,0.0,0.0,0.0,0.0,0.0,0.0,0.0,0.0,0.0,0.0,0.0,0.0,0.0,2.2417,2.4658,2.7446,2.8909,2.8828,2.5807,2.2713,0.0,0.0,0.0,0.0,0.0,0.0,0.0,0.0,0.0,0.0,0.0,0.0,0.0,0.0,0.0,0.0,0.0,0.0,0.0,0.0,0.0,0.0,0.0,0.0,0.0,0.0,0.0,0.0,0.0,0.0,0.0,0.0,0.0,0.0,0.0,0.0,0.0,0.0,0.0,0.0,0.0,0.0,0.0,0.0,0.0,0.0,0.0,0.0,0.0,0.0,0.0,0.0,0.0,0.0,0.0,0.0,0.0,0.0,0.0,0.0,0.0,0.0,0.0,0.0,0.0,0.0,0.0,0.0,0.0,0.0,0.0,0.0,0.0,0.0,0.0,0.0,0.0,0.0,0.0,0.0,0.0,0.0,0.0,0.0,0.0,0.0,0.0,0.0,0.0,0.0,0.0,0.0,0.0,0.0,0.0,0.0,0.0,0.0,0.0,0.0,0.0,0.0,0.0,0.0,0.0,0.0,0.0,2.0516,2.3888,2.6934,2.8513,2.9304,2.9266,2.6963,2.4013,2.0479,0.0,0.0,0.0,0.0,0.0,0.0,0.0,0.0,0.0,0.0,0.0,0.0,0.0,0.0,0.0,0.0,0.0,0.0,0.0,0.0,0.0,0.0,0.0,0.0,0.0,0.0,0.0,0.0,0.0,0.0,0.0,0.0,0.0,0.0,0.0,0.0,0.0,0.0,1.0249,1.1173,0.0,0.0,0.0,0.0,0.0,0.0,0.0,0.0,1.3234,0.0,0.0,0.0,0.0,0.0,0.0,0.0,0.0,0.0,0.0,0.0,0.0,0.0,0.0,0.0,0.0,0.0,0.0,0.0,0.0,0.0,0.0,0.0,0.0,0.0,0.0,0.0,0.0,0.0,0.0,0.0,0.0,0.0,0.0,0.0,0.0,0.0,0.0,0.0,0.0,0.0,0.0,0.0,0.0,0.0,0.0,0.0,0.0,0.0,0.0,0.0,0.0,0.0,0.0,0.0,0.0,1.9167,2.0369,2.3106,2.754,2.8727,2.9304,2.9229,2.6907,2.4055,2.074,0.0,0.0,0.0,0.0,0.0,0.0,0.0,0.0,0.0,0.0,0.0,0.0,0.0,0.0,0.0,0.0,0.0,0.0,0.0,0.0,0.0,0.0,0.0,0.0,0.0,0.0,0.0,0.0,0.0,0.0,0.0,0.0,0.0,0.0,0.0,0.0,0.0,0.0,0.0,1.3937,1.466,0.0,0.0,0.0,0.0,0.0,0.0,0.0,0.0,1.4464,0.0,0.0,0.0,0.0,0.0,0.0,0.0,0.0,0.0,0.0,0.0,0.0,0.0,0.0,0.0,0.0,0.0,0.0,0.0,0.0,0.0,0.0,0.0,0.0,0.0,0.0,0.0,0.0,0.0,0.0,0.0,0.0,0.0,0.0,0.0,0.0,0.0,0.0,0.0,0.0,0.0,0.0,0.0,0.0,0.0,0.0,0.0,0.0,0.0,0.0,0.0,0.0,0.0,0.0,0.0,1.9502,2.21,2.5211,2.8793,2.9456,2.9708,2.9587,2.6403,2.3307,0.0,0.0,0.0,0.0,0.0,0.0,0.0,0.0,0.0,0.0,0.0,0.0,0.0,0.0,0.0,0.0,0.0,0.0,0.0,0.0,0.0,0.0,0.0,0.0,0.0,0.0,0.0,0.0,0.0,0.0,0.0,0.0,0.0,0.0,0.0,0.0,0.0,0.0,0.0,0.0,1.5239,1.6294,1.7682,0.0,0.0,0.0,0.0,0.0,0.0,1.6051,1.5628,0.0,0.0,0.0,0.0,0.0,0.0,0.0,0.0,0.0,0.0,0.0,0.0,0.0,0.0,0.0,0.0,0.0,0.0,0.0,0.0,0.0,0.0,0.0,0.0,0.0,0.0,0.0,0.0,0.0,0.0,0.0,0.0,0.0,0.0,0.0,0.0,0.0,0.0,0.0,0.0,0.0,0.0,0.0,0.0,0.0,0.0,0.0,0.0,0.0,0.0,0.0,0.0,0.0,0.0,0.0,1.9497,2.3501,2.7011,2.9836,3.0111,3.014,3.0006,2.6205,2.2814,0.0,0.0,0.0,0.0,0.0,0.0,0.0,0.0,0.0,0.0,0.0,0.0,0.0,0.0,0.0,0.0,0.0,0.0,0.0,0.0,0.0,0.0,0.0,0.0,0.0,0.0,0.0,0.0,0.0,0.0,0.0,0.0,0.0,0.0,0.0,0.0,0.0,0.0,0.0,0.0,0.0,1.7793,1.9698,1.8468,0.0,0.0,0.0,0.0,1.7473,1.7676,0.0,0.0,0.0,0.0,0.0,0.0,0.0,0.0,0.0,0.0,0.0,0.0,0.0,0.0,0.0,0.0,0.0,0.0,0.0,0.0,0.0,0.0,0.0,0.0,0.0,0.0,0.0,0.0,0.0,0.0,0.0,0.0,0.0,0.0,0.0,0.0,0.0,0.0,0.0,0.0,0.0,0.0,0.0,0.0,0.0,0.0,0.0,0.0,0.0,0.0,0.0,0.0,0.0,0.0,0.0,0.0,1.9349,2.2531,2.6056,2.9784,3.0243,3.0361,3.0307,2.6954,2.3587,0.0,0.0,0.0,0.0,0.0,0.0,0.0,0.0,0.0,0.0,0.0,0.0,0.0,0.0,0.0,0.0,0.0,0.0,0.0,0.0,0.0,0.0,0.0,0.0,0.0,0.0,0.0,0.0,0.0,0.0,0.0,0.0,0.0,0.0,0.0,0.0,0.0,0.0,0.0,0.0,0.0,1.9569,1.9043,1.9454,1.9395,0.0,0.0,2.0468,2.0487,2.1664,0.0,0.0,0.0,0.0,0.0,0.0,0.0,0.0,0.0,0.0,0.0,0.0,0.0,0.0,0.0,0.0,0.0,0.0,0.0,0.0,0.0,0.0,0.0,0.0,0.0,0.0,0.0,0.0,0.0,0.0,0.0,0.0,0.0,0.0,0.0,0.0,0.0,0.0,0.0,0.0,0.0,0.0,0.0,0.0,0.0,0.0,0.0,0.0,0.0,0.0,0.0,0.0,0.0,0.0,0.0,1.6945,1.9841,2.4003,2.7477,3.0074,3.0315,3.0377,3.0325,2.6159,2.2741,0.0,0.0,0.0,0.0,0.0,0.0,0.0,0.0,0.0,0.0,0.0,0.0,0.0,0.0,0.0,0.0,0.0,0.0,0.0,0.0,0.0,0.0,0.0,0.0,0.0,0.0,0.0,0.0,0.0,0.0,0.0,0.0,0.0,0.0,0.0,0.0,0.0,0.0,0.0,0.0,0.0,0.0,2.1439,2.1498,0.0,0.0,0.0,2.1669,2.1624,0.0,0.0,0.0,0.0,0.0,0.0,0.0,0.0,0.0,0.0,0.0,0.0,0.0,0.0,0.0,0.0,0.0,0.0,0.0,0.0,0.0,0.0,0.0,0.0,0.0,0.0,0.0,0.0,0.0,0.0,0.0,0.0,0.0,0.0,0.0,0.0,0.0,0.0,0.0,0.0,0.0,0.0,0.0,0.0,0.0,0.0,0.0,0.0,0.0,0.0,0.0,0.0,0.0,0.0,0.0,0.0,0.0,2.0131,2.5219,2.8647,3.0204,3.0328,3.0288,2.9984,2.601,0.0,0.0,0.0,0.0,0.0,0.0,0.0,0.0,0.0,0.0,0.0,0.0,0.0,0.0,0.0,0.0,0.0,0.0,0.0,0.0,0.0,0.0,0.0,0.0,0.0,0.0,0.0,0.5976,0.0,0.0,0.0,0.0,0.0,0.0,0.0,0.0,0.0,0.0,0.0,0.0,0.0,0.0,2.1597,2.2803,2.2773,2.2787,0.0,0.0,2.2726,2.2667,2.3584,2.3306,0.0,0.0,0.0,0.0,0.0,0.0,0.0,0.0,0.0,0.0,0.0,0.0,0.0,0.0,0.0,0.0,0.0,0.0,0.0,0.0,0.0,0.0,0.0,0.0,0.0,0.0,0.0,0.0,0.0,0.0,0.0,0.0,0.0,0.0,0.0,0.0,0.0,0.0,0.0,0.0,0.0,0.0,0.0,0.0,0.0,0.0,0.0,0.0,0.0,0.0,0.0,0.0,0.0,0.0,0.0,2.0117,2.5145,2.8583,3.0139,3.0283,3.0005,2.9361,2.7584,2.4254,0.0,0.0,0.0,0.0,0.0,0.0,0.0,0.0,0.0,0.0,0.0,0.0,0.0,0.0,0.0,0.0,0.0,0.0,0.0,0.0,0.0,0.0,0.0,0.0,0.0,0.0,0.0,0.0,0.0,0.0,0.0,0.0,0.0,0.0,0.0,0.0,0.0,0.0,0.0,0.0,0.0,2.1488,2.1285,2.2381,2.3424,0.0,0.0,2.4224,2.4153,2.6058,2.5863,2.0889,0.0,0.0,0.0,0.0,0.0,0.0,0.0,0.0,0.0,0.0,0.0,0.0,0.0,0.0,0.0,0.0,0.0,0.0,0.0,0.0,0.0,0.0,0.0,0.0,0.0,0.0,0.0,0.0,0.0,0.0,0.0,0.0,0.0,0.0,0.0,0.0,0.0,0.0,0.0,0.0,0.0,0.0,0.0,0.0,0.0,0.0,0.0,0.0,0.0,0.0,0.0,0.0,0.0,1.8422,2.0093,2.5077,2.8444,2.9981,3.0056,2.9927,2.9669,2.7528,2.4478,0.0,0.0,0.0,0.0,0.0,0.0,0.0,0.0,0.0,0.0,0.0,0.0,0.0,0.0,0.0,0.0,0.0,0.0,0.0,0.0,0.0,0.0,0.0,0.0,0.0,0.0,0.0,0.0,1.0204,1.0587,1.0651,0.0,0.0,0.0,0.0,0.0,0.0,0.0,0.0,0.0,0.0,2.2255,2.3551,2.4189,0.0,0.0,2.4978,2.4835,2.4476,2.5065,2.4393,2.1011,1.9702,0.0,0.0,0.0,0.0,0.0,0.0,0.0,0.0,0.0,0.0,0.0,0.0,0.0,0.0,0.0,0.0,0.0,0.0,0.0,0.0,0.0,0.0,0.0,0.0,0.0,0.0,0.0,0.0,0.0,0.0,0.0,0.0,0.0,0.0,0.0,0.0,0.0,0.0,0.0,0.0,0.0,0.0,0.0,0.0,0.0,0.0,0.0,0.0,0.0,0.0,0.0,0.0,1.8216,1.9738,2.455,2.7835,2.9432,2.9388,2.9302,2.9114,2.7217,2.4666,0.0,0.0,0.0,0.0,0.0,0.0,0.0,0.0,0.0,0.0,0.0,0.0,0.0,0.0,0.0,0.0,0.0,0.0,0.0,0.0,0.0,0.0,0.0,0.0,0.0,0.0,0.0,0.0,1.1103,1.1276,1.1282,0.0,0.0,0.0,0.0,0.0,0.0,0.0,0.0,0.0,0.0,2.2579,2.4178,2.4508,2.4686,2.4857,2.4669,2.4434,2.4274,2.4081,2.3244,2.1193,0.0,0.0,0.0,0.0,0.0,0.0,0.0,0.0,0.0,0.0,0.0,0.0,0.0,0.0,0.0,0.0,0.0,0.0,0.0,0.0,0.0,0.0,0.0,0.0,0.0,0.0,0.0,0.0,0.0,0.0,0.6304,0.0,0.0,0.0,0.0,0.0,0.0,0.0,0.0,0.0,0.0,0.0,0.0,0.0,0.0,0.0,0.0,0.0,0.0,0.0,0.0,0.0,0.0,1.7778,1.8977,2.3468,2.6561,2.8182,2.8124,2.7906,2.7589,2.685,2.4986,2.1816,0.0,0.0,0.0,0.0,0.0,0.0,0.0,0.0,0.0,0.0,0.0,0.0,0.0,0.0,0.0,0.0,0.0,0.0,0.0,0.0,0.0,0.0,0.0,0.0,0.0,0.0,1.0256,1.0893,1.1354,0.0,0.0,0.0,0.0,0.0,0.0,0.0,0.0,0.0,0.0,2.022,2.218,2.2232,2.2706,2.3154,2.3291,2.2965,2.2915,2.3588,2.3621,2.3096,0.0,0.0,0.0,0.0,0.0,0.0,0.0,0.0,0.0,0.0,0.0,0.0,0.0,0.0,0.0,0.0,0.0,0.0,0.0,0.0,0.0,0.0,0.0,0.0,0.0,0.0,0.0,1.0055,0.93,0.0,0.0,0.0,0.0,0.0,0.0,0.0,0.0,0.0,0.0,0.0,1.8776,1.9879,0.0,0.0,0.0,0.0,0.0,0.0,0.0,0.0,0.0,0.0,0.0,0.0,1.7435,1.9506,2.3212,2.5932,2.748,2.7446,2.7352,2.7228,2.598,2.347,1.9597,0.0,0.0,0.0,0.0,0.0,0.0,0.0,0.0,0.0,0.0,0.0,0.0,0.0,0.0,0.0,0.0,0.0,0.0,0.0,0.0,0.0,0.0,0.0,0.0,0.0,1.1221,0.0,0.0,0.0,0.0,0.0,0.0,0.0,0.0,0.0,0.0,0.0,1.7327,1.9595,2.0614,2.1483,2.2434,2.2661,2.2831,0.0,0.0,0.0,0.0,0.0,0.0,0.0,0.0,0.0,0.0,0.0,0.0,0.0,0.0,1.8563,1.5752,1.52,1.5142,1.499,0.0,0.0,0.0,0.0,0.0,0.0,0.0,0.0,0.0,0.0,0.0,0.0,0.0,0.0,1.3222,0.0,1.2855,0.0,0.0,0.0,0.0,0.0,0.0,0.0,0.0,2.0445,2.2161,2.2736,2.3784,2.3722,0.0,2.2645,2.0118,0.0,0.0,0.0,0.0,0.0,0.0,0.0,0.0,1.7573,1.9622,2.2889,2.5283,2.6601,2.6571,2.6555,2.6603,2.5221,2.2764,1.92,1.792,1.6147,0.0,0.0,0.0,0.0,0.0,0.0,0.0,0.0,0.0,0.0,0.0,0.0,0.0,0.0,0.0,0.0,0.0,0.0,0.0,0.0,0.0,0.0,0.0,1.1074,0.0,0.0,0.0,0.0,0.0,0.0,0.0,0.0,0.0,1.6106,1.7227,1.8699,2.0573,2.1049,2.128,2.15,0.0,0.0,0.0,0.0,0.0,0.0,0.0,2.0038,1.977,1.9361,1.9212,1.9549,2.0127,2.0577,2.07,0.0,0.0,1.7783,1.7197,1.7135,1.6993,1.691,1.6923,1.7159,1.7524,1.7817,0.0,0.0,0.0,0.0,0.0,0.0,0.0,0.0,1.6077,1.5918,0.0,1.6466,0.0,0.0,0.0,0.0,0.0,1.9309,0.0,0.0,2.6507,2.8388,2.7271,2.7212,2.7239,2.7223,2.6417,2.4581,2.1771,1.9622,0.0,0.0,0.0,0.0,0.0,0.0,1.8091,1.9509,2.2435,2.4497,2.5577,2.5443,2.5433,2.558,2.4514,2.2833,2.063,1.9345,1.8042,1.6525,1.3227,0.0,0.0,0.0,0.0,0.0,0.0,0.0,0.0,0.0,0.0,0.0,0.0,0.0,0.0,0.0,0.0,0.0,0.0,0.0,0.0,1.0363,0.0,0.0,0.0,0.0,0.0,0.0,0.0,0.0,0.0,0.0,1.694,1.8761,2.0174,2.026,0.0,0.0,0.0,0.0,2.006,1.8476,1.8433,1.8684,1.8736,1.9092,1.9576,2.0189,0.0,0.0,2.0372,2.0035,1.9905,2.0249,2.1056,2.1542,2.1025,1.987,1.9319,1.9851,1.8817,1.8096,1.8584,1.8635,1.8498,2.0283,0.0,0.0,0.0,0.0,1.7255,1.8556,2.067,2.0974,2.0625,1.9879,2.0543,0.0,0.0,0.0,0.0,0.0,0.0,2.3299,2.4806,2.6637,2.8033,2.9098,2.8824,2.8693,2.8666,2.8328,2.7123,2.5211,2.4303,2.0753,1.4805,0.0,0.0,0.0,0.0,1.8563,2.0446,2.23,2.3447,2.3903,2.4184,2.3728,2.2478,2.2531,2.1591,1.9531,1.9659,1.8874,1.6936,1.5476,0.0,0.0,0.0,0.0,0.0,0.0,0.0,0.0,0.0,0.0,0.0,0.0,0.0,0.0,0.0,0.0,0.0,0.0,0.0,1.0059,1.0847,1.1449,0.0,0.0,0.0,0.0,0.0,0.0,0.0,0.0,0.0,1.7983,1.846,1.9075,0.0,0.0,1.9121,1.8776,1.9044,1.9215,1.9113,1.9105,0.0,0.0,2.0084,1.9931,2.0129,2.012,2.0114,2.0124,2.0392,2.06,2.0526,2.0725,2.0743,2.0318,2.0868,2.1175,2.0909,2.0182,1.9813,2.0209,2.0004,1.9659,2.6219,2.2474,2.0271,2.008,2.1194,2.0974,2.2182,2.4361,2.4709,2.4462,2.3805,2.4611,2.3359,2.0646,2.0552,0.0,0.0,0.0,2.5642,2.7449,2.7647,2.84,2.9535,2.906,2.8758,2.8687,2.8149,2.7205,2.5909,2.5141,2.2051,1.6858,0.0,0.0,1.6496,1.7828,1.9334,2.0955,2.2037,2.2622,2.2743,2.2899,2.2425,2.1315,2.137,2.075,1.9295,1.947,1.8888,1.7359,1.6309,1.4616,0.0,0.0,0.0,0.0,0.0,0.0,0.0,0.0,0.0,0.0,0.0,0.7319,0.5726,0.0,0.0,0.0,0.9732,1.0583,1.0645,1.1547,0.0,0.0,0.0,0.0,0.0,0.0,0.0,1.5391,1.6981,1.807,1.7935,1.7974,1.8326,1.9279,1.914,1.8808,1.8415,0.0,1.9004,1.9127,1.901,1.9265,2.0268,2.0281,2.0205,2.0437,2.0206,2.009,2.0227,2.0382,2.0396,2.0321,2.0438,2.0424,1.9994,2.0914,2.1446,2.0663,2.0194,2.0042,2.0258,2.0003,1.9708,3.1533,3.0316,2.5151,2.3796,2.4913,2.4389,2.5304,2.7141,2.7565,2.7571,2.7378,2.8481,2.7334,2.4549,2.4053,0.0,2.7485,2.7394,2.8108,2.9509,2.9308,2.9201,2.917,2.832,2.7828,2.762,2.6566,2.5557,2.4668,2.3359,2.1614,1.9606,1.9941,1.9682,1.8795,1.9421,2.0167,2.0965,2.1623,2.189,2.1834,2.1539,2.1337,2.1175,2.0698,2.0104,1.9452,1.8944,1.8389,1.7777,1.621,1.4859,1.3798,0.0,0.0,0.0,0.0,0.0,0.0,0.0,0.0,0.0,0.0,0.0,0.0,0.0,0.0,0.0,1.0516,0.0,1.1815,1.2403,0.0,0.0,0.0,1.3977,1.4571,1.5613,1.6257,1.617,0.0,0.0,1.717,1.7363,1.7885,1.8846,1.9699,1.9686,1.8217,1.8694,1.9056,1.8614,1.8429,1.8588,1.9407,1.9855,2.0228,2.0629,2.0314,1.9979,2.0268,2.0066,1.9721,1.9746,2.0161,2.0363,2.0065,2.0386,2.0447,1.9541,1.9295,1.9233,1.9298,1.9129,1.8869,3.4939,3.3698,3.2117,3.0544,2.9087,2.9076,2.9497,3.0158,3.0504,3.0638,3.0598,3.1126,3.0916,3.0156,3.023,3.0205,3.0101,3.0168,2.9981,2.9589,2.9369,2.9232,2.9057,2.783,2.6937,2.6294,2.5159,2.4042,2.2997,2.209,2.1064,1.9912,1.9224,1.864,1.8167,1.9035,1.9635,1.9891,2.0324,2.0478,2.0326,1.98,1.9296,1.8765,1.8724,1.8482,1.8011,1.8169,1.8061,1.7653,1.6815,1.5616,1.401,1.1978,0.0,0.0,0.0,0.0,0.0,0.0,0.0,0.0,0.0,0.8913,0.6696,0.0,1.0567,0.0,1.0778,1.1938,1.2299,1.2914,0.0,0.0,1.4777,1.5322,1.6539,1.6901,1.6925,1.667,1.7114,1.7234,1.6603,1.7315,1.7867,1.7846,1.8248,1.8468,1.819,1.8416,1.8487,1.8203,1.8378,1.881,1.9366,1.9565,1.9742,1.9844,1.9332,1.897,1.9191,1.9546,1.9718,1.9587,1.9948,2.0051,1.9469,1.9771,1.9765,1.908,1.8982,1.9168,1.9485,1.8857,1.8154,3.7243,3.6211,3.5713,3.4473,3.2749,3.1846,3.1489,3.1536,3.1887,3.1965,3.1832,3.2102,3.2211,3.2223,3.2173,3.1845,3.1321,3.1264,3.0845,3.0097,2.9799,2.9366,2.8739,2.749,2.6294,2.51,2.3451,2.1985,2.0743,1.9872,1.8993,1.8134,1.7781,1.7387,1.7029,1.7971,1.8572,1.8797,1.8653,1.8706,1.8923,1.8493,1.8059,1.7642,1.736,1.7043,1.6656,1.6546,1.6391,1.6182,1.5583,1.4662,1.3302,1.1788,1.0577,0.0,0.0,0.0,0.0,0.0,0.0,0.0,0.0,0.0,0.0,0.0,1.1043,1.0495,1.1966,1.3012,1.3205,1.3947,1.4763,1.5584,1.5947,1.6445,1.7224,1.7289,1.7042,1.6552,1.6912,1.6987,1.6493,1.7352,1.7944,1.7676,1.8009,1.8334,1.8396,1.8433,1.8462,1.8525,1.8709,1.9136,1.9921,2.003,2.0074,2.014,1.9706,1.9329,1.9337,1.9426,1.9436,1.9179,1.9393,1.9468,1.8932,1.9007,1.9047,1.8767,1.8817,1.9013,1.9088,1.8547,1.8001,3.8643,3.7904,3.7191,3.6428,3.5527,3.3456,3.2459,3.2274,3.2636,3.26,3.2301,3.2375,3.2485,3.2561,3.2174,3.1891,3.1704,3.1495,3.0645,2.9349,2.9746,2.8744,2.6449,2.6211,2.4987,2.2888,2.0796,1.9131,1.7901,1.6872,1.6005,1.5311,1.5607,1.5615,1.5356,1.6129,1.6926,1.7654,1.6965,1.6908,1.7559,1.7252,1.7017,1.6914,1.6208,1.5689,1.5385,1.4691,1.4276,1.4177,1.3672,1.3084,1.2404,1.1198,1.0416,0.0,0.9116,0.0,0.0,0.0,0.0,0.0,0.0,0.0,0.0,1.1296,1.1826,1.2251,1.3395,1.4161,1.4295,1.5075,1.5791,1.6325,1.6815,1.7078,1.7036,1.7006,1.6825,1.6214,1.6523,1.6688,1.6628,1.7461,1.7999,1.7861,1.8244,1.8522,1.8552,1.8499,1.8622,1.9102,1.8944,1.9031,1.9822,2.0192,2.0305,2.0516,2.0208,2.0038,1.9792,1.9538,1.9191,1.8849,1.8934,1.8868,1.8479,1.848,1.8497,1.8439,1.8705,1.8881,1.8627,1.8433,1.8088,3.8764,3.8165,3.7385,3.6503,3.5528,3.4468,3.4104,3.4255,3.4333,3.4171,3.3855,3.359,3.3511,3.3525,3.35,3.2902,3.1873,3.1854,2.8204,2.1872,2.6987,2.4578,1.6539,2.0318,2.0139,1.6322,1.4916,1.4146,1.3752,1.2942,1.254,1.2456,1.219,1.2249,1.2603,0.0,0.0,0.0,1.613,1.5926,1.5938,1.5529,1.5226,1.503,1.4521,0.0,1.4198,1.3718,1.3328,1.3058,1.2917,0.0,0.0,0.0,0.0,0.0,0.0,0.0,0.0,0.0,0.0,0.0,1.102,1.1021,1.1554,1.2463,1.3225,1.3739,1.4076,1.457,1.5327,1.5431,1.5631,1.6095,1.6156,1.6146,1.6153,1.6153,1.617,1.6426,1.6507,1.6648,1.6874,1.7515,1.7827,1.7632,1.8022,1.8211,1.7967,1.8168,1.8305,1.825,1.8124,1.7974,1.8071,1.8507,1.8807,1.8689,1.8889,1.9068,1.9209,1.9543,1.9502,1.8946,1.9283,1.9251,1.8541,1.8732,1.877,1.8471,1.8657,1.8915,1.8888,1.8699,1.8501,3.846,0.0,3.5944,3.5221,0.0,3.3931,3.3572,3.376,3.4177,3.4166,3.3579,2.9562,2.9769,3.297,2.9127,2.9025,3.1731,3.1528,2.7659,2.1207,2.4268,2.1606,1.4022,1.6559,1.6493,1.4145,1.2839,1.2046,1.1641,1.1009,1.0673,1.0627,1.0723,1.0918,1.1204,1.1521,1.2689,1.4716,1.445,1.4487,1.483,1.4628,1.4389,1.4095,0.0,0.0,0.0,0.0,0.0,0.0,0.0,0.0,0.0,0.0,0.0,1.2751,1.1908,1.1627,1.221,1.2164,1.233,1.2889,1.2907,1.2835,1.2711,1.3825,1.4637,1.4894,1.4828,1.4949,1.5379,1.5011,1.4917,1.5419,1.5167,1.5059,1.5352,1.527,1.5191,1.5416,1.6021,1.6533,1.6605,1.7402,1.7842,1.7729,1.7852,1.792,1.7774,1.7964,1.8066,1.7896,1.7725,1.7707,1.8026,1.8218,1.8523,1.8788,1.9004,1.9057,1.8873,1.8968,1.8897,1.8332,1.8179,1.7924,1.7749,1.769,1.7696,1.7666,1.8048,1.8434,1.8498,1.8366,1.8169,3.8061,3.6578,3.4777,3.4268,3.4555,3.3404,3.2087,3.0994,0.0,0.0,0.0,2.4574,2.4444,2.861,2.2287,2.2636,2.811,2.8056,2.4806,1.9284,2.0297,1.768,1.2125,1.2964,1.2928,1.2069,1.1008,1.0222,0.9769,0.9314,0.9046,0.8981,0.9468,0.9819,1.0103,1.1107,1.1951,1.2579,1.2689,1.3053,1.3752,1.3797,1.3652,1.3368,1.3509,1.3517,1.3373,1.2849,1.2607,1.2721,1.2404,1.2084,1.1747,1.1725,1.2168,1.3119,1.2875,1.3016,1.3834,1.3962,1.4047,1.4113,1.4287,1.4221,1.3735,1.4736,1.5396,1.5406,1.5148,1.4982,1.4991,1.4362,1.4136,1.4639,1.4234,1.4142,1.4641,1.4522,1.4367,1.4496,1.5486,1.6303,1.6392,1.7171,1.7872,1.7896,1.7799,1.7604,1.7535,1.7691,1.7725,1.7364,1.7433,1.7804,1.8307,1.8609,1.8882,1.9204,1.9358,1.925,1.8807,1.8372,1.7939,1.7544,1.6795,1.6558,1.6626,1.6497,1.6301,1.6547,1.7212,1.7755,1.7745,1.7752,1.7641,3.7799,3.7509,3.6203,3.5631,3.5521,3.443,3.0216,2.4653,3.0086,2.962,2.4506,2.2756,1.9617,1.5711,1.4723,1.4716,1.5405,1.6245,1.3125,0.7307,1.2557,1.0095,0.1599,0.7349,0.8455,0.5416,0.5612,0.5972,0.6266,0.6102,0.6207,0.6717,0.6738,0.7302,0.8372,0.9532,1.028,1.0705,1.1518,1.2009,1.2129,1.2237,1.2215,1.2106,1.2288,1.2281,1.2157,1.2104,1.2006,1.2039,1.2239,1.2527,1.2924,1.2929,1.3432,1.4399,1.4199,1.4182,1.4609,1.4504,1.4333,1.4201,1.4131,1.4072,1.4127,1.4201,1.4212,1.425,1.4207,1.4174,1.4154,1.3867,1.3717,1.3837,1.3674,1.3722,1.4086,1.4059,1.4245,1.4739,1.5146,1.5711,1.6457,1.6886,1.7251,1.7604,1.756,1.7364,1.6689,1.7097,1.7141,1.6622,1.7131,1.7664,1.776,1.8267,1.8635,1.8799,1.8864,1.8816,1.8692,1.8022,1.7458,1.7044,1.6555,1.622,1.6033,1.6094,1.6214,1.6357,1.6758,1.696,1.6976,1.6952,1.7213,3.7591,3.6629,3.5645,3.516,3.4585,2.9273,2.3203,1.7414,1.9914,1.9546,1.6418,1.2519,1.1396,1.2228,0.879,0.9476,1.3365,1.3621,1.0697,0.5835,0.8487,0.6283,0.0502,0.3307,0.4579,0.3982,0.4257,0.4776,0.542,0.5377,0.56,0.6031,0.6097,0.6572,0.7391,0.8069,0.8554,0.8903,1.015,1.1007,1.135,1.1413,1.1651,1.2051,1.2328,1.2618,1.2911,1.2693,1.26,1.2717,1.2617,1.2765,1.3178,1.3206,1.3597,1.4461,1.44,1.4479,1.487,1.4534,1.426,1.4099,1.3434,1.3077,1.3012,1.3604,1.4004,1.4004,1.3606,1.3334,1.3334,1.2879,1.2696,1.3023,1.2842,1.2909,1.3347,1.3352,1.3413,1.3785,1.4302,1.4822,1.5253,1.6132,1.6733,1.6941,1.6862,1.6271,1.5065,1.5419,1.586,1.5594,1.6448,1.7079,1.6991,1.7551,1.8164,1.8576,1.8521,1.8364,1.8249,1.7555,1.6838,1.656,1.6094,1.5847,1.5879,1.6079,1.6261,1.6444,1.6554,1.6689,1.6689,1.6648,1.6985,3.7402,3.5923,3.5268,3.4016,3.169,2.3745,1.6558,1.0637,1.0366,0.9172,0.6898,0.33,0.4352,0.754,0.299,0.4164,0.9435,0.9916,0.7941,0.4884,0.4862,0.3371,0.0859,0.094,0.2074,0.3561,0.3912,0.4419,0.5103,0.5147,0.5295,0.5631,0.59,0.628,0.6683,0.6942,0.7265,0.7661,0.8839,0.9767,1.0345,1.0584,1.1087,1.1787,1.2212,1.2712,1.3381,1.3097,1.3033,1.3287,1.3029,1.2995,1.3264,1.332,1.3634,1.4155,1.4345,1.4476,1.4649,1.4094,1.3657,1.3476,1.2604,1.1965,1.1896,1.2718,1.3364,1.3304,1.2765,1.2397,1.2382,1.1978,1.1781,1.2188,1.2102,1.2266,1.2732,1.2728,1.2657,1.2828,1.3475,1.397,1.4222,1.5144,1.5895,1.5921,1.5675,1.4859,1.3854,1.3998,1.4286,1.4553,1.5645,1.6608,1.6463,1.7032,1.7768,1.8436,1.8112,1.7878,1.7658,1.6996,1.6364,1.6213,1.5768,1.5608,1.6007,1.6158,1.6293,1.6459,1.6553,1.6607,1.6533,1.6443,1.6558,3.7164,3.6626,3.5796,3.2416,2.5938,2.0525,1.3141,0.5659,0.5657,0.1947,-0.2961,0.1393,0.1129,-0.2778,-0.2776,-0.1994,-0.11,-0.0613,0.0,0.0078,0.0156,0.0312,0.0471,0.149,0.2195,0.2547,0.3368,0.4027,0.4513,0.4427,0.457,0.5079,0.5463,0.5785,0.6053,0.6515,0.6909,0.7237,0.7694,0.8079,0.849,0.9416,1.0117,1.0465,1.0944,1.1569,1.2451,1.2389,1.2588,1.2992,1.3258,1.3421,1.3481,1.3737,1.3933,1.4028,1.4414,1.4423,1.3837,1.281,1.2166,1.1981,1.1569,1.1209,1.1178,1.1303,1.1428,1.1577,1.1428,1.1397,1.1442,1.1482,1.1574,1.1707,1.1838,1.2032,1.2402,1.2424,1.2543,1.2866,1.3011,1.3258,1.3789,1.4178,1.451,1.4931,1.4466,1.3854,1.3426,1.3353,1.3141,1.3059,1.4564,1.6122,1.6296,1.6966,1.7482,1.7864,1.7474,1.7284,1.7241,1.6814,1.6222,1.6142,1.5888,1.5674,1.5793,1.5968,1.6238,1.6356,1.6401,1.6394,1.6203,1.6098,1.6281,3.1146,2.8173,2.6887,2.1417,1.3762,1.0931,0.5938,-0.029,-0.0249,-0.1479,-0.2978,-0.0084,-0.0621,-0.371,-0.2808,-0.2163,-0.1715,-0.1223,-0.0785,-0.0354,-0.0079,0.0275,0.0707,0.1335,0.1962,0.2549,0.302,0.3643,0.4327,0.4622,0.4854,0.5116,0.5321,0.5582,0.5899,0.6119,0.6416,0.6712,0.7073,0.7302,0.7526,0.8501,0.9428,1.0212,1.0559,1.1226,1.2182,1.2398,1.2428,1.2336,1.2736,1.2911,1.2789,1.3186,1.3489,1.367,1.3623,1.3304,1.274,1.1881,1.1392,1.1329,1.0888,1.0618,1.0618,1.0713,1.0839,1.0996,1.1059,1.1185,1.1368,1.1476,1.1584,1.1739,1.2026,1.2228,1.2375,1.2456,1.2592,1.2703,1.2716,1.2709,1.2879,1.3237,1.36,1.3854,1.3608,1.3258,1.2636,1.2587,1.2559,1.241,1.367,1.4759,1.5155,1.5769,1.6569,1.7267,1.7175,1.6971,1.7121,1.6508,1.5944,1.615,1.5888,1.5793,1.5983,1.6254,1.6516,1.6443,1.6337,1.6265,1.5868,1.5708,1.5701,2.5685,2.1945,1.8851,1.3082,0.5975,0.4014,0.0808,-0.2886,-0.3032,-0.2367,-0.1388,-0.0672,-0.0924,-0.1706,-0.1309,-0.083,-0.0365,-0.0357,-0.0236,0.0,0.0275,0.0511,0.0825,0.114,0.1728,0.2434,0.263,0.3176,0.4176,0.4622,0.497,0.5165,0.5219,0.5428,0.5702,0.5825,0.6,0.6288,0.6585,0.6782,0.6946,0.7629,0.8624,0.9697,1.0078,1.0773,1.1888,1.2182,1.2251,1.2027,1.2406,1.2529,1.2406,1.2674,1.2873,1.3009,1.2612,1.2112,1.1671,1.1087,1.071,1.0654,1.039,1.0244,1.0238,1.0339,1.0506,1.0675,1.0828,1.1007,1.1309,1.1429,1.1526,1.1737,1.2016,1.2192,1.222,1.2337,1.2409,1.2378,1.2378,1.2305,1.207,1.2402,1.2769,1.2799,1.2956,1.2894,1.2084,1.2145,1.2298,1.2149,1.2785,1.3427,1.3993,1.4934,1.5825,1.647,1.6668,1.6683,1.7033,1.6236,1.5753,1.5983,1.5793,1.5786,1.5945,1.6284,1.6368,1.6294,1.6164,1.5901,1.5355,1.5183,1.5128,2.2246,2.0439,1.4965,1.058,0.7768,0.2992,0.0044,-0.1475,-0.0896,-0.0538,-0.0403,0.009,0.0627,0.0934,0.0386,0.0291,0.0325,0.0239,0.0118,0.0079,0.0393,0.0589,0.0629,0.11,0.1533,0.2043,0.2237,0.2823,0.3798,0.4134,0.4533,0.507,0.5171,0.5258,0.5416,0.5665,0.5837,0.5988,0.6292,0.6548,0.6712,0.6909,0.7591,0.8554,0.9192,1.0053,1.0993,1.1445,1.1903,1.2498,1.2529,1.256,1.256,1.2428,1.2259,1.205,1.1454,1.1048,1.0836,1.0351,1.0015,0.9926,0.9983,1.0021,1.0015,1.0053,1.0187,1.0409,1.0494,1.0665,1.0989,1.1229,1.1333,1.1417,1.1589,1.1753,1.1742,1.197,1.1922,1.1855,1.1929,1.1929,1.1744,1.1706,1.1887,1.1938,1.2068,1.2158,1.2126,1.2172,1.2242,1.2194,1.2237,1.2367,1.3474,1.4306,1.511,1.5746,1.605,1.6214,1.6222,1.6158,1.5936,1.5809,1.5635,1.5637,1.585,1.5879,1.5742,1.5677,1.5579,1.5283,1.4795,1.4626,1.4565,1.2165,0.7883,0.5842,0.4,0.2339,0.0632,-0.0045,-0.0045,0.0179,0.0493,0.0718,0.0628,0.0897,0.1343,0.0697,0.0553,0.079,0.0487,0.0279,0.0197,0.0354,0.0629,0.1061,0.1218,0.157,0.204,0.2157,0.2588,0.3372,0.4001,0.4447,0.4758,0.5161,0.5362,0.5454,0.5696,0.5861,0.6045,0.6285,0.6482,0.6749,0.7302,0.7657,0.7717,0.8425,0.9506,1.0836,1.0717,1.0944,1.1709,1.1756,1.1825,1.1934,1.1965,1.1794,1.1382,1.085,1.0383,1.0009,0.9792,0.9644,0.9644,0.9766,0.9862,0.9894,0.9964,1.0135,1.035,1.047,1.0682,1.0953,1.1185,1.1363,1.1535,1.1643,1.1669,1.1706,1.1781,1.1781,1.1706,1.1669,1.1632,1.1683,1.1721,1.1758,1.1789,1.2079,1.2184,1.2095,1.2206,1.2419,1.2327,1.2354,1.2529,1.2853,1.3518,1.4156,1.4798,1.5209,1.5569,1.5695,1.5423,1.521,1.5466,1.5386,1.5155,1.525,1.5479,1.5321,1.5097,1.5008,1.4818,1.433,1.4218,1.4196,0.5632,0.1397,0.0924,0.0335,-0.0475,-0.0873,-0.0586,0.009,0.0224,0.0403,0.0672,0.0628,0.0897,0.1208,0.0707,0.0695,0.1104,0.0578,0.0321,0.0393,0.0393,0.0668,0.11,0.1179,0.1492,0.204,0.2235,0.2588,0.3139,0.3841,0.4269,0.4513,0.508,0.5392,0.5484,0.5665,0.5884,0.6166,0.6294,0.6405,0.6755,0.7424,0.7591,0.7293,0.8102,0.9218,1.0426,1.011,1.0471,1.1358,1.1313,1.118,1.1209,1.1296,1.1069,1.0408,0.9945,0.9632,0.9414,0.9318,0.9285,0.9189,0.9414,0.9542,0.9548,0.9711,0.9948,1.0266,1.0538,1.0739,1.099,1.1143,1.1327,1.1483,1.1521,1.1521,1.1521,1.1564,1.1595,1.1558,1.1409,1.1409,1.1583,1.1681,1.1739,1.1793,1.2203,1.2283,1.2158,1.2346,1.2612,1.2451,1.2566,1.2699,1.2967,1.3452,1.3994,1.4573,1.4796,1.5047,1.5293,1.4949,1.4739,1.5027,1.4925,1.4681,1.4698,1.4932,1.4846,1.4602,1.4565,1.4436,1.4109,1.3873,1.385,0.3323,0.196,0.1233,0.0435,-0.0143,-0.1349,-0.1687,-0.0941,-0.0671,-0.0358,-0.009,0.0179,0.0807,0.1165,0.0716,0.0752,0.1122,0.0667,0.0485,0.0592,0.0591,0.0748,0.0982,0.0983,0.1297,0.1925,0.2315,0.2668,0.3061,0.3608,0.4029,0.4419,0.4991,0.5357,0.5395,0.5622,0.5928,0.6197,0.6189,0.6302,0.669,0.728,0.7382,0.7003,0.8188,0.9218,0.9837,0.9799,1.0471,1.174,1.1313,1.0766,1.0528,1.0553,1.0142,0.9396,0.8797,0.8738,0.8958,0.8985,0.8861,0.8705,0.8861,0.9028,0.9091,0.9272,0.9637,1.0129,1.0432,1.0731,1.0904,1.0963,1.1044,1.1105,1.1149,1.1111,1.1155,1.126,1.1416,1.1397,1.1309,1.125,1.1411,1.1606,1.176,1.1954,1.2184,1.236,1.2324,1.2506,1.2662,1.2681,1.2693,1.2765,1.3071,1.3472,1.4005,1.4481,1.4573,1.474,1.5171,1.5068,1.4467,1.4476,1.3745,1.3482,1.344,1.3652,1.3783,1.3659,1.3794,1.3827,1.3631,1.3406,1.3498,0.005,-0.0805,-0.0691,-0.0968,-0.1331,-0.0979,-0.073,-0.0761,-0.0224,0.0314,0.0672,0.0628,0.0897,0.1211,0.0852,0.0798,0.1087,0.0899,0.0794,0.0891,0.0886,0.0957,0.1143,0.1179,0.1415,0.1887,0.2159,0.2431,0.2785,0.345,0.388,0.4114,0.489,0.53,0.5369,0.5585,0.5841,0.6096,0.6101,0.6187,0.6421,0.7495,0.7825,0.7438,0.8253,0.9154,0.9856,0.9735,1.0313,1.1654,1.0755,1.0332,1.0647,1.0521,1.0205,0.9862,0.8985,0.8549,0.8608,0.8673,0.8608,0.8544,0.8608,0.8723,0.8815,0.8947,0.9245,0.9693,0.9824,0.9994,1.0194,1.0255,1.0513,1.1037,1.085,1.07,1.0706,1.0787,1.0982,1.1365,1.1401,1.1483,1.1718,1.1908,1.2059,1.218,1.2409,1.256,1.259,1.2632,1.2699,1.2699,1.2729,1.2819,1.3175,1.3486,1.3902,1.4157,1.4176,1.4621,1.5054,1.475,1.4195,1.3694,1.2938,1.2502,1.2408,1.2475,1.2717,1.2576,1.2479,1.2586,1.2801,1.2923,1.3063,-0.1059,-0.1511,-0.1643,-0.1805,-0.2,-0.1736,-0.1837,-0.1749,-0.085,-0.0224,0.009,0.0672,0.0987,0.1211,0.0987,0.098,0.1101,0.1145,0.1123,0.1127,0.1145,0.1171,0.1312,0.138,0.1573,0.1886,0.2118,0.2313,0.251,0.3176,0.3647,0.3919,0.4579,0.5124,0.5395,0.559,0.5809,0.6167,0.6187,0.6205,0.649,0.7427,0.7726,0.738,0.8403,0.9192,0.957,0.9869,1.051,1.1247,1.0856,1.0496,1.0167,1.0047,0.9926,0.9352,0.8689,0.8149,0.8284,0.8317,0.8252,0.8182,0.8247,0.8412,0.8573,0.8672,0.8969,0.9414,0.9621,0.9723,0.9852,0.9884,1.0143,1.055,1.0438,1.0293,1.0304,1.0528,1.0789,1.1177,1.1483,1.1754,1.2035,1.218,1.2361,1.2451,1.2596,1.2705,1.2705,1.2693,1.2705,1.2705,1.2711,1.2892,1.32,1.3521,1.3812,1.3793,1.373,1.4462,1.5106,1.4131,1.336,1.3192,1.2614,1.2119,1.1994,1.1922,1.1969,1.1621,1.1453,1.1838,1.2273,1.257,1.2767,-0.0605,-0.0454,-0.1816,-0.222,-0.2101,-0.3656,-0.3992,-0.3593,-0.2371,-0.1701,-0.1343,0.0134,0.0987,0.1076,0.1122,0.121,0.139,0.1342,0.1374,0.1337,0.1296,0.1303,0.1329,0.1465,0.1651,0.1887,0.2081,0.2276,0.251,0.2943,0.3335,0.3841,0.4268,0.4813,0.5398,0.5553,0.5893,0.6325,0.6328,0.6366,0.6552,0.7284,0.7258,0.6722,0.8481,0.9341,0.9089,0.9926,1.0825,1.1209,1.1264,1.0458,0.9192,0.9358,0.9198,0.8333,0.7754,0.7722,0.7922,0.7987,0.7852,0.7657,0.7864,0.8065,0.8302,0.8558,0.8847,0.9312,0.9558,0.9712,0.9728,0.9733,0.9803,0.9809,0.9841,0.9884,0.9938,1.0379,1.0673,1.0958,1.1453,1.196,1.2123,1.2189,1.2302,1.256,1.2644,1.2571,1.2705,1.2705,1.2705,1.2705,1.2705,1.2964,1.3266,1.3485,1.3715,1.3504,1.3416,1.398,1.4631,1.371,1.255,1.2363,1.2129,1.1724,1.1335,1.1112,1.1118,1.1036,1.1157,1.1525,1.179,1.2058,1.2575,-0.2117,-0.3228,-0.3078,-0.3504,-0.4102,-0.3855,-0.3628,-0.3544,-0.2685,-0.1701,-0.0896,-0.0269,0.0583,0.1256,0.1346,0.1346,0.1391,0.1391,0.1389,0.1372,0.132,0.1309,0.1317,0.1341,0.1573,0.1848,0.1964,0.2159,0.251,0.2863,0.3335,0.3802,0.419,0.4696,0.5285,0.5521,0.575,0.6057,0.6262,0.6246,0.6403,0.762,0.7985,0.7381,0.8422,0.8986,0.8765,0.9097,0.9767,1.0465,1.0142,0.9824,0.916,0.8967,0.8716,0.8333,0.7814,0.7526,0.7624,0.7657,0.7591,0.7545,0.7736,0.7918,0.812,0.8337,0.8621,0.8881,0.8988,0.9046,0.9046,0.9046,0.9046,0.9046,0.9332,0.9494,0.9525,0.9741,1.009,1.0594,1.0985,1.1472,1.1815,1.1858,1.1881,1.2382,1.2448,1.232,1.2528,1.2613,1.2571,1.2656,1.2759,1.3049,1.3323,1.3521,1.3507,1.3274,1.3162,1.3252,1.3662,1.3467,1.2233,1.1341,1.0974,1.0546,1.0141,0.9842,1.0019,1.0497,1.0342,1.0505,1.1141,1.1537,1.2297,-0.3275,-0.3732,-0.3684,-0.3948,-0.4292,-0.3857,-0.3769,-0.36,-0.2462,-0.1567,-0.0717,0.0179,0.0852,0.1391,0.1391,0.1391,0.1391,0.1391,0.1391,0.1383,0.1343,0.1327,0.1314,0.1297,0.1454,0.173,0.1848,0.2081,0.2392,0.2707,0.3178,0.3724,0.4036,0.4579,0.5401,0.5521,0.5792,0.606,0.6219,0.6248,0.6284,0.7158,0.7444,0.7281,0.7934,0.8476,0.8769,0.8586,0.87,0.9121,0.9218,0.909,0.8587,0.8554,0.8361,0.8134,0.7684,0.7493,0.7493,0.7493,0.7541,0.7622,0.7759,0.7889,0.8084,0.8271,0.8449,0.8438,0.8585,0.8627,0.8589,0.8665,0.8703,0.8751,0.8981,0.9188,0.9154,0.9582,0.9948,1.0423,1.0857,1.1208,1.166,1.1451,1.158,1.1929,1.21,1.2143,1.2314,1.24,1.2528,1.2613,1.2564,1.2697,1.2981,1.3227,1.304,1.2791,1.249,1.2545,1.262,1.2746,1.2045,1.0882,1.0126,0.9568,0.9535,0.954,0.9822,1.0012,0.9657,0.9811,1.0527,1.1545,1.2253,-0.3981,-0.3077,-0.3935,-0.3806,-0.3354,-0.4096,-0.415,-0.3656,-0.2151,-0.1298,-0.0895,0.0627,0.1121,0.1391,0.1166,0.1256,0.1391,0.1391,0.1386,0.1421,0.1393,0.1388,0.1404,0.1389,0.1505,0.17,0.1852,0.2042,0.2314,0.251,0.3018,0.3645,0.388,0.4506,0.5326,0.5601,0.587,0.618,0.6257,0.6293,0.6371,0.673,0.6962,0.6927,0.7319,0.7978,0.8338,0.8189,0.7861,0.7635,0.8582,0.8401,0.7579,0.8156,0.8101,0.773,0.7626,0.7579,0.7546,0.7555,0.7588,0.7719,0.7775,0.7885,0.8052,0.8208,0.8281,0.8165,0.8441,0.8479,0.8475,0.8589,0.8732,0.8774,0.8926,0.9011,0.915,0.9611,1.0049,1.025,1.0793,1.108,1.1235,1.1192,1.1235,1.1794,1.1837,1.1843,1.1972,1.21,1.2357,1.2656,1.2496,1.2259,1.2595,1.2924,1.2582,1.2232,1.175,1.1565,1.144,1.1493,1.1386,1.0828,1.0128,0.9824,0.9871,0.9914,0.9947,0.9928,0.9833,0.9981,1.0341,1.1593,1.2502,-0.3681,-0.4332,-0.3732,-0.3435,-0.3455,-0.3832,-0.3473,-0.2565,-0.2118,-0.1388,-0.0896,-0.0627,0.0224,0.1391,0.0852,0.0673,0.1346,0.1434,0.1424,0.1399,0.1395,0.1496,0.1575,0.1592,0.1657,0.1848,0.2055,0.2237,0.2433,0.2785,0.3256,0.3724,0.4151,0.4698,0.5443,0.5598,0.5831,0.6222,0.63,0.63,0.649,0.7095,0.7247,0.6935,0.7174,0.7312,0.7365,0.7304,0.7195,0.7237,0.7486,0.7859,0.7974,0.7845,0.7732,0.7732,0.7716,0.7725,0.7734,0.7672,0.7687,0.7592,0.7749,0.7829,0.7855,0.8065,0.8154,0.8102,0.8178,0.8293,0.8403,0.8589,0.8741,0.8897,0.8962,0.9126,0.9426,0.9582,0.9755,0.9846,1.0124,1.0424,1.0684,1.0511,1.0766,1.1451,1.1623,1.1537,1.158,1.1709,1.2057,1.24,1.2123,1.1879,1.2197,1.2355,1.191,1.1602,1.1135,1.0814,1.0722,1.0722,1.0809,1.0598,1.0149,1.0038,0.9994,0.999,0.9971,0.9985,1.0077,1.0299,1.075,1.1858,1.2512,-0.4029,-0.3827,-0.353,-0.2842,-0.2152,-0.2398,-0.2163,-0.1429,-0.0948,-0.0627,-0.0179,0.009,0.0806,0.1525,0.1211,0.1346,0.148,0.1435,0.1472,0.1592,0.1632,0.1709,0.1906,0.1948,0.1998,0.1998,0.213,0.2303,0.2478,0.2865,0.3295,0.3802,0.4192,0.4815,0.5482,0.5601,0.587,0.6183,0.63,0.63,0.6451,0.6868,0.7284,0.7011,0.7163,0.7293,0.7298,0.7282,0.7245,0.7274,0.7298,0.7466,0.7788,0.7664,0.7597,0.7628,0.7664,0.7664,0.7659,0.7668,0.766,0.7649,0.7718,0.7773,0.7847,0.7977,0.7974,0.7906,0.7987,0.8183,0.8365,0.8479,0.8696,0.8948,0.8995,0.9186,0.9522,0.9606,0.9653,0.9767,0.9933,1.0111,1.0168,1.0077,1.0164,1.0809,1.1063,1.102,1.0982,1.1149,1.1628,1.18,1.1585,1.1537,1.1837,1.175,1.1215,1.0894,1.0614,1.0386,1.025,1.0337,1.0467,1.025,1.0038,1.0038,0.9994,0.9994,1.0164,1.0467,1.0641,1.0684,1.1015,1.1787,1.2207,-0.4175,-0.2719,-0.3022,-0.2047,-0.0491,-0.0868,-0.0804,-0.0232,0.0454,0.063,0.0672,0.1615,0.1569,0.1885,0.1794,0.1839,0.184,0.1615,0.161,0.1834,0.1788,0.1964,0.2176,0.2277,0.231,0.214,0.2277,0.2329,0.2458,0.2868,0.3452,0.3841,0.4309,0.4893,0.5443,0.5598,0.5831,0.6222,0.63,0.63,0.63,0.6454,0.6679,0.698,0.7276,0.7452,0.7465,0.7473,0.7494,0.7518,0.7518,0.7393,0.7346,0.7389,0.7546,0.7555,0.759,0.7607,0.7612,0.7594,0.7642,0.7768,0.774,0.7739,0.7791,0.7863,0.7791,0.7757,0.7795,0.8063,0.8293,0.8381,0.8567,0.8825,0.8977,0.9174,0.9466,0.9611,0.9705,0.9933,0.9971,1.0072,1.0081,1.0038,1.0038,1.0125,1.0381,1.0593,1.0593,1.0636,1.1111,1.1284,1.1111,1.0852,1.1093,1.1201,1.0663,1.0522,1.0222,1.013,0.9994,1.012,1.025,1.0164,0.9994,0.9994,0.9994,0.9994,1.0294,1.0852,1.0766,1.0381,1.0857,1.1677,1.2057,-0.2819,-0.2063,-0.1511,-0.0754,-0.015,-0.0393,0.0096,0.0852,0.1252,0.1321,0.1257,0.1119,0.1568,0.1793,0.1254,0.1389,0.193,0.1885,0.1885,0.2064,0.1974,0.2064,0.2419,0.2499,0.2548,0.2613,0.2584,0.2525,0.2693,0.3292,0.3659,0.3921,0.4506,0.5132,0.5443,0.5601,0.5831,0.6222,0.63,0.63,0.6338,0.6451,0.6679,0.7065,0.733,0.7446,0.7484,0.7484,0.7518,0.7518,0.7518,0.7482,0.745,0.7471,0.7551,0.766,0.7685,0.7672,0.7676,0.7715,0.7668,0.7588,0.7571,0.7575,0.7587,0.7599,0.7595,0.7599,0.7684,0.788,0.7919,0.8186,0.8498,0.8688,0.8866,0.9094,0.9475,0.9625,0.9712,0.9941,0.9994,0.9994,0.9994,1.0038,1.0081,1.0081,1.0207,1.0506,1.0722,1.0593,1.0641,1.0679,1.0636,1.0381,1.0222,1.0313,1.0183,1.0231,1.0086,1.0086,0.9994,0.9994,0.9994,0.9994,0.9994,0.9994,0.9994,0.9994,1.0294,1.0766,1.0381,0.9951,1.1025,1.2009,1.2308,-0.1713,-0.0906,-0.0403,0.0302,0.1006,0.1186,0.1463,0.1976,0.2204,0.2163,0.2003,0.1893,0.1973,0.2198,0.2063,0.2108,0.2199,0.211,0.2155,0.2244,0.2244,0.2334,0.2694,0.2694,0.2725,0.2812,0.274,0.2655,0.2686,0.3458,0.3805,0.4003,0.4587,0.5212,0.5521,0.5601,0.587,0.618,0.63,0.63,0.6296,0.649,0.6756,0.6984,0.7138,0.7249,0.733,0.7215,0.7253,0.733,0.733,0.7407,0.748,0.7518,0.7518,0.7638,0.7642,0.7642,0.7642,0.7642,0.7591,0.7514,0.7518,0.7518,0.7518,0.7518,0.7522,0.7526,0.7565,0.7722,0.7974,0.815,0.8398,0.8682,0.8788,0.9008,0.9404,0.9462,0.965,0.9907,0.9994,0.999,0.9994,1.0038,1.0125,1.012,1.012,1.0337,1.0679,1.0593,1.0381,1.0424,1.0463,1.0381,1.012,1.0038,1.0038,0.9994,0.9994,0.9994,0.9994,0.9994,0.9994,0.9994,0.9994,0.9994,0.9951,0.9907,1.0294,1.0593,1.0467,1.0549,1.1531,1.2254,1.2516,-0.0605,0.0403,0.0605,0.1262,0.2065,0.2534,0.2656,0.2727,0.2882,0.2832,0.2723,0.2766,0.2694,0.2649,0.2739,0.2739,0.256,0.2334,0.2379,0.2515,0.2515,0.2604,0.283,0.292,0.2871,0.2857,0.2867,0.278,0.293,0.3535,0.3844,0.4141,0.4701,0.5251,0.5521,0.5637,0.5906,0.6141,0.63,0.63,0.6335,0.6525,0.6676,0.6865,0.6903,0.7057,0.7099,0.7022,0.7061,0.718,0.7223,0.7296,0.7484,0.7518,0.7518,0.7518,0.7518,0.7518,0.7518,0.7518,0.7518,0.7518,0.7518,0.7518,0.7518,0.7522,0.7496,0.7525,0.7588,0.7708,0.7976,0.8131,0.8328,0.856,0.8658,0.8777,0.9196,0.9388,0.9515,0.9733,0.9903,0.999,0.9994,0.9994,1.0081,1.0081,1.0033,1.0033,1.0337,1.0424,1.0294,1.0381,1.0376,1.0376,1.025,1.0081,1.0038,0.9994,0.9994,0.9994,0.9994,0.9994,0.9994,0.9994,0.9994,0.9994,0.9907,0.9777,0.9951,1.0164,1.0506,1.0804,1.1101,1.196,1.265,0.0555,0.1768,0.1768,0.2019,0.2371,0.2665,0.2738,0.2742,0.297,0.3054,0.2917,0.2903,0.2875,0.2875,0.2875,0.2875,0.2785,0.2604,0.2604,0.2739,0.2649,0.2694,0.2875,0.292,0.292,0.2917,0.2907,0.3053,0.3286,0.3702,0.4067,0.4393,0.4883,0.5368,0.5626,0.5757,0.6018,0.6257,0.63,0.63,0.6335,0.6637,0.671,0.6753,0.6907,0.7026,0.6945,0.6865,0.6945,0.7142,0.7184,0.7296,0.7446,0.7518,0.7518,0.7518,0.7518,0.7518,0.7518,0.7518,0.7518,0.7518,0.7518,0.7518,0.7526,0.7555,0.7612,0.7763,0.7767,0.7845,0.8053,0.8159,0.8312,0.8406,0.8556,0.8705,0.8999,0.9345,0.9476,0.9689,0.9903,0.999,0.9994,0.9994,0.9994,0.9994,0.9994,0.9994,1.0038,1.0125,1.0294,1.0376,1.025,1.025,1.025,1.0081,1.0038,0.9994,0.9994,0.9994,0.9994,0.9994,0.9994,0.9994,0.9994,1.0033,1.0033,0.9907,0.9646,0.9946,1.0593,1.0419,1.0115,1.1235,1.2869,0.1262,0.1819,0.2121,0.2222,0.2272,0.2775,0.2914,0.2827,0.2992,0.3081,0.304,0.2957,0.292,0.292,0.292,0.292,0.2875,0.2784,0.2785,0.2875,0.2785,0.2785,0.2875,0.292,0.292,0.2964,0.3178,0.3488,0.3735,0.3936,0.4209,0.4644,0.5146,0.5512,0.5735,0.5824,0.6032,0.6219,0.63,0.63,0.6338,0.6493,0.6602,0.6602,0.6683,0.6718,0.6718,0.6602,0.6679,0.6834,0.6949,0.7138,0.733,0.7446,0.7518,0.7518,0.7518,0.7518,0.7518,0.7522,0.7526,0.7526,0.7526,0.7518,0.7539,0.7629,0.7702,0.7788,0.7854,0.7983,0.8126,0.8235,0.8341,0.8473,0.8555,0.875,0.8955,0.9174,0.9437,0.9689,0.9907,0.9951,0.9994,0.9994,0.9994,0.9994,0.9994,0.9994,0.9994,1.0038,1.0207,1.0419,1.0246,1.0077,1.0077,1.0038,1.0038,0.9994,0.9994,0.9994,0.9994,0.9994,0.9994,0.9994,0.9994,1.0077,1.0207,1.0033,0.9777,1.025,1.0809,1.0933,1.1192,1.2272,1.3616,0.1617,0.1768,0.2221,0.2321,0.2272,0.2928,0.3078,0.2913,0.3053,0.3097,0.3112,0.3066,0.3053,0.2964,0.3009,0.3054,0.292,0.292,0.292,0.292,0.292,0.2875,0.292,0.292,0.292,0.292,0.3365,0.3732,0.4047,0.4307,0.4558,0.4957,0.5434,0.5766,0.5935,0.6085,0.6271,0.6332,0.6419,0.6412,0.6375,0.6443,0.6514,0.65,0.6475,0.6412,0.649,0.6412,0.6412,0.6641,0.683,0.7022,0.7219,0.7411,0.748,0.7518,0.7518,0.7559,0.7567,0.7571,0.7555,0.7588,0.7606,0.7667,0.7659,0.7756,0.787,0.7967,0.8053,0.8174,0.8308,0.8365,0.8469,0.8547,0.8604,0.8823,0.9087,0.9218,0.9349,0.9519,0.9733,0.9994,0.9994,0.9994,0.9994,0.9994,0.9994,0.9994,0.9994,0.9994,1.012,1.0289,1.0207,0.9994,0.9994,0.9994,0.9994,0.9994,0.9994,0.9994,0.9994,0.9994,0.9994,0.9994,1.012,1.0337,1.0636,1.0294,1.0038,1.0761,1.1488,1.2223,1.2875,1.3737,1.4095,0.1718,0.197,0.2271,0.2522,0.2725,0.3029,0.318,0.312,0.3101,0.3093,0.3205,0.3386,0.3365,0.3142,0.3275,0.3277,0.292,0.292,0.292,0.292,0.292,0.292,0.292,0.292,0.292,0.3008,0.3499,0.3939,0.433,0.4793,0.5173,0.5611,0.5797,0.607,0.6293,0.6415,0.6461,0.6545,0.6549,0.6593,0.6572,0.6581,0.6664,0.655,0.6535,0.649,0.6342,0.634,0.6412,0.6641,0.6828,0.6992,0.7192,0.7411,0.7484,0.7518,0.7559,0.7624,0.7682,0.7641,0.7602,0.7763,0.7877,0.7898,0.7886,0.7951,0.8065,0.8178,0.8227,0.8341,0.851,0.8592,0.8575,0.8592,0.8616,0.87,0.8955,0.917,0.9301,0.9432,0.9602,0.982,0.9907,0.9864,0.9994,0.9994,0.9994,0.9994,0.9994,0.9994,0.9994,1.0077,1.0077,0.9994,0.9994,0.9994,0.9994,0.9994,0.9994,0.9994,0.9994,1.0038,1.0294,1.0381,1.0554,1.0809,1.1111,1.1235,1.1402,1.1655,1.2169,1.2735,1.3215,1.3743,1.4004,0.192,0.2021,0.2474,0.2725,0.2826,0.3079,0.318,0.321,0.3152,0.3238,0.3397,0.3792,0.3942,0.3765,0.3542,0.3497,0.332,0.3008,0.292,0.292,0.292,0.292,0.292,0.2963,0.3053,0.3365,0.381,0.43,0.4739,0.5191,0.5645,0.6025,0.6111,0.6293,0.6483,0.6637,0.6678,0.6651,0.6668,0.6661,0.6641,0.6654,0.6695,0.6644,0.662,0.665,0.6576,0.6532,0.6638,0.6734,0.6899,0.7086,0.7223,0.7439,0.7508,0.7567,0.7637,0.7739,0.78,0.7755,0.774,0.7874,0.7975,0.8024,0.8065,0.8113,0.8195,0.8296,0.8437,0.8539,0.858,0.8608,0.8608,0.8612,0.8612,0.8656,0.8828,0.9087,0.9213,0.9301,0.9471,0.9689,0.9733,0.9733,0.9864,0.9951,0.9994,0.9994,0.9994,0.9994,0.9994,0.9994,0.9994,0.9994,0.9994,0.9994,0.9994,0.9994,0.9994,0.9994,1.0077,1.0722,1.0939,1.0982,1.1278,1.1875,1.2303,1.2559,1.2729,1.2857,1.2899,1.3027,1.347,1.3828,1.3988,0.2123,0.2273,0.2625,0.2826,0.2826,0.3079,0.318,0.321,0.3151,0.3308,0.3633,0.4076,0.4297,0.421,0.3987,0.3721,0.3499,0.3141,0.2964,0.2964,0.3054,0.3097,0.3141,0.332,0.3587,0.39,0.4255,0.4741,0.4964,0.5549,0.5977,0.6254,0.6393,0.6567,0.6704,0.6806,0.681,0.678,0.6817,0.6797,0.6787,0.677,0.677,0.6753,0.675,0.6712,0.6661,0.6692,0.675,0.6877,0.7016,0.7164,0.7344,0.7493,0.7563,0.7663,0.7788,0.789,0.7943,0.7971,0.7971,0.8085,0.8182,0.8195,0.8215,0.8296,0.8381,0.8394,0.8543,0.8616,0.8616,0.8616,0.8616,0.8616,0.8616,0.8656,0.8784,0.9043,0.9082,0.917,0.9384,0.9646,0.9689,0.9733,0.9864,0.9994,0.9994,0.9994,0.9994,0.9994,0.9994,0.9994,0.9994,0.9994,0.9994,0.9994,0.9994,0.9994,0.9994,0.9994,1.025,1.089,1.1322,1.1235,1.1789,1.2936,1.3366,1.3366,1.3633,1.3899,1.3808,1.3584,1.3688,1.401,1.4097,0.2273,0.2775,0.2775,0.2826,0.2876,0.3079,0.3229,0.3206,0.3237,0.3395,0.373,0.421,0.4433,0.4389,0.4389,0.4076,0.3676,0.323,0.2963,0.3097,0.3321,0.3499,0.3721,0.39,0.4076,0.4342,0.4654,0.4921,0.5099,0.5727,0.6169,0.6387,0.6584,0.6801,0.7041,0.7085,0.7011,0.692,0.7007,0.6964,0.6906,0.6922,0.6879,0.6856,0.6831,0.679,0.679,0.679,0.6888,0.703,0.7089,0.7267,0.7504,0.7645,0.7777,0.7894,0.7938,0.8093,0.8247,0.8264,0.8272,0.8288,0.8416,0.8494,0.8555,0.8592,0.8571,0.8543,0.86,0.8616,0.8616,0.8616,0.8616,0.8616,0.8616,0.8656,0.8784,0.8955,0.9043,0.9043,0.9345,0.9602,0.9689,0.982,0.9951,0.9994,0.9994,0.9994,0.9994,0.9994,0.9994,0.9994,0.9994,0.9994,0.9994,0.9994,0.9994,0.9994,0.9994,0.9994,1.0376,1.1063,1.1316,1.1408,1.2473,1.3795,1.4048,1.4097,1.4272,1.4405,1.4279,1.4153,1.4166,1.4115,1.4202,0.2473,0.2826,0.2978,0.3079,0.3079,0.313,0.316,0.3251,0.3708,0.4,0.4228,0.4879,0.5238,0.5149,0.4835,0.4476,0.4032,0.3587,0.3365,0.3409,0.3587,0.381,0.4034,0.43,0.452,0.4743,0.4966,0.5235,0.5508,0.5949,0.6169,0.6432,0.67,0.6881,0.7051,0.7095,0.7058,0.7038,0.7068,0.7068,0.7028,0.7018,0.7018,0.7014,0.6953,0.6966,0.6959,0.6953,0.7004,0.7151,0.717,0.7288,0.7488,0.7624,0.7767,0.7895,0.798,0.8284,0.8418,0.851,0.8471,0.8539,0.8563,0.8616,0.8616,0.8616,0.8612,0.8568,0.8524,0.8568,0.8616,0.8568,0.8568,0.8616,0.8616,0.8616,0.87,0.8872,0.8955,0.8911,0.9087,0.9432,0.9646,0.982,0.9951,0.9994,0.9994,0.9994,0.9994,0.9994,0.9994,0.9994,0.9994,0.9994,0.9994,0.9994,0.9994,0.9994,0.9994,0.9994,1.0506,1.1187,1.1783,1.2126,1.3408,1.4608,1.465,1.4699,1.4783,1.4783,1.4531,1.4279,1.4166,1.4128,1.4208,0.2675,0.2978,0.313,0.318,0.318,0.318,0.3235,0.3394,0.3821,0.4139,0.4544,0.5062,0.5421,0.5419,0.5235,0.4875,0.4476,0.3898,0.3808,0.3808,0.3855,0.4166,0.4433,0.4703,0.5015,0.5193,0.528,0.5463,0.5819,0.6083,0.6346,0.6567,0.6748,0.6925,0.701,0.6966,0.7007,0.7041,0.7095,0.7092,0.7082,0.7085,0.7088,0.7088,0.7078,0.7082,0.7092,0.7126,0.7142,0.7227,0.7286,0.7296,0.7482,0.7647,0.7781,0.797,0.818,0.845,0.8567,0.86,0.8588,0.86,0.8616,0.8616,0.8568,0.8476,0.8476,0.8432,0.844,0.844,0.8444,0.8444,0.8532,0.8532,0.8616,0.8616,0.8656,0.8784,0.8867,0.8828,0.8999,0.9301,0.9602,0.982,0.9994,0.9994,0.9994,0.9994,0.9994,0.9994,0.9994,0.9994,0.9994,0.9994,0.9994,0.9994,0.9994,0.9994,0.9994,0.9994,1.0593,1.123,1.204,1.2887,1.4006,1.4908,1.5173,1.5298,1.5082,1.4783,1.4482,1.4286,1.4124,1.4135,1.4195,0.2978,0.318,0.318,0.318,0.323,0.3274,0.3454,0.3769,0.3423,0.3949,0.498,0.4621,0.5015,0.551,0.5235,0.501,0.4786,0.4032,0.4076,0.4166,0.421,0.4567,0.4971,0.5374,0.5466,0.5599,0.5688,0.5686,0.6086,0.6257,0.6476,0.6745,0.6833,0.6881,0.6836,0.6881,0.6925,0.7054,0.7095,0.7095,0.7095,0.7095,0.7095,0.7095,0.7095,0.7095,0.7095,0.7132,0.7224,0.7304,0.7274,0.748,0.769,0.7868,0.8048,0.8229,0.8448,0.8552,0.856,0.8612,0.8616,0.8568,0.8524,0.8568,0.8524,0.8436,0.8316,0.8295,0.8271,0.8247,0.8236,0.8324,0.8412,0.8492,0.8616,0.8612,0.8612,0.8696,0.874,0.8823,0.9087,0.9345,0.9602,0.982,0.9994,0.9994,0.9994,0.9994,0.9994,0.9994,0.9994,0.9994,0.9994,0.9994,0.9994,0.9994,0.9994,0.9994,0.9994,1.0077,1.0674,1.1316,1.2163,1.3148,1.4391,1.5124,1.5305,1.5257,1.5082,1.4783,1.4573,1.4328,1.4173,1.4144,1.4202,0.2928,0.318,0.318,0.318,0.3224,0.358,0.3974,0.4409,0.4534,0.4892,0.5165,0.5273,0.5377,0.5644,0.5552,0.5327,0.4879,0.452,0.452,0.4567,0.4523,0.4879,0.5285,0.5644,0.5688,0.5688,0.5733,0.5863,0.6083,0.6343,0.6564,0.6748,0.6745,0.67,0.6792,0.6792,0.6922,0.7054,0.7095,0.7095,0.7095,0.7095,0.7095,0.7095,0.7095,0.7095,0.7095,0.7095,0.7187,0.7163,0.7186,0.7251,0.7291,0.7672,0.8049,0.846,0.8564,0.8612,0.8568,0.8432,0.8384,0.8436,0.83,0.8344,0.8388,0.8368,0.8222,0.818,0.8192,0.82,0.8308,0.8382,0.8464,0.854,0.862,0.8612,0.8612,0.8612,0.8652,0.8867,0.913,0.9388,0.9602,0.982,0.9994,0.9994,0.9994,0.9994,0.9994,0.9994,0.9994,0.9994,0.9994,0.9994,0.9994,0.9994,0.9994,0.9994,0.9994,1.012,1.0593,1.1316,1.2254,1.336,1.4608,1.5131,1.5389,1.5257,1.5166,1.4999,1.4783,1.4496,1.4257,1.4179,1.4188,0.3029,0.3226,0.3403,0.3677,0.4044,0.4369,0.4829,0.5154,0.5008,0.5016,0.5378,0.5355,0.5508,0.5688,0.5688,0.5552,0.5282,0.4832,0.4835,0.506,0.4746,0.5104,0.5508,0.5688,0.5688,0.5733,0.5822,0.5997,0.6216,0.6435,0.6656,0.6609,0.652,0.6656,0.6792,0.6881,0.6966,0.7054,0.7095,0.7095,0.7095,0.7095,0.7095,0.7095,0.7095,0.7095,0.7095,0.7095,0.7095,0.7095,0.7095,0.7187,0.7319,0.776,0.816,0.8524,0.8476,0.8432,0.8384,0.8208,0.8208,0.8212,0.808,0.8126,0.8164,0.8117,0.8061,0.8012,0.8177,0.8268,0.8405,0.8491,0.856,0.8589,0.8624,0.8616,0.8616,0.8616,0.8744,0.8915,0.9174,0.9432,0.9689,0.9864,0.9994,0.9994,0.9994,0.9994,0.9994,0.9994,0.9994,0.9994,0.9994,0.9994,0.9994,0.9994,0.9994,0.9994,0.9994,1.0207,1.0598,1.1574,1.2808,1.3795,1.4741,1.5131,1.5389,1.5389,1.5257,1.5082,1.4866,1.458,1.4292,1.413,1.4229,0.323,0.3325,0.3754,0.4417,0.5206,0.5324,0.5631,0.5957,0.5005,0.4976,0.5542,0.5287,0.5371,0.5644,0.5688,0.5688,0.5463,0.5146,0.5102,0.5644,0.5102,0.5235,0.5552,0.5688,0.5777,0.5822,0.5911,0.5997,0.6346,0.6523,0.6564,0.6428,0.6656,0.6792,0.6877,0.6966,0.7051,0.7095,0.7095,0.7095,0.7095,0.7095,0.7095,0.7095,0.7095,0.7095,0.7095,0.7095,0.7095,0.7095,0.7139,0.7231,0.7544,0.7852,0.8252,0.8388,0.8296,0.8292,0.8204,0.8028,0.794,0.79,0.7856,0.7867,0.7864,0.7892,0.7842,0.804,0.8178,0.8281,0.8371,0.8593,0.8729,0.8662,0.862,0.8616,0.8616,0.8612,0.87,0.8872,0.913,0.9388,0.9602,0.982,0.9994,0.9994,0.9994,0.9994,0.9994,0.9994,0.9994,0.9994,0.9994,0.9994,0.9994,0.9994,0.9994,0.9994,0.9994,1.0424,1.0895,1.2046,1.3408,1.4307,1.509,1.5222,1.5389,1.5389,1.5298,1.5082,1.4873,1.4622,1.4419,1.425,1.4235,0.3432,0.3825,0.4296,0.4842,0.523,0.5221,0.5422,0.5772,0.552,0.5538,0.5745,0.5639,0.5552,0.5688,0.5688,0.5688,0.5599,0.5327,0.5327,0.5419,0.5235,0.5327,0.5644,0.5733,0.5822,0.5908,0.5952,0.5997,0.6213,0.6432,0.6612,0.67,0.6792,0.6836,0.701,0.7095,0.7095,0.7095,0.7095,0.7095,0.7095,0.7095,0.7095,0.7095,0.7095,0.7095,0.7095,0.7095,0.7095,0.7095,0.7095,0.7231,0.7503,0.7808,0.8072,0.8204,0.812,0.8072,0.8025,0.7852,0.7676,0.768,0.7643,0.7569,0.7574,0.7625,0.7809,0.8038,0.8226,0.8259,0.8365,0.8637,0.8818,0.8731,0.8616,0.8616,0.8616,0.8612,0.8656,0.8872,0.913,0.9345,0.9563,0.9733,0.9951,0.9994,0.9994,0.9994,0.9994,0.9994,0.9994,0.9994,0.9994,0.9994,0.9994,0.9994,0.9994,0.9994,0.9994,1.0506,1.1192,1.2729,1.4181,1.4783,1.5389,1.5389,1.5389,1.5389,1.5298,1.5124,1.4999,1.479,1.4664,1.4496,1.4462,0.4083,0.4373,0.4886,0.525,0.5496,0.5468,0.5567,0.5702,0.5688,0.5723,0.5814,0.5718,0.5688,0.5688,0.5688,0.5688,0.5644,0.5463,0.5508,0.5508,0.5508,0.5508,0.5644,0.5733,0.5866,0.5997,0.6038,0.6124,0.6166,0.6343,0.652,0.6748,0.6792,0.6925,0.7095,0.7095,0.7095,0.7095,0.7095,0.7095,0.7095,0.7095,0.7095,0.7095,0.7095,0.7095,0.7095,0.7095,0.7095,0.7228,0.736,0.7411,0.7591,0.7856,0.8028,0.7984,0.79,0.7768,0.7764,0.7632,0.7411,0.7415,0.7496,0.7448,0.7558,0.7652,0.7826,0.8046,0.8445,0.8564,0.8585,0.8811,0.8774,0.8682,0.8641,0.8616,0.8616,0.8616,0.8784,0.9087,0.9301,0.9432,0.9646,0.9864,0.9994,0.9994,0.9994,0.9994,0.9994,0.9994,0.9994,0.9994,0.9994,0.9994,0.9994,0.9994,0.9994,0.9994,1.0033,1.0944,1.1892,1.3548,1.4922,1.5294,1.5469,1.5389,1.5389,1.5496,1.532,1.5166,1.5082,1.4999,1.4873,1.4797,1.4742,0.4828,0.4958,0.5361,0.5686,0.5872,0.5882,0.5822,0.5699,0.5688,0.5688,0.5699,0.5694,0.5688,0.5688,0.5688,0.5688,0.5688,0.5599,0.5688,0.5688,0.5688,0.5644,0.5644,0.5733,0.5866,0.5997,0.6127,0.6169,0.621,0.6343,0.652,0.67,0.6836,0.6925,0.7054,0.7095,0.7095,0.7095,0.7095,0.7095,0.7095,0.7095,0.7095,0.7095,0.7095,0.7095,0.7095,0.7095,0.7095,0.7275,0.7452,0.7499,0.7544,0.772,0.7808,0.7808,0.7591,0.7503,0.7503,0.7319,0.7187,0.7173,0.7299,0.7424,0.7563,0.7702,0.7831,0.8117,0.8521,0.8736,0.876,0.8866,0.8815,0.8662,0.8653,0.8616,0.8616,0.8612,0.8872,0.917,0.9301,0.9476,0.9689,0.9907,0.9994,0.9994,0.9994,0.9994,0.9994,0.9994,0.9994,0.9994,0.9994,0.9994,0.9994,0.9994,0.9994,1.0207,1.0419,1.1419,1.2607,1.4231,1.529,1.5503,1.5657,1.5687,1.5635,1.5665,1.5458,1.5316,1.5352,1.5346,1.5126,1.505,1.5066,0.5042,0.541,0.5835,0.5941,0.5901,0.5806,0.5754,0.5694,0.5688,0.5688,0.5688,0.5688,0.5688,0.5688,0.5688,0.5688,0.5688,0.5688,0.5688,0.5688,0.5688,0.5688,0.5733,0.5777,0.5735,0.5863,0.6038,0.6038,0.6213,0.6343,0.6428,0.6564,0.6962,0.7054,0.7095,0.7095,0.7095,0.7095,0.7095,0.7095,0.7095,0.7095,0.7095,0.7095,0.7095,0.7095,0.7095,0.7095,0.7095,0.7231,0.737,0.7415,0.7411,0.7499,0.7588,0.7544,0.7323,0.7367,0.7279,0.7187,0.7143,0.7146,0.7309,0.7417,0.7563,0.7719,0.7907,0.8163,0.8447,0.8583,0.8653,0.8937,0.8954,0.871,0.8616,0.8616,0.8616,0.8612,0.8696,0.8867,0.8999,0.9213,0.9476,0.9646,0.9864,0.9907,0.9994,0.9994,0.9994,0.9994,0.9994,0.9994,0.9994,0.9994,0.9994,0.9994,1.0033,1.0289,1.0921,1.2198,1.3502,1.4883,1.5698,1.5892,1.606,1.614,1.6067,1.5899,1.5819,1.574,1.579,1.5733,1.5496,1.539,1.5435]}]]